Date StartTime U_cm/s V_cm/s W_cm/s Ustd_cm/s Vstd_cm/s Wstd_cm/s Uvar_(cm/s)^2 Vvar_(cm/s)^2 Wvar_(cm/s)^2 KE_(m/s)^2 TurbulentKE_(m/s)^2 HorizWindSpeed_cm/s FrictionSpeec_cm/s DragCoef SpeedOfSound_m/s SonicTemperature_C Pressure_mb 
04/10/2014  00:00:00      -98.090      -72.070        4.158       49.279       36.235       26.801     2428.391     1313.006      718.286        0.965        0.223      121.720       22.742        0.035      340.636       14.793      862.886
04/10/2014  00:01:00      -75.381      -67.411        9.239       44.397       38.113       25.000     1971.117     1452.572      625.002        0.718        0.202      101.126       22.377        0.049      340.634       14.790      862.902
04/10/2014  00:02:00      -73.542      -98.917        2.236       57.229       41.586       27.476     3275.146     1729.420      754.930        1.048        0.288      123.259       28.876        0.055      340.620       14.767      862.904
04/10/2014  00:03:00       -6.183      -60.577       13.797       36.706       31.407       26.084     1347.344      986.375      680.355        0.346        0.151       60.892       25.265        0.172      340.653       14.821      862.896
04/10/2014  00:04:00      -25.384      -45.386       -3.531       19.363       22.703       14.057      374.935      515.422      197.601        0.190        0.054       52.002       13.339        0.066      340.685       14.877      862.888
04/10/2014  00:05:00       11.108      -41.916       -2.192       23.452       41.301       19.143      550.005     1705.738      366.447        0.225        0.131       43.363       16.252        0.140      340.573       14.687      862.899
04/10/2014  00:06:00       -3.449      -72.836       -9.101       30.060       40.493       24.426      903.607     1639.656      596.644        0.427        0.157       72.918       14.460        0.039      340.615       14.757      862.896
04/10/2014  00:07:00      -16.967      -64.748        8.593       40.742       37.613       23.335     1659.930     1414.737      544.509        0.409        0.181       66.934       20.781        0.096      340.638       14.796      862.901
04/10/2014  00:08:00       19.707      -94.841       -8.329       80.216       53.671       29.831     6434.548     2880.580      889.882        0.983        0.510       96.867       36.945        0.145      340.387       14.370      862.886
04/10/2014  00:09:00      -13.345      -86.598       -9.029       48.652       53.482       40.213     2367.032     2860.279     1617.112        0.730        0.342       87.620       24.598        0.079      340.213       14.078      862.901
04/10/2014  00:10:00      -23.207      -83.205        6.424       38.406       45.578       25.755     1475.034     2077.370      663.335        0.586        0.211       86.380       18.634        0.047      340.292       14.213      862.913
04/10/2014  00:11:00      -20.793      -22.144        2.118       41.338       65.178       26.597     1708.808     4248.193      707.407        0.379        0.333       30.376       23.568        0.602      340.110       13.904      862.883
04/10/2014  00:12:00      -25.602      -40.423        9.388       24.311       41.342       24.541      591.026     1709.148      602.285        0.264        0.145       47.848       21.603        0.204      339.927       13.597      862.862
04/10/2014  00:13:00      -57.828        7.250       -0.269       23.210       18.293       21.597      538.696      334.643      466.448        0.237        0.067       58.280       12.309        0.045      340.201       14.058      862.841
04/10/2014  00:14:00        0.894       31.606        5.134       39.801       24.214       32.645     1584.122      586.302     1065.664        0.213        0.162       31.619       19.605        0.384      339.851       13.469      862.860
04/10/2014  00:15:00       -8.201      -17.671        7.637        9.668       20.462       16.794       93.475      418.713      282.052        0.062        0.040       19.481       12.917        0.440      339.896       13.543      862.862
04/10/2014  00:16:00       -5.121      -13.338        3.310       56.487       37.811       18.134     3190.837     1429.702      328.847        0.258        0.247       14.287       11.648        0.665      339.935       13.610      862.868
04/10/2014  00:17:00       11.362      -30.060       12.948       42.232       34.205       28.692     1783.567     1169.985      823.216        0.249        0.189       32.136       25.833        0.646      339.588       13.026      862.848
04/10/2014  00:18:00       24.582      -19.711       -5.140       18.870       26.502       22.411      356.070      702.333      502.255        0.129        0.078       31.508       15.912        0.255      339.576       13.004      862.855
04/10/2014  00:19:00       -5.578      -13.376        0.604       10.664       13.114       13.424      113.723      171.985      180.192        0.034        0.023       14.492        5.868        0.164      339.808       13.396      862.853
04/10/2014  00:20:00       52.769       26.572       -8.137       33.143       23.843       24.666     1098.440      568.510      608.403        0.292        0.114       59.082       10.183        0.030      339.822       13.418      862.854
04/10/2014  00:21:00      132.086       71.788        4.250       43.115       31.584       24.298     1858.927      997.570      590.384        1.303        0.172      150.334       10.986        0.005      339.774       13.337      862.867
04/10/2014  00:22:00       69.974       34.581       20.336       42.840       26.971       24.517     1835.284      727.454      601.085        0.483        0.158       78.053       15.685        0.040      339.627       13.089      862.874
04/10/2014  00:23:00       87.179       49.007       28.442       37.202       30.709       29.161     1384.011      943.054      850.341        0.699        0.159      100.009       16.892        0.029      339.514       12.899      862.876
04/10/2014  00:24:00       57.175       33.755       20.764       33.440       30.051       23.523     1118.238      903.088      553.331        0.371        0.129       66.396       14.353        0.047      339.436       12.768      862.883
04/10/2014  00:25:00       11.108      -20.644       14.935       18.795       21.051       13.864      353.259      443.162      192.211        0.088        0.049       23.442       10.776        0.211      339.782       13.353      862.912
04/10/2014  00:26:00       88.509       82.195       36.527       38.759       68.916       50.541     1502.298     4749.387     2554.387        1.236        0.440      120.789       49.298        0.167      339.842       13.452      862.915
04/10/2014  00:27:00        4.378      103.435      120.333       37.820       54.069       23.702     1430.389     2923.411      561.763        1.506        0.246      103.528       21.418        0.043      339.700       13.214      862.908
04/10/2014  00:28:00       19.123      -31.259       47.661       50.316       60.320       34.941     2531.697     3638.528     1220.893        0.550        0.370       36.645       42.064        1.318      339.886       13.528      862.963
04/10/2014  00:29:00       25.233      -39.879        3.555       35.586       23.741       20.834     1266.361      563.652      434.058        0.225        0.113       47.192       15.292        0.105      339.881       13.519      862.987
04/10/2014  00:30:00       32.478      -10.147       22.115       21.608       42.086       16.474      466.889     1771.203      271.386        0.208        0.125       34.026       21.963        0.417      339.899       13.548      862.995
04/10/2014  00:31:00       35.460       26.777       24.678       19.576       16.296       16.908      383.235      265.558      285.887        0.176        0.047       44.434        9.138        0.042      339.773       13.337      862.993
04/10/2014  00:32:00       24.551       15.305       17.703       26.946       16.708       14.031      726.108      279.151      196.882        0.118        0.060       28.930       14.500        0.251      339.591       13.031      862.985
04/10/2014  00:33:00       -2.963       -0.953       23.086       11.325       16.520       11.030      128.257      272.924      121.662        0.053        0.026        3.112        6.325        4.131      339.763       13.321      862.989
04/10/2014  00:34:00       13.465       30.040       13.876       17.936       29.029       14.227      321.708      842.674      202.418        0.132        0.068       32.919       16.547        0.253      339.699       13.211      863.021
04/10/2014  00:35:00       56.105      139.411      -22.074       33.961       56.091       28.135     1153.345     3146.152      791.566        1.408        0.255      150.277       31.032        0.043      339.460       12.808      863.034
04/10/2014  00:36:00      101.485       69.053       -0.197       41.892       31.248       25.935     1754.963      976.417      672.611        0.924        0.170      122.750       20.151        0.027      339.549       12.958      862.997
04/10/2014  00:37:00       47.108       21.444       18.374       40.280       34.139       28.447     1622.445     1165.477      809.248        0.331        0.180       51.759       15.039        0.084      339.359       12.638      862.989
04/10/2014  00:38:00       72.688       60.195       25.558       26.064       27.822       26.991      679.334      774.080      728.517        0.587        0.109       94.377       13.736        0.021      339.358       12.637      863.000
04/10/2014  00:39:00       96.103       65.025       30.257       20.363       14.272       18.481      414.657      203.700      341.543        0.767        0.048      116.035        8.947        0.006      339.356       12.633      862.988
04/10/2014  00:40:00      123.381       65.137       23.201       43.805       32.183       29.863     1918.889     1035.752      891.828        1.192        0.192      139.519       11.780        0.007      339.320       12.571      862.994
04/10/2014  00:41:00      125.015       37.245       11.883       66.585       32.257       34.538     4433.507     1040.511     1192.875        1.191        0.333      130.445       35.993        0.076      339.426       12.750      862.978
04/10/2014  00:42:00        7.161      -14.598       14.850       37.368       45.142       26.511     1396.338     2037.810      702.807        0.231        0.207       16.260       28.898        3.158      339.290       12.521      862.998
04/10/2014  00:43:00      -88.295      -34.779        0.532       39.160       31.924       21.563     1533.511     1019.163      464.961        0.601        0.151       94.897       23.370        0.061      339.478       12.837      863.028
04/10/2014  00:44:00      -44.189       -0.307       -3.123       27.885       32.498       17.430      777.559     1056.140      303.793        0.205        0.107       44.190       11.044        0.062      339.448       12.789      863.033
04/10/2014  00:45:00      -45.734       16.291       -5.097       26.338       27.128       17.990      693.687      735.909      323.646        0.207        0.088       48.549        9.306        0.037      339.500       12.876      863.019
04/10/2014  00:46:00      -41.425       20.260       -2.810       39.078       36.574       17.513     1527.084     1337.622      306.723        0.265        0.159       46.114       10.889        0.056      339.464       12.816      863.023
04/10/2014  00:47:00      -10.264      -43.493      -11.764       21.726       30.605       13.359      472.040      936.662      178.461        0.186        0.079       44.688       11.647        0.068      339.709       13.230      863.036
04/10/2014  00:48:00        9.979        0.463        8.401       20.308       37.177       12.532      412.395     1382.105      157.062        0.106        0.098        9.989       14.409        2.081      339.624       13.086      863.048
04/10/2014  00:49:00       46.179       47.952       22.774       13.174       13.431       19.501      173.550      180.401      380.297        0.284        0.037       66.572        5.575        0.007      339.478       12.840      863.062
04/10/2014  00:50:00       48.274       91.391      -17.071       35.227       45.455       22.676     1240.909     2066.149      514.189        0.740        0.191      103.357       20.451        0.039      339.634       13.100      863.054
04/10/2014  00:51:00      107.068       65.902        8.525       64.104       49.484       39.072     4109.338     2448.650     1526.627        1.198        0.404      125.724       19.556        0.024      339.676       13.173      863.015
04/10/2014  00:52:00       95.136       31.240       11.583       37.592       36.359       23.948     1413.132     1322.008      573.512        0.673        0.165      100.134       15.772        0.025      339.580       13.010      863.007
04/10/2014  00:53:00       26.877        9.352       19.213       25.318       21.052       17.929      641.022      443.180      321.458        0.129        0.070       28.457       13.681        0.231      339.593       13.033      863.022
04/10/2014  00:54:00       83.368       37.141       25.172       52.182       36.054       24.644     2723.006     1299.906      607.331        0.680        0.232       91.267       19.952        0.048      339.677       13.176      863.027
04/10/2014  00:55:00       75.647      111.551       95.640       50.537       37.538       38.383     2554.001     1409.128     1473.221        1.637        0.272      134.782       29.663        0.048      339.663       13.150      862.973
04/10/2014  00:56:00       54.119       73.043       74.633       41.861       33.921       28.800     1752.340     1150.608      829.441        0.878        0.187       90.908       11.381        0.016      339.740       13.280      862.971
04/10/2014  00:57:00       19.203       44.922       55.930       32.194       40.909       22.859     1036.452     1673.515      522.524        0.437        0.162       48.854       20.949        0.184      339.593       13.032      862.985
04/10/2014  00:58:00      -52.841       38.732        0.527       45.690       30.990       23.270     2087.536      960.360      541.514        0.394        0.179       65.515       27.614        0.178      339.544       12.951      863.034
04/10/2014  00:59:00      -25.884       90.838      -22.143       71.533       48.610       22.524     5116.926     2362.980      507.318        0.870        0.399       94.454       18.766        0.039      339.653       13.135      863.045
04/10/2014  01:00:00      199.925      112.753       21.460       76.829       49.503       39.565     5902.695     2450.535     1565.400        3.153        0.496      229.528       25.962        0.013      339.571       12.992      862.998
04/10/2014  01:01:00      194.253      118.628       28.387       68.821       38.695       37.090     4736.303     1497.313     1375.698        3.011        0.380      227.611       18.359        0.007      339.456       12.797      862.992
04/10/2014  01:02:00       -7.748        4.322        6.315       55.722       51.399       41.032     3104.902     2641.879     1683.627        0.377        0.372        8.872       45.850       26.705      339.565       12.986      863.047
04/10/2014  01:03:00      -51.688      -18.659       13.479       49.301       32.626       25.912     2430.612     1064.468      671.435        0.368        0.208       54.953       27.864        0.257      339.553       12.965      863.077
04/10/2014  01:04:00       -2.671       60.354        2.159       40.221       57.026       26.795     1617.744     3251.912      717.994        0.462        0.279       60.414       33.145        0.301      339.562       12.981      863.085
04/10/2014  01:05:00       57.893       74.312       -0.193       53.879       31.602       14.844     2902.995      998.704      220.346        0.650        0.206       94.202       12.449        0.017      339.683       13.186      863.080
04/10/2014  01:06:00      121.404      112.511       77.644       64.879       57.215       46.907     4209.292     3273.525     2200.264        2.155        0.484      165.523       41.936        0.064      339.639       13.109      863.019
04/10/2014  01:07:00       71.000       53.260       52.309       81.377       66.503       34.950     6622.155     4422.668     1221.532        1.144        0.613       88.756       28.303        0.102      339.486       12.852      863.013
04/10/2014  01:08:00      -29.121        7.097      -10.139       32.340       31.808       22.430     1045.844     1011.747      503.085        0.178        0.128       29.973       18.809        0.394      339.510       12.893      863.099
04/10/2014  01:09:00       20.754       44.909       -1.023       34.261       21.924       16.522     1173.832      480.680      272.984        0.219        0.096       49.473       16.584        0.112      339.606       13.055      863.100
04/10/2014  01:10:00      147.804       90.251       27.558       56.078       38.426       42.746     3144.709     1476.526     1827.251        1.860        0.322      173.180       13.215        0.006      339.721       13.246      863.055
04/10/2014  01:11:00       10.048       29.415       12.760       35.270       51.047       23.386     1243.993     2605.774      546.919        0.276        0.220       31.084       11.767        0.143      339.605       13.053      863.027
04/10/2014  01:12:00      -12.731       33.419        9.347       48.346       30.059       26.727     2337.370      903.540      714.312        0.266        0.198       35.762       14.089        0.155      339.523       12.914      863.063
04/10/2014  01:13:00       38.216       26.512       23.289       37.027       24.779       20.503     1370.967      613.996      420.365        0.256        0.120       46.512       25.099        0.291      339.540       12.942      863.064
04/10/2014  01:14:00       96.180       33.889       25.982       29.246       23.847       27.100      855.335      568.679      734.427        0.662        0.108      101.976       13.065        0.016      339.641       13.114      863.059
04/10/2014  01:15:00       99.655       45.789        8.846       23.985       23.025       26.933      575.290      530.154      725.411        0.697        0.092      109.671       12.211        0.012      339.627       13.090      863.057
04/10/2014  01:16:00      126.782       43.092        9.413       27.530       41.472       22.882      757.897     1719.888      523.565        1.051        0.150      133.905       18.665        0.019      339.646       13.123      863.078
04/10/2014  01:17:00      170.246       46.887       -6.521       70.860       64.151       44.680     5021.182     4115.398     1996.288        2.118        0.557      176.585       30.693        0.030      339.592       13.029      863.064
04/10/2014  01:18:00      167.455       85.197       29.546       55.355       38.853       37.439     3064.156     1509.577     1401.659        2.107        0.299      187.882       29.726        0.025      339.593       13.028      863.054
04/10/2014  01:19:00       72.929       48.832       31.589       56.707       38.546       29.343     3215.640     1485.790      860.994        0.713        0.278       87.768       29.755        0.115      339.465       12.816      863.077
04/10/2014  01:20:00       50.623       12.972        9.904       23.316       29.512       18.755      543.619      870.934      351.759        0.230        0.088       52.259       14.310        0.075      339.331       12.591      863.110
04/10/2014  01:21:00       59.132        4.521       22.685       26.300       30.772       26.649      691.683      946.900      710.172        0.319        0.117       59.304       22.584        0.145      339.294       12.528      863.113
04/10/2014  01:22:00       14.840       17.982        9.501       29.027       22.208       27.928      842.571      493.196      779.952        0.137        0.106       23.315       10.178        0.191      339.300       12.539      863.134
04/10/2014  01:23:00       46.871       30.348        4.540       32.205       17.655       23.563     1037.151      311.691      555.235        0.252        0.095       55.838       16.420        0.086      339.423       12.746      863.166
04/10/2014  01:24:00      118.096       71.167       27.030       68.782       45.816       40.412     4730.906     2099.109     1633.167        1.410        0.423      137.882       34.679        0.063      339.374       12.662      863.154
04/10/2014  01:25:00      205.993       86.697       54.635       79.801       63.892       61.034     6368.183     4082.126     3725.130        3.355        0.709      223.494       42.711        0.037      339.334       12.591      863.095
04/10/2014  01:26:00      162.221       57.620       19.772       82.774       56.945       51.544     6851.514     3242.767     2656.752        2.139        0.638      172.151       37.456        0.047      339.265       12.478      863.110
04/10/2014  01:27:00      173.320      114.452       23.101       69.030       59.068       44.763     4765.072     3489.064     2003.709        2.696        0.513      207.700       36.448        0.031      339.270       12.486      863.163
04/10/2014  01:28:00      179.825      115.155       27.134       69.732       42.264       35.503     4862.589     1786.232     1260.497        2.712        0.395      213.536       17.567        0.007      339.230       12.419      863.178
04/10/2014  01:29:00      154.387      116.406       28.229       64.283       47.625       47.478     4132.265     2268.132     2254.128        2.342        0.433      193.354       30.078        0.024      339.086       12.177      863.173
04/10/2014  01:30:00      218.295      138.224       37.344       59.855       41.484       42.822     3582.610     1720.883     1833.715        3.764        0.357      258.377       28.980        0.013      339.200       12.367      863.177
04/10/2014  01:31:00      199.614      111.727       35.743       70.535       53.364       48.208     4975.213     2847.729     2324.014        3.187        0.507      228.755       35.949        0.025      339.167       12.311      863.156
04/10/2014  01:32:00      178.200      119.355       27.683       68.278       56.761       43.475     4661.860     3221.773     1890.100        2.827        0.489      214.478       32.617        0.023      339.059       12.129      863.156
04/10/2014  01:33:00      194.909      148.724       39.937       67.552       52.731       43.020     4563.245     2780.581     1850.716        3.545        0.460      245.170       22.511        0.008      339.092       12.185      863.176
04/10/2014  01:34:00      274.253      170.485       20.606      107.210       78.949       53.690    11493.989     6232.976     2882.572        6.265        1.030      322.925       24.855        0.006      339.085       12.173      863.133
04/10/2014  01:35:00      187.551       83.241       23.223      137.682       96.826       55.803    18956.449     9375.271     3113.982        3.704        1.572      205.194       52.891        0.066      339.096       12.193      863.077
04/10/2014  01:36:00        1.206       36.552       17.126       57.393       59.652       52.366     3293.913     3558.313     2742.199        0.561        0.480       36.572       26.132        0.511      339.211       12.390      863.095
04/10/2014  01:37:00      -75.840       25.076      -31.394       79.561       71.144       31.934     6329.922     5061.514     1019.786        0.989        0.621       79.878       23.791        0.089      339.270       12.489      863.150
04/10/2014  01:38:00     -105.098      -80.486        5.319       64.096       35.613       29.640     4108.332     1268.273      878.524        1.190        0.313      132.377       24.970        0.036      339.312       12.558      863.167
04/10/2014  01:39:00      -23.816      -55.240        0.754       67.892       29.930       20.740     4609.349      895.778      430.139        0.478        0.297       60.156       20.281        0.114      339.299       12.537      863.160
04/10/2014  01:40:00        0.671       -4.724       -0.711       17.529       18.227        7.955      307.282      332.237       63.283        0.036        0.035        4.772        7.750        2.638      339.265       12.479      863.129
04/10/2014  01:41:00        4.681       56.782      -11.120       23.880       18.358       17.054      570.258      337.000      290.843        0.228        0.060       56.975       12.605        0.049      339.376       12.668      863.140
04/10/2014  01:42:00       71.159       44.524        2.490       20.878       26.965       22.275      435.880      727.087      496.160        0.436        0.083       83.940       16.246        0.037      339.290       12.522      863.151
04/10/2014  01:43:00      108.121       56.513        4.763       37.363       29.056       26.486     1396.001      844.277      701.496        0.892        0.147      121.999       18.743        0.024      339.291       12.524      863.126
04/10/2014  01:44:00      172.537       92.435       15.188       42.703       41.402       35.454     1823.566     1714.124     1257.005        2.167        0.240      195.738       24.322        0.015      339.229       12.417      863.103
04/10/2014  01:45:00      147.940      132.083       89.199       86.914       80.025       74.605     7554.078     6404.040     5565.873        3.340        0.976      198.323       67.560        0.116      339.245       12.443      863.070
04/10/2014  01:46:00      173.939      100.216       53.699       99.740       62.778       61.139     9948.166     3941.048     3737.981        3.040        0.881      200.743       38.738        0.037      339.533       12.930      863.086
04/10/2014  01:47:00      131.649       83.464       14.577       92.408       64.219       43.403     8539.242     4124.025     1883.846        1.953        0.727      155.878       38.059        0.060      339.535       12.933      863.123
04/10/2014  01:48:00       39.101      110.442       80.191       61.965       63.254       61.628     3839.674     4001.083     3797.968        1.590        0.582      117.160       51.795        0.195      339.397       12.704      863.082
04/10/2014  01:49:00        7.963      119.238      148.837       48.841       61.184       41.810     2385.427     3743.505     1748.085        2.215        0.394      119.504       32.976        0.076      339.356       12.631      863.033
04/10/2014  01:50:00       27.771       98.669      113.469       73.232       71.317       58.672     5362.938     5086.150     3442.444        1.863        0.695      102.503       55.455        0.293      339.385       12.680      863.028
04/10/2014  01:51:00      -41.958        2.032        4.102       76.804       60.171       36.933     5898.863     3620.525     1364.021        0.633        0.544       42.007       33.623        0.641      339.455       12.800      863.052
04/10/2014  01:52:00      -22.329      -16.429       12.418       41.230       33.116       22.856     1699.904     1096.675      522.408        0.212        0.166       27.722       14.382        0.269      339.414       12.731      863.080
04/10/2014  01:53:00      -20.430      -95.743        4.579       40.106       43.361       24.260     1608.485     1880.210      588.568        0.684        0.204       97.898       24.852        0.064      339.546       12.952      863.087
04/10/2014  01:54:00       -0.573      -72.178       12.094       43.964       33.924       30.692     1932.791     1150.845      942.005        0.469        0.201       72.180       20.235        0.079      339.589       13.025      863.088
04/10/2014  01:55:00       16.275      -10.396       14.518       45.879       48.593       36.467     2104.866     2361.233     1329.817        0.319        0.290       19.312       35.265        3.335      339.488       12.856      863.069
04/10/2014  01:56:00       11.688       19.641       55.258       27.112       33.765       21.620      735.077     1140.045      467.441        0.296        0.117       22.856       10.372        0.206      339.351       12.625      863.057
04/10/2014  01:57:00       12.438       88.191       99.241       38.615       54.872       31.611     1491.146     3010.908      999.270        1.164        0.275       89.064       36.844        0.171      339.292       12.525      863.024
04/10/2014  01:58:00       82.574       82.626       90.282       93.141       65.348       47.007     8675.325     4270.339     2209.654        1.847        0.758      116.814       40.852        0.122      339.483       12.847      862.957
04/10/2014  01:59:00      109.620       46.616       47.989       91.482       78.510       62.696     8369.020     6163.822     3930.812        1.747        0.923      119.120       45.670        0.147      339.595       13.036      862.949
04/10/2014  02:00:00       95.524       28.582       21.342       45.364       50.290       39.918     2057.892     2529.076     1593.486        0.829        0.309       99.708       20.479        0.042      339.596       13.038      862.960
04/10/2014  02:01:00       34.018       27.580       -3.747       47.896       60.770       30.100     2294.042     3692.974      906.002        0.441        0.345       43.794       15.128        0.119      339.594       13.035      862.961
04/10/2014  02:02:00      -26.371       -0.736        2.617       35.453       39.429       21.716     1256.894     1554.658      471.600        0.199        0.164       26.381       19.846        0.566      339.465       12.818      862.973
04/10/2014  02:03:00      -76.115      -55.434        9.845       61.086       36.283       28.705     3731.462     1316.430      823.954        0.742        0.294       94.161       32.627        0.120      339.302       12.542      862.997
04/10/2014  02:04:00     -144.865      -69.679      -10.858       26.512       46.640       19.413      702.912     2175.261      376.850        1.461        0.163      160.751       12.379        0.006      339.469       12.823      863.003
04/10/2014  02:05:00      -10.314       89.474        3.583       68.585       44.505       19.374     4703.835     1980.711      375.369        0.759        0.353       90.066       17.354        0.037      339.708       13.227      862.969
04/10/2014  02:06:00      158.861      119.877       40.602       38.411       35.460       32.868     1475.408     1257.428     1080.295        2.253        0.191      199.017       25.179        0.016      339.765       13.321      862.906
04/10/2014  02:07:00      102.456       77.865       51.396       68.147       39.161       41.836     4644.007     1533.580     1750.239        1.356        0.396      128.687       37.476        0.085      339.653       13.133      862.861
04/10/2014  02:08:00       23.111       26.019       44.100       27.536       48.678       29.474      758.254     2369.527      868.693        0.358        0.200       34.801       28.961        0.693      339.537       12.938      862.869
04/10/2014  02:09:00       13.450      -30.378       18.295       18.541       25.132       21.701      343.751      631.633      470.951        0.144        0.072       33.222        9.857        0.088      339.571       12.996      862.864
04/10/2014  02:10:00       10.486      -42.199       -5.251       16.190       28.312       20.434      262.100      801.586      417.558        0.170        0.074       43.482       20.000        0.212      339.706       13.224      862.860
04/10/2014  02:11:00       -3.534      -33.971       -4.422       30.311       19.405       16.177      918.765      376.557      261.689        0.137        0.078       34.154       16.099        0.222      339.615       13.069      862.859
04/10/2014  02:12:00       -8.432      -21.086       15.917       23.216       15.549       16.397      538.987      241.762      268.866        0.091        0.052       22.710       10.672        0.221      339.521       12.910      862.857
04/10/2014  02:13:00       -6.394       -7.448       12.446       11.113       30.053       12.331      123.491      903.172      152.046        0.071        0.059        9.817       12.242        1.555      339.458       12.806      862.831
04/10/2014  02:14:00       -1.646       17.568       41.836       15.143       27.538       21.950      229.309      758.355      481.787        0.177        0.073       17.645       18.509        1.100      339.364       12.645      862.800
04/10/2014  02:15:00       13.916       69.996       92.555       29.591       64.612       44.478      875.598     4174.671     1978.326        1.034        0.351       71.366       47.269        0.439      339.532       12.930      862.783
04/10/2014  02:16:00       13.442        5.827       57.062       36.389      119.598       69.400     1324.137    14303.778     4816.337        1.195        1.022       14.650       85.735       34.247      339.601       13.046      862.758
04/10/2014  02:17:00      -74.769      -33.691        6.227       73.915       43.863       34.341     5463.497     1923.951     1179.317        0.766        0.428       82.009       32.539        0.157      339.471       12.827      862.780
04/10/2014  02:18:00       -8.675      -50.569        5.241       37.597       23.618       23.829     1413.558      557.804      567.842        0.260        0.127       51.308       19.376        0.143      339.517       12.905      862.768
04/10/2014  02:19:00        2.153       27.161       43.712       20.648       36.527       33.126      426.321     1334.190     1097.348        0.275        0.143       27.246       26.449        0.942      339.408       12.720      862.724
04/10/2014  02:20:00       -7.254       67.143      105.732       27.684       45.151       28.628      766.401     2038.596      819.536        0.968        0.181       67.534       26.326        0.152      339.454       12.798      862.695
04/10/2014  02:21:00       40.973      -48.914       37.887       44.419       62.034       42.306     1973.014     3848.232     1789.817        0.656        0.381       63.808       38.885        0.371      339.676       13.173      862.703
04/10/2014  02:22:00       31.028      -56.913        4.515       51.070       57.907       30.422     2608.097     3353.199      925.474        0.555        0.344       64.821       32.349        0.249      339.761       13.317      862.721
04/10/2014  02:23:00      -15.216      -34.051        5.244       40.245       52.504       25.591     1619.678     2756.656      654.885        0.322        0.252       37.296       18.650        0.250      339.611       13.062      862.723
04/10/2014  02:24:00        0.375       -0.389       26.064       24.195       40.529       22.952      585.411     1642.631      526.802        0.172        0.138        0.540       21.893     1641.462      339.348       12.620      862.721
04/10/2014  02:25:00        4.082       60.258       82.386       34.936       34.294       23.927     1220.516     1176.046      572.481        0.670        0.148       60.396       22.667        0.141      339.320       12.572      862.704
04/10/2014  02:26:00       47.681       68.814       49.854       42.862       38.841       39.939     1837.180     1508.586     1595.150        0.722        0.247       83.719       30.921        0.136      339.305       12.548      862.692
04/10/2014  02:27:00      113.927       40.983        7.231       42.752       42.331       29.311     1827.730     1791.938      859.146        0.959        0.224      121.074       14.347        0.014      339.090       12.184      862.708
04/10/2014  02:28:00       96.899       76.854       18.115       40.133       31.658       24.417     1610.669     1002.211      596.201        0.942        0.160      123.677       15.035        0.015      338.795       11.689      862.733
04/10/2014  02:29:00       55.780       17.916       13.781       27.153       31.058       21.848      737.312      964.614      477.329        0.290        0.109       58.586       13.907        0.056      338.751       11.616      862.768
04/10/2014  02:30:00      121.615       82.789       36.014       47.456       27.793       26.316     2252.071      772.438      692.528        1.333        0.186      147.120       11.563        0.006      338.872       11.819      862.753
04/10/2014  02:31:00      125.232       81.968       41.330       43.848       29.543       44.166     1922.682      872.803     1950.649        1.443        0.237      149.672       29.007        0.038      338.880       11.833      862.713
04/10/2014  02:32:00        5.311       -0.290       33.340       30.329       44.683       20.901      919.842     1996.544      436.832        0.225        0.168        5.319       18.234       11.754      338.725       11.570      862.737
04/10/2014  02:33:00       12.543       44.489        5.259       24.457       28.666       21.975      598.138      821.740      482.882        0.203        0.095       46.223       22.000        0.227      338.607       11.374      862.772
04/10/2014  02:34:00       10.734      115.937      -16.950       41.737       48.434       23.945     1741.994     2345.857      573.372        0.925        0.233      116.433       23.705        0.041      338.657       11.459      862.789
04/10/2014  02:35:00       13.470      134.904      -30.120       39.742       37.684       19.420     1579.423     1420.102      377.120        1.133        0.169      135.574       19.420        0.021      338.779       11.662      862.818
04/10/2014  02:36:00      -65.944       87.822       -8.639       48.239       58.806       34.855     2326.983     3458.120     1214.898        0.957        0.350      109.824       34.640        0.099      338.925       11.907      862.843
04/10/2014  02:37:00       45.012      157.815      -29.806       48.400       54.836       26.168     2342.550     3007.028      684.743        1.693        0.302      164.109       28.516        0.030      338.916       11.893      862.857
04/10/2014  02:38:00      164.266      122.592       15.285       87.255       54.676       46.215     7613.507     2989.512     2135.866        2.749        0.637      204.969       31.991        0.024      338.880       11.830      862.833
04/10/2014  02:39:00      164.574       63.843       42.500       84.018       61.097       61.663     7058.945     3732.830     3802.275        2.378        0.730      176.524       42.639        0.058      338.882       11.834      862.804
04/10/2014  02:40:00      111.802       59.764       59.487       69.767       59.490       47.884     4867.426     3539.072     2292.860        1.515        0.535      126.773       38.910        0.094      338.861       11.801      862.830
04/10/2014  02:41:00       62.347       57.497        7.750       43.062       40.254       37.262     1854.364     1620.396     1388.466        0.606        0.243       84.812       13.745        0.026      338.707       11.541      862.864
04/10/2014  02:42:00       19.923      108.414      -12.153       45.716       48.055       27.682     2089.934     2309.304      766.301        0.873        0.258      110.230       23.978        0.047      338.751       11.614      862.868
04/10/2014  02:43:00       19.513      132.237      -18.147       26.233       23.566       15.240      688.175      555.346      232.247        0.984        0.074      133.669       10.657        0.006      338.746       11.606      862.852
04/10/2014  02:44:00       47.831      107.828       -8.829       30.516       49.067       28.345      931.245     2407.588      803.460        0.907        0.207      117.960       24.906        0.045      338.766       11.640      862.842
04/10/2014  02:45:00       22.326       42.183       -8.847       43.727       38.575       20.676     1912.042     1488.052      427.481        0.309        0.191       47.727        8.964        0.035      338.744       11.604      862.834
04/10/2014  02:46:00       38.404       13.672        5.155       32.068       24.342       21.977     1028.336      592.550      483.007        0.190        0.105       40.765       13.177        0.104      338.660       11.463      862.858
04/10/2014  02:47:00      132.234       93.351       17.480       43.305       33.744       26.603     1875.319     1138.640      707.708        1.511        0.186      161.865       13.924        0.007      338.863       11.803      862.865
04/10/2014  02:48:00      116.500       78.133       10.064       45.254       40.537       27.786     2047.938     1643.248      772.049        1.212        0.223      140.274       19.647        0.020      338.909       11.880      862.872
04/10/2014  02:49:00      126.390       79.913       19.849       49.405       44.051       33.299     2440.844     1940.449     1108.829        1.412        0.275      149.535       19.360        0.017      338.856       11.792      862.878
04/10/2014  02:50:00        8.544       16.924       -6.380       52.932       18.808       22.233     2801.759      353.729      494.308        0.202        0.182       18.958       14.140        0.556      338.847       11.776      862.897
04/10/2014  02:51:00       13.098        2.385       -3.100       17.337       13.781        6.857      300.560      189.916       47.020        0.036        0.027       13.313        5.822        0.191      338.872       11.817      862.903
04/10/2014  02:52:00       86.146       46.486       14.247       36.476       16.436       20.910     1330.469      270.158      437.228        0.591        0.102       97.888       16.733        0.029      338.908       11.879      862.876
04/10/2014  02:53:00       91.069       55.573       18.715       53.629       26.090       36.301     2876.022      680.701     1317.751        0.830        0.244      106.686       33.934        0.101      338.871       11.816      862.838
04/10/2014  02:54:00       70.084       28.196       29.412       42.357       22.171       27.469     1794.108      491.552      754.543        0.481        0.152       75.543       22.028        0.085      338.743       11.602      862.827
04/10/2014  02:55:00       74.198       58.524        8.266       28.344       30.452       22.835      803.374      927.296      521.416        0.562        0.113       94.501       17.435        0.034      338.871       11.817      862.838
04/10/2014  02:56:00       11.540       20.081      -10.095       29.491       30.627       16.081      869.749      938.017      258.595        0.135        0.103       23.161        7.587        0.107      338.877       11.826      862.847
04/10/2014  02:57:00      -18.270       -7.903       -6.904       14.141       21.994       10.252      199.961      483.740      105.112        0.062        0.039       19.906        6.611        0.110      339.038       12.098      862.855
04/10/2014  02:58:00      -53.935      -18.763       -7.931       13.070        9.829        7.131      170.836       96.601       50.851        0.182        0.016       57.105        4.991        0.008      338.765       11.639      862.848
04/10/2014  02:59:00      -15.866       -2.882       -3.875       17.522       12.382        6.902      307.004      153.303       47.632        0.039        0.025       16.126        2.745        0.029      338.830       11.748      862.823
04/10/2014  03:00:00       50.799       75.415       47.460       41.991       45.077       50.148     1763.273     2031.952     2514.775        0.841        0.315       90.928       46.874        0.266      338.874       11.822      862.770
04/10/2014  03:01:00       63.724       88.311       82.213       41.106       42.884       25.611     1689.725     1838.999      655.905        1.140        0.209      108.901       26.959        0.061      338.864       11.804      862.721
04/10/2014  03:02:00       59.584       68.061       59.821       57.351       40.843       40.071     3289.113     1668.131     1605.707        0.916        0.328       90.458       42.300        0.219      338.952       11.954      862.702
04/10/2014  03:03:00        1.670        4.618       42.027       16.950       37.362       37.755      287.311     1395.947     1425.459        0.245        0.155        4.910       31.622       41.472      338.893       11.853      862.708
04/10/2014  03:04:00      -81.019      -22.609       -3.993       47.447       29.385       17.531     2251.254      863.472      307.332        0.526        0.171       84.114       18.302        0.047      338.851       11.782      862.735
04/10/2014  03:05:00     -135.875       -6.705      -10.353       49.248       26.634       22.883     2425.369      709.391      523.624        1.114        0.183      136.040       27.017        0.039      338.808       11.712      862.748
04/10/2014  03:06:00     -111.062      -51.116       -2.704       55.482       36.418       24.071     3078.255     1326.237      579.437        0.997        0.249      122.260       22.443        0.034      338.700       11.529      862.743
04/10/2014  03:07:00     -112.720      -65.633        1.030       44.902       34.420       26.896     2016.181     1184.736      723.386        1.047        0.196      130.436       24.976        0.037      338.741       11.598      862.723
04/10/2014  03:08:00      -64.661      -41.999        4.221       39.275       22.134       18.002     1542.559      489.935      324.070        0.416        0.118       77.103       17.820        0.053      338.837       11.760      862.684
04/10/2014  03:09:00      -39.149      -13.100        1.065       31.818       11.909       13.679     1012.355      141.818      187.106        0.152        0.067       41.282       17.481        0.179      338.798       11.695      862.649
04/10/2014  03:10:00      -47.482       52.152       -8.311       14.840       24.282       16.162      220.231      589.603      261.223        0.306        0.054       70.529       14.721        0.044      338.863       11.804      862.627
04/10/2014  03:11:00      -41.373       57.820      -14.197       19.684       19.427       11.476      387.468      377.401      131.707        0.308        0.045       71.097       11.556        0.026      338.928       11.913      862.620
04/10/2014  03:12:00      -25.399       -5.736       -0.863       14.209       28.632       13.158      201.907      819.780      173.135        0.094        0.060       26.038        9.322        0.128      339.136       12.262      862.615
04/10/2014  03:13:00      -51.128      -38.259       -2.635       43.573       39.170       25.353     1898.615     1534.308      642.780        0.408        0.204       63.858       20.492        0.103      338.787       11.678      862.622
04/10/2014  03:14:00     -102.587      -81.962       -1.964       47.025       33.072       25.567     2211.307     1093.759      653.696        1.060        0.198      131.308       17.139        0.017      338.788       11.678      862.627
04/10/2014  03:15:00     -193.899      -80.385       -6.675       43.448       36.465       26.857     1887.731     1329.680      721.297        2.402        0.197      209.902       25.731        0.015      338.641       11.428      862.638
04/10/2014  03:16:00     -102.767       -2.249       -0.715       42.061       33.958       25.190     1769.122     1153.158      634.531        0.706        0.178      102.791        8.094        0.006      338.459       11.125      862.644
04/10/2014  03:17:00      -56.970       50.420      -12.734       31.887       34.788       15.521     1016.792     1210.216      240.896        0.421        0.123       76.078       13.252        0.030      338.590       11.345      862.643
04/10/2014  03:18:00      -45.820       29.377      -11.166       24.730       36.286       15.922      611.565     1316.665      253.516        0.263        0.109       54.429       18.326        0.113      338.757       11.624      862.647
04/10/2014  03:19:00       -3.051      -37.265       11.949       14.363       14.433       16.019      206.292      208.320      256.618        0.111        0.034       37.390       10.854        0.084      338.787       11.677      862.661
04/10/2014  03:20:00      -12.831      -27.531       -6.085       17.172       14.677       10.915      294.880      215.421      119.145        0.079        0.031       30.374        7.555        0.062      338.760       11.630      862.669
04/10/2014  03:21:00      -43.422      -28.375       -6.836       10.747       11.905        9.325      115.497      141.732       86.954        0.154        0.017       51.871        4.951        0.009      338.760       11.630      862.690
04/10/2014  03:22:00      -33.810      -19.521       -3.645       21.658       18.307       15.047      469.088      335.152      226.405        0.128        0.052       39.041        9.312        0.057      338.580       11.329      862.705
04/10/2014  03:23:00       29.676       25.440        0.948       16.579       10.610        8.415      274.876      112.567       70.806        0.099        0.023       39.088        7.566        0.037      338.645       11.435      862.696
04/10/2014  03:24:00       18.728       10.701       -6.558        6.017        8.839        3.886       36.202       78.132       15.101        0.032        0.006       21.570        2.498        0.013      338.695       11.520      862.700
04/10/2014  03:25:00       -2.268       22.115       -1.748        6.438       21.441       12.895       41.445      459.700      166.282        0.058        0.033       22.231       12.927        0.338      338.481       11.163      862.712
04/10/2014  03:26:00       -1.768       23.256       -4.948        8.173        7.943        4.388       66.805       63.092       19.253        0.036        0.007       23.323        4.835        0.043      338.546       11.270      862.732
04/10/2014  03:27:00       34.084       20.486        4.951        8.865        7.873        9.796       78.592       61.983       95.955        0.092        0.012       39.767        4.091        0.011      338.528       11.239      862.719
04/10/2014  03:28:00       27.306       16.225        3.535       13.867       12.793        6.333      192.291      163.662       40.104        0.071        0.020       31.763        6.796        0.046      338.472       11.147      862.699
04/10/2014  03:29:00      -29.709      -11.581       -3.825       19.357       10.008        5.648      374.711      100.170       31.904        0.077        0.025       31.887        6.577        0.043      338.436       11.087      862.697
04/10/2014  03:30:00      -43.756       -5.354       -6.256       10.757       14.028        7.122      115.709      196.775       50.722        0.117        0.018       44.082        5.976        0.018      338.565       11.302      862.688
04/10/2014  03:31:00      -10.400       14.126       -5.198       18.980       14.432       14.028      360.250      208.282      196.784        0.055        0.038       17.541        7.787        0.197      338.877       11.826      862.675
04/10/2014  03:32:00      -22.594        8.207        0.756       29.625       23.052        9.985      877.616      531.382       99.698        0.104        0.075       24.038        7.009        0.085      338.966       11.977      862.671
04/10/2014  03:33:00      -48.795      -24.795      -12.089       14.728        6.952        6.315      216.920       48.337       39.880        0.172        0.015       54.733        5.963        0.012      338.523       11.233      862.672
04/10/2014  03:34:00      -20.921      -24.417       -2.105       16.067       11.461       13.296      258.132      131.351      176.795        0.080        0.028       32.154        8.456        0.069      338.403       11.030      862.669
04/10/2014  03:35:00      -48.432      -24.078       -8.270        7.183        5.846        4.993       51.593       34.178       24.929        0.155        0.006       54.087        2.461        0.002      338.694       11.519      862.666
04/10/2014  03:36:00      -45.643      -27.945      -11.308       10.269        6.890        5.408      105.462       47.476       29.249        0.159        0.009       53.518        3.577        0.004      338.955       11.958      862.672
04/10/2014  03:37:00      -33.095      -18.302       -3.968       11.271        6.825        4.486      127.035       46.575       20.124        0.082        0.010       37.818        3.935        0.011      338.880       11.833      862.684
04/10/2014  03:38:00      -24.318      -15.877        8.250       13.394        7.822       11.477      179.410       61.184      131.732        0.064        0.019       29.042       11.713        0.163      338.608       11.374      862.684
04/10/2014  03:39:00        6.911        3.441        5.520        9.798       13.709        9.295       96.001      187.949       86.402        0.023        0.019        7.720        7.799        1.021      338.518       11.223      862.698
04/10/2014  03:40:00       51.822       31.795        8.076       19.961       16.444       25.223      398.448      270.403      636.181        0.253        0.065       60.798       15.585        0.066      338.386       11.003      862.716
04/10/2014  03:41:00       41.446       22.705       -4.199       31.360       30.855       27.153      983.444      952.039      737.304        0.246        0.134       47.258       25.335        0.287      337.932       10.240      862.742
04/10/2014  03:42:00       32.847       34.869        3.153       31.799       29.280       23.190     1011.197      857.329      537.797        0.236        0.120       47.904       18.192        0.144      337.941       10.256      862.751
04/10/2014  03:43:00       52.887       45.082        6.457       34.675       24.937       23.580     1202.326      621.862      555.994        0.363        0.119       69.494       22.774        0.107      338.025       10.396      862.755
04/10/2014  03:44:00       47.678       43.803       -0.890       25.016       25.666       20.853      625.789      658.739      434.868        0.296        0.086       64.744       16.295        0.063      338.224       10.730      862.758
04/10/2014  03:45:00       43.416       47.573        1.214       26.453       26.491       20.920      699.747      701.774      437.640        0.299        0.092       64.406       18.841        0.086      338.385       11.001      862.750
04/10/2014  03:46:00       32.533       47.823       -4.097       21.816       42.154       23.079      475.954     1776.976      532.627        0.307        0.139       57.840       22.465        0.151      338.305       10.866      862.734
04/10/2014  03:47:00       25.677       83.010      -12.080       16.961       36.979       14.076      287.661     1367.459      198.121        0.477        0.093       86.891       17.396        0.040      338.399       11.025      862.722
04/10/2014  03:48:00       18.335       83.279      -13.990       16.807       30.017       12.142      282.478      901.025      147.439        0.440        0.067       85.274       16.212        0.036      338.485       11.168      862.705
04/10/2014  03:49:00        6.500       90.656      -15.579       22.248       17.797       10.550      494.970      316.718      111.313        0.471        0.046       90.889        9.221        0.010      338.526       11.237      862.688
04/10/2014  03:50:00      -31.808       26.178       -1.419       23.059       46.238       17.716      531.720     2137.954      313.863        0.234        0.149       41.196       12.344        0.090      338.157       10.617      862.677
04/10/2014  03:51:00      -82.696      -22.740      -13.491       34.324       18.572       13.493     1178.106      344.924      182.065        0.462        0.085       85.765       12.943        0.023      337.503        9.521      862.676
04/10/2014  03:52:00     -116.622      -73.702      -22.431       20.659       23.890       16.982      426.775      570.751      288.390        1.041        0.064      137.959        8.675        0.004      337.484        9.489      862.680
04/10/2014  03:53:00     -104.185      -73.025      -17.136       35.633       20.560       17.372     1269.724      422.708      301.785        0.924        0.100      127.229       11.986        0.009      337.463        9.455      862.683
04/10/2014  03:54:00      -68.654      -31.042        4.917       30.957       27.982       18.821      958.362      782.984      354.248        0.390        0.105       75.345       18.608        0.061      337.519        9.546      862.688
04/10/2014  03:55:00      -47.699      -36.106        1.522       27.159       15.928       13.390      737.585      253.707      179.296        0.238        0.059       59.824       14.202        0.056      337.608        9.696      862.683
04/10/2014  03:56:00      -48.665      -18.898       -6.258       24.638       19.475       11.163      607.019      379.278      124.614        0.194        0.056       52.205       11.563        0.049      337.674        9.809      862.689
04/10/2014  03:57:00      -69.860       -7.142       -7.209       10.346        7.573        6.525      107.048       57.347       42.573        0.260        0.010       70.224        4.767        0.005      337.702        9.854      862.701
04/10/2014  03:58:00      -51.236      -12.046       -7.728       11.981       15.170        8.412      143.553      230.129       70.769        0.164        0.022       52.633        5.599        0.011      337.876       10.145      862.716
04/10/2014  03:59:00       -9.029      -10.053        0.437       16.316       11.925       12.840      266.211      142.208      164.855        0.038        0.029       13.513       12.620        0.872      337.849       10.101      862.723
04/10/2014  04:00:00       -5.112      -17.885       19.292       14.769       29.734       15.562      218.129      884.111      242.169        0.103        0.067       18.601       13.293        0.511      337.869       10.135      862.743
04/10/2014  04:01:00       -6.084       22.863       35.651       10.174       14.116        9.609      103.517      199.259       92.338        0.111        0.020       23.659        7.071        0.089      337.748        9.931      862.757
04/10/2014  04:02:00       28.477       23.027       11.196       24.548       13.115       16.713      602.602      172.012      279.334        0.126        0.053       36.622       17.383        0.225      338.001       10.356      862.759
04/10/2014  04:03:00       11.931        4.302        5.804       21.030       11.491        9.694      442.270      132.037       93.964        0.043        0.033       12.683        9.982        0.619      338.037       10.416      862.763
04/10/2014  04:04:00      -29.249       -4.024        5.954       13.944        9.076        6.704      194.445       82.366       44.942        0.061        0.016       29.525        4.972        0.028      337.840       10.087      862.769
04/10/2014  04:05:00      -27.727      -16.294       -6.206        8.504        9.740        7.692       72.317       94.860       59.170        0.065        0.011       32.161        4.361        0.018      337.617        9.712      862.768
04/10/2014  04:06:00      -43.871      -28.152       -8.559        9.727        9.769        5.985       94.617       95.434       35.823        0.151        0.011       52.127        4.421        0.007      337.536        9.575      862.761
04/10/2014  04:07:00      -37.615      -21.708       -6.111       19.697       13.378       10.077      387.970      178.983      101.538        0.130        0.033       43.429        8.889        0.042      337.356        9.274      862.757
04/10/2014  04:08:00      -65.368      -15.710       -8.270        8.789        9.407        7.636       77.246       88.497       58.305        0.241        0.011       67.230        3.835        0.003      337.458        9.445      862.761
04/10/2014  04:09:00      -58.560      -16.708       -6.919       15.826       12.509        9.372      250.472      156.475       87.831        0.213        0.025       60.897        7.816        0.016      337.463        9.453      862.756
04/10/2014  04:10:00      -35.865       -3.568       -8.910       10.250        6.665        6.522      105.058       44.426       42.536        0.079        0.010       36.042        5.555        0.024      337.499        9.514      862.753
04/10/2014  04:11:00      -12.514       -1.460        5.196       19.903        6.766        7.955      396.145       45.779       63.285        0.035        0.025       12.599        7.554        0.360      337.487        9.494      862.745
04/10/2014  04:12:00        3.237        7.118       14.912        7.280       11.156        9.892       53.004      124.450       97.861        0.028        0.014        7.819        7.017        0.805      337.427        9.392      862.743
04/10/2014  04:13:00        6.938       19.517       29.122       16.279       13.593        7.274      265.010      184.761       52.911        0.089        0.025       20.713        4.538        0.048      337.729        9.900      862.736
04/10/2014  04:14:00       42.705       10.020        8.513       25.628       14.401       13.307      656.792      207.379      177.083        0.152        0.052       43.865       12.450        0.081      337.890       10.171      862.717
04/10/2014  04:15:00       23.587       19.921       12.920       15.643       10.992        8.612      244.715      120.815       74.165        0.078        0.022       30.874        5.412        0.031      337.861       10.121      862.690
04/10/2014  04:16:00      -27.562        2.716       -2.242       24.660       13.065        6.669      608.121      170.686       44.477        0.080        0.041       27.696       11.093        0.160      337.788       10.002      862.681
04/10/2014  04:17:00      -97.211        2.090      -10.256       21.420       21.144       10.389      458.835      447.075      107.941        0.529        0.051       97.234        7.298        0.006      337.011        8.697      862.671
04/10/2014  04:18:00     -112.617        5.042      -18.227       30.971       25.250       15.577      959.197      637.563      242.649        0.744        0.092      112.730        9.021        0.006      336.969        8.629      862.668
04/10/2014  04:19:00      -82.033       -9.048       -9.401       20.360       22.093       16.096      414.528      488.119      259.076        0.403        0.058       82.530       11.074        0.018      336.886        8.487      862.658
04/10/2014  04:20:00      -80.689      -16.801       -8.730       25.396       24.288       13.258      644.945      589.929      175.782        0.414        0.071       82.420       10.849        0.017      336.898        8.508      862.646
04/10/2014  04:21:00      -95.657      -13.767      -10.406       34.161       24.922       19.702     1166.969      621.109      388.150        0.581        0.109       96.643       19.376        0.040      336.831        8.397      862.640
04/10/2014  04:22:00      -58.066       -6.607       -1.098       33.287       25.150       19.509     1108.048      632.538      380.597        0.277        0.106       58.441       17.185        0.086      336.962        8.615      862.638
04/10/2014  04:23:00      -33.223       -5.393       -7.645       29.745       24.167       14.364      884.782      584.052      206.321        0.143        0.084       33.658       12.104        0.129      337.028        8.725      862.626
04/10/2014  04:24:00      -66.218       -4.840       -9.379       26.244       23.411       14.193      688.766      548.085      201.455        0.297        0.072       66.395       11.222        0.029      337.073        8.800      862.631
04/10/2014  04:25:00     -120.999       24.590      -14.945       59.655       34.706       24.862     3558.739     1204.508      618.120        1.042        0.269      123.473       16.794        0.019      337.210        9.031      862.637
04/10/2014  04:26:00     -138.961       20.985      -13.301       42.160       32.124       19.812     1777.452     1031.940      392.497        1.156        0.160      140.537       17.253        0.015      337.139        8.911      862.642
04/10/2014  04:27:00     -113.262        2.737       -3.766       52.682       37.877       29.623     2775.437     1434.660      877.515        0.897        0.254      113.295       28.071        0.061      337.037        8.739      862.643
04/10/2014  04:28:00     -139.508        4.571       -5.492       45.173       33.617       25.882     2040.599     1130.074      669.860        1.168        0.192      139.583       22.032        0.025      336.998        8.675      862.638
04/10/2014  04:29:00     -131.083        6.903      -10.148       53.802       45.424       31.398     2894.692     2063.324      985.849        1.164        0.297      131.264       28.314        0.047      336.926        8.554      862.645
04/10/2014  04:30:00     -169.064       19.823      -12.443       43.192       46.991       28.046     1865.558     2208.140      786.602        1.699        0.243      170.222       13.795        0.007      336.999        8.676      862.629
04/10/2014  04:31:00      -93.857      -40.179       -6.401       45.503       54.337       22.786     2070.547     2952.518      519.200        0.800        0.277      102.095       21.741        0.045      337.019        8.710      862.626
04/10/2014  04:32:00     -144.783      -39.780      -19.151       30.849       36.992       23.189      951.670     1368.382      537.744        1.288        0.143      150.149       16.835        0.013      337.028        8.725      862.619
04/10/2014  04:33:00      -65.056      -42.672        5.236       33.280       39.764       26.149     1107.558     1581.154      683.760        0.473        0.169       77.802       14.397        0.034      336.990        8.662      862.618
04/10/2014  04:34:00      -72.973      -23.975       -3.646       35.245       41.594       18.602     1242.201     1730.077      346.044        0.462        0.166       76.811       15.206        0.039      336.926        8.554      862.622
04/10/2014  04:35:00     -116.544      -12.778       -4.708       40.105       28.802       21.177     1608.423      829.575      448.485        0.833        0.144      117.243       19.182        0.027      336.997        8.673      862.625
04/10/2014  04:36:00      -61.228      -31.134        8.760       44.578       39.114       21.019     1987.233     1529.928      441.789        0.438        0.198       68.689       15.003        0.048      336.926        8.554      862.626
04/10/2014  04:37:00      -85.569      -27.864       -7.689       46.857       36.205       23.335     2195.599     1310.776      544.518        0.610        0.203       89.991       20.973        0.054      337.009        8.693      862.632
04/10/2014  04:38:00      -65.672       15.384       -9.868       48.195       27.368       24.895     2322.727      748.983      619.757        0.417        0.185       67.450       19.167        0.081      336.909        8.525      862.640
04/10/2014  04:39:00     -118.752       16.258       -9.916       47.749       36.505       26.199     2279.921     1332.634      686.399        0.938        0.215      119.860       18.570        0.024      336.940        8.579      862.633
04/10/2014  04:40:00      -91.958       13.654       -4.617       47.844       23.545       23.205     2289.095      554.351      538.490        0.602        0.169       92.966       17.435        0.035      336.919        8.543      862.632
04/10/2014  04:41:00      -38.359       13.490       -8.290       29.764       28.164       14.247      885.923      793.225      202.967        0.180        0.094       40.661       13.854        0.116      336.943        8.583      862.627
04/10/2014  04:42:00      -59.591       28.126       -6.215       21.082       30.332       16.730      444.446      920.028      279.882        0.301        0.082       65.895       10.074        0.023      337.042        8.748      862.635
04/10/2014  04:43:00      -62.115       11.665       -5.021       28.730       31.621       24.687      825.425      999.874      609.441        0.323        0.122       63.201       14.442        0.052      337.125        8.889      862.638
04/10/2014  04:44:00      -61.344       18.835       -6.813       28.021       17.633       15.672      785.193      310.911      245.626        0.275        0.067       64.170       14.218        0.049      337.174        8.972      862.655
04/10/2014  04:45:00      -18.995      -23.309        0.158       21.991       18.371       19.064      483.599      337.502      363.420        0.104        0.059       30.069       10.277        0.117      337.050        8.760      862.665
04/10/2014  04:46:00      -30.194      -10.605       -2.329       28.770       14.778       20.387      827.733      218.377      415.647        0.125        0.073       32.002       19.796        0.383      337.209        9.029      862.686
04/10/2014  04:47:00      -42.507      -16.837      -10.581       31.038       17.399       14.846      963.355      302.712      220.392        0.184        0.074       45.720       17.686        0.150      336.870        8.462      862.707
04/10/2014  04:48:00      -71.018      -28.294      -19.636       22.466       16.741       13.633      504.739      280.258      185.864        0.360        0.049       76.447        9.926        0.017      336.747        8.257      862.731
04/10/2014  04:49:00      -80.470      -15.490      -17.260       20.972       19.025       11.124      439.844      361.934      123.733        0.397        0.046       81.947        7.384        0.008      336.696        8.171      862.731
04/10/2014  04:50:00      -70.290      -14.036       -9.816       16.148       22.894       13.138      260.755      524.136      172.594        0.310        0.048       71.678        6.454        0.008      336.708        8.192      862.742
04/10/2014  04:51:00      -95.185      -15.363      -15.419       18.704       15.390       14.948      349.821      236.841      223.428        0.517        0.041       96.417        9.884        0.011      336.641        8.080      862.740
04/10/2014  04:52:00     -103.292      -23.171      -15.391       17.056       15.982       10.807      290.920      255.432      116.795        0.605        0.033      105.859        7.105        0.005      336.846        8.421      862.739
04/10/2014  04:53:00      -96.582      -35.466      -18.587       15.622       19.218       12.886      244.055      369.342      166.053        0.586        0.039      102.888        8.344        0.007      336.887        8.490      862.734
04/10/2014  04:54:00      -83.426      -48.711      -19.594       16.019       14.025       11.150      256.606      196.707      124.317        0.515        0.029       96.606        6.353        0.004      336.783        8.318      862.731
04/10/2014  04:55:00     -123.507      -53.024      -14.650       11.145       16.490       10.103      124.218      271.911      102.063        0.939        0.025      134.408        5.448        0.002      336.845        8.420      862.738
04/10/2014  04:56:00     -121.084      -43.623      -16.208       24.460       22.970       19.216      598.303      527.633      369.265        0.916        0.075      128.702       11.370        0.008      336.692        8.166      862.738
04/10/2014  04:57:00      -77.788      -56.516       -0.730       35.583       31.066       19.087     1266.122      965.066      364.312        0.592        0.130       96.151       14.028        0.021      336.685        8.153      862.733
04/10/2014  04:58:00      -73.846      -41.528        3.583       38.932       20.959       19.714     1515.738      439.300      388.635        0.477        0.117       84.722       21.639        0.065      336.654        8.102      862.730
04/10/2014  04:59:00     -136.185      -55.459      -23.327       20.942       19.782       16.305      438.567      391.345      265.850        1.163        0.055      147.045        9.394        0.004      336.705        8.187      862.723
04/10/2014  05:00:00     -112.411      -49.992      -23.583       21.230       21.586       15.544      450.695      465.949      241.628        0.842        0.058      123.026        9.562        0.006      336.692        8.167      862.732
04/10/2014  05:01:00     -105.196      -35.132       -2.025       30.560       20.487       15.890      933.893      419.731      252.501        0.695        0.080      110.907       16.134        0.021      336.601        8.013      862.726
04/10/2014  05:02:00      -73.945      -18.144        1.517       47.824       37.644       25.427     2287.138     1417.083      646.537        0.507        0.218       76.138       23.265        0.093      336.624        8.052      862.716
04/10/2014  05:03:00      -13.085        4.778        6.849       41.847       30.233       21.142     1751.160      914.033      446.969        0.168        0.156       13.930       20.200        2.103      336.710        8.195      862.726
04/10/2014  05:04:00     -115.607       23.961      -15.450       82.308       50.815       31.381     6774.643     2582.184      984.785        1.226        0.517      118.064       26.247        0.049      336.674        8.134      862.729
04/10/2014  05:05:00     -179.354      -23.879      -10.772       81.973       59.894       36.878     6719.634     3587.272     1360.002        2.226        0.583      180.936       32.056        0.031      336.560        7.942      862.747
04/10/2014  05:06:00     -155.487      -82.509      -19.716       51.815       63.873       40.504     2684.755     4079.790     1640.593        1.989        0.420      176.022       29.494        0.028      336.523        7.880      862.766
04/10/2014  05:07:00     -158.097      -48.154       -8.519       64.639       55.357       30.159     4178.171     3064.441      909.579        1.777        0.408      165.267       30.198        0.033      336.452        7.763      862.771
04/10/2014  05:08:00      -87.752       -4.004       -2.717       60.409       43.276       29.070     3649.229     1872.818      845.048        0.704        0.318       87.843       28.694        0.107      336.456        7.770      862.790
04/10/2014  05:09:00     -160.091       24.750      -18.204       57.865       39.703       23.761     3348.385     1576.315      564.592        1.603        0.274      161.993       17.055        0.011      336.572        7.965      862.794
04/10/2014  05:10:00     -193.254       25.213      -22.713       37.175       37.311       24.471     1382.000     1392.094      598.812        2.094        0.169      194.892       16.725        0.007      336.578        7.974      862.805
04/10/2014  05:11:00     -205.963       43.236      -22.376       51.234       43.461       29.237     2624.941     1888.895      854.785        2.508        0.268      210.452       16.051        0.006      336.652        8.096      862.818
04/10/2014  05:12:00     -216.669       37.339      -19.323       62.515       51.311       35.398     3908.113     2632.819     1253.046        2.825        0.390      219.863       30.141        0.019      336.641        8.077      862.811
04/10/2014  05:13:00     -216.854       14.612      -12.252       53.155       56.706       23.488     2825.438     3215.595      551.666        2.699        0.330      217.345       14.825        0.005      336.613        8.031      862.823
04/10/2014  05:14:00     -167.292       39.418      -16.129       47.563       32.643       26.642     2262.240     1065.586      709.776        1.692        0.202      171.874       15.590        0.008      336.511        7.863      862.826
04/10/2014  05:15:00     -148.572        9.631      -17.727       37.714       24.661       21.273     1422.323      608.184      452.541        1.248        0.124      148.884       20.365        0.019      336.541        7.913      862.833
04/10/2014  05:16:00      -88.934      -14.128      -12.559       28.548       23.384       18.726      814.986      546.809      350.676        0.499        0.086       90.049       12.174        0.018      336.687        8.157      862.835
04/10/2014  05:17:00     -126.931      -24.341       -9.616       30.804       22.755       14.992      948.903      517.769      224.762        0.924        0.085      129.244       11.660        0.008      336.566        7.955      862.839
04/10/2014  05:18:00     -127.592      -15.623      -10.773       48.303       36.368       23.858     2333.211     1322.665      569.196        1.043        0.211      128.545       25.221        0.038      336.593        8.001      862.853
04/10/2014  05:19:00     -138.630       -4.063      -14.286       42.984       32.039       28.145     1847.613     1026.473      792.153        1.155        0.183      138.690       21.521        0.024      336.489        7.824      862.854
04/10/2014  05:20:00     -139.874        7.630       -9.291       41.095       37.206       24.388     1688.783     1384.322      594.761        1.169        0.183      140.082       21.062        0.023      336.541        7.913      862.859
04/10/2014  05:21:00      -87.574        6.449       -0.027       42.296       29.313       19.714     1788.947      859.262      388.635        0.537        0.152       87.811       19.000        0.047      336.484        7.818      862.850
04/10/2014  05:22:00      -90.021      -23.664       -4.080       30.605       29.719       15.630      936.689      883.229      244.282        0.537        0.103       93.079       15.131        0.026      336.607        8.025      862.834
04/10/2014  05:23:00     -110.285      -32.995      -13.718       26.388       28.856       16.817      696.331      832.660      282.801        0.763        0.091      115.115        4.338        0.001      336.691        8.163      862.830
04/10/2014  05:24:00     -122.342      -24.743       -5.180       48.492       37.348       24.655     2351.521     1394.875      607.856        0.998        0.218      124.819       26.351        0.045      336.681        8.147      862.822
04/10/2014  05:25:00     -151.075      -25.484      -14.309       43.741       39.683       22.725     1913.260     1574.774      516.433        1.384        0.200      153.209       19.787        0.017      336.627        8.057      862.820
04/10/2014  05:26:00      -96.650      -23.321        7.483       60.361       44.926       29.838     3643.459     2018.316      890.322        0.825        0.328       99.424       29.575        0.088      336.619        8.043      862.811
04/10/2014  05:27:00     -143.646      -21.520       -8.408       45.118       31.103       25.225     2035.678      967.376      636.280        1.240        0.182      145.249       24.306        0.028      336.715        8.204      862.801
04/10/2014  05:28:00     -158.784      -21.546      -11.077       27.276       31.687       20.380      743.986     1004.043      415.339        1.398        0.108      160.239       17.846        0.012      336.747        8.258      862.803
04/10/2014  05:29:00     -125.523      -34.643       -5.695       39.063       28.777       19.683     1525.937      828.128      387.410        0.986        0.137      130.216       16.370        0.016      336.790        8.329      862.798
04/10/2014  05:30:00     -136.346      -16.549       -7.569       48.078       37.415       21.890     2311.538     1399.912      479.154        1.156        0.210      137.347       22.712        0.027      336.773        8.301      862.796
04/10/2014  05:31:00     -157.776      -34.722      -10.247       32.274       38.452       20.592     1041.603     1478.577      424.023        1.457        0.147      161.551       13.148        0.007      336.770        8.295      862.804
04/10/2014  05:32:00     -151.827      -53.755        2.490       45.207       32.517       22.698     2043.635     1057.357      515.216        1.478        0.181      161.062       24.143        0.022      336.806        8.353      862.806
04/10/2014  05:33:00     -167.095      -60.734       -6.232       30.474       29.212       17.995      928.677      853.353      323.823        1.688        0.105      177.790       13.857        0.006      336.845        8.420      862.808
04/10/2014  05:34:00     -166.425      -58.330      -11.838       20.611       24.771       14.435      424.824      613.588      208.370        1.624        0.062      176.351        9.245        0.003      336.775        8.304      862.824
04/10/2014  05:35:00     -141.171      -41.086       -7.564       25.141       41.953       21.283      632.058     1760.038      452.955        1.226        0.142      147.028       19.464        0.018      336.736        8.240      862.835
04/10/2014  05:36:00     -162.581        6.181      -13.131       33.954       33.143       23.006     1152.884     1098.429      529.296        1.471        0.139      162.698       19.035        0.014      336.583        7.983      862.843
04/10/2014  05:37:00     -165.988       12.939      -18.734       27.113       29.391       21.506      735.114      863.832      462.494        1.507        0.103      166.492       14.374        0.007      336.532        7.897      862.851
04/10/2014  05:38:00     -147.781        5.263      -13.661       42.229       39.973       28.990     1783.317     1597.828      840.446        1.314        0.211      147.875       19.383        0.017      336.476        7.803      862.869
04/10/2014  05:39:00     -125.891       12.115       -2.880       44.692       35.725       24.666     1997.402     1276.302      608.403        0.994        0.194      126.473       21.911        0.030      336.537        7.905      862.871
04/10/2014  05:40:00     -116.682       -2.109      -12.745       42.966       35.981       22.254     1846.068     1294.665      495.219        0.871        0.182      116.701       18.344        0.025      336.539        7.910      862.875
04/10/2014  05:41:00      -87.557      -52.429      -12.762       44.667       31.964       22.008     1995.185     1021.686      484.356        0.704        0.175      102.054       10.870        0.011      336.565        7.953      862.894
04/10/2014  05:42:00     -129.667      -55.394       -5.461       41.318       34.922       24.243     1707.188     1219.557      587.740        1.171        0.176      141.004       18.798        0.018      336.457        7.772      862.919
04/10/2014  05:43:00      -94.055      -57.923        8.115       61.963       32.633       22.958     3839.389     1064.899      527.083        0.885        0.272      110.460       26.001        0.055      336.515        7.868      862.935
04/10/2014  05:44:00      -57.401      -83.260        6.198       39.655       32.010       28.191     1572.488     1024.621      794.716        0.683        0.170      101.129       22.572        0.050      336.656        8.106      862.926
04/10/2014  05:45:00      -66.009      -68.474       10.672       37.851       44.987       27.686     1432.688     2023.789      766.507        0.669        0.211       95.110       23.711        0.062      336.565        7.953      862.926
04/10/2014  05:46:00     -165.938     -106.980       -5.605       52.113       44.522       30.364     2715.724     1982.168      921.947        2.231        0.281      197.434       25.976        0.017      336.443        7.746      862.933
04/10/2014  05:47:00     -129.009     -116.038        2.234       54.475       50.571       28.364     2967.511     2557.398      804.504        1.822        0.316      173.517       24.477        0.020      336.377        7.637      862.936
04/10/2014  05:48:00     -141.376     -131.484       -0.045       51.220       39.460       30.947     2623.469     1557.106      957.698        2.121        0.257      193.068       33.487        0.030      336.399        7.670      862.935
04/10/2014  05:49:00     -155.895     -122.300       -1.670       39.888       45.192       31.230     1591.084     2042.272      975.319        2.194        0.230      198.142       27.789        0.020      336.371        7.624      862.939
04/10/2014  05:50:00     -140.824      -95.602       -1.474       58.778       40.708       27.018     3454.796     1657.141      729.981        1.741        0.292      170.209       28.646        0.028      336.378        7.638      862.940
04/10/2014  05:51:00     -111.283      -90.761       -0.973       73.221       43.583       26.285     5361.257     1899.443      690.902        1.429        0.398      143.602       35.423        0.061      336.385        7.650      862.942
04/10/2014  05:52:00      -87.285      -58.288        1.343       54.411       40.575       25.988     2960.605     1646.302      675.363        0.815        0.264      104.958       27.340        0.068      336.406        7.687      862.940
04/10/2014  05:53:00     -111.845      -70.252       -6.848       32.423       27.613       23.474     1051.277      762.501      551.047        0.993        0.118      132.078       16.476        0.016      336.438        7.739      862.942
04/10/2014  05:54:00     -130.164      -44.177       -6.520       20.431       21.162       15.551      417.416      447.836      241.821        1.002        0.055      137.456       12.887        0.009      336.415        7.701      862.947
04/10/2014  05:55:00     -126.729      -53.302      -15.134       20.614       20.184       16.465      424.934      407.394      271.110        1.012        0.055      137.482        8.012        0.003      336.419        7.707      862.974
04/10/2014  05:56:00     -128.271      -58.403       -9.784       31.920       22.166       18.802     1018.887      491.346      353.504        1.091        0.093      140.941       10.231        0.005      336.402        7.679      862.990
04/10/2014  05:57:00      -26.647      -21.513        6.082       42.508       22.314       23.591     1806.920      497.916      556.542        0.204        0.143       34.247       17.789        0.270      336.383        7.648      862.991
04/10/2014  05:58:00       19.196      -25.724        9.897       21.923       17.254       20.867      480.603      297.692      435.449        0.117        0.061       32.097       10.565        0.108      336.440        7.743      863.007
04/10/2014  05:59:00       -5.405      -22.384        2.078       13.221       15.150       16.966      174.783      229.512      287.834        0.061        0.035       23.027       12.211        0.281      336.464        7.785      863.012
04/10/2014  06:00:00       -7.812        8.857       19.195       10.318       22.329       14.968      106.458      498.577      224.028        0.067        0.041       11.810       16.351        1.917      336.383        7.647      863.012
04/10/2014  06:01:00      -19.112      -39.444       -3.061       23.046       16.662       20.771      531.097      277.620      431.420        0.159        0.062       43.830       13.882        0.100      336.566        7.955      863.011
04/10/2014  06:02:00      -75.157      -11.187      -14.519       28.369       17.024        9.504      804.824      289.833       90.331        0.358        0.059       75.985       12.142        0.026      336.510        7.862      863.000
04/10/2014  06:03:00     -111.109      -57.052      -11.133       24.199       20.752       14.337      585.599      430.664      205.553        0.847        0.061      124.900        6.211        0.002      336.424        7.716      863.000
04/10/2014  06:04:00     -125.658      -53.819       -9.279       24.445       21.732       16.790      597.552      472.278      281.893        1.006        0.068      136.699       13.904        0.010      336.364        7.617      862.987
04/10/2014  06:05:00     -153.811      -41.899      -15.425       33.607       37.711       15.178     1129.439     1422.083      230.386        1.422        0.139      159.416        8.669        0.003      336.322        7.545      862.981
04/10/2014  06:06:00     -134.897      -63.416       -2.217       35.786       34.530       19.747     1280.605     1192.325      389.926        1.254        0.143      149.060       16.816        0.013      336.361        7.610      862.975
04/10/2014  06:07:00     -100.909      -37.131      -13.578       40.553       35.089       19.470     1644.561     1231.231      379.062        0.750        0.163      107.523       15.423        0.021      336.377        7.638      862.982
04/10/2014  06:08:00      -90.462      -39.096       -1.617       41.333       25.005       16.973     1708.455      625.263      288.087        0.617        0.131       98.549       14.734        0.022      336.285        7.484      862.993
04/10/2014  06:09:00      -97.075      -17.087      -10.926       41.516       27.224       22.395     1723.549      741.151      501.540        0.640        0.148       98.568       23.106        0.055      336.236        7.402      862.996
04/10/2014  06:10:00        4.083       -7.401       10.258       25.158       17.881       15.128      632.933      319.746      228.847        0.068        0.059        8.453       13.233        2.451      336.254        7.432      863.014
04/10/2014  06:11:00        3.652       20.036        1.486       14.663       17.739       11.112      215.013      314.686      123.476        0.053        0.033       20.366        9.947        0.239      336.282        7.479      863.040
04/10/2014  06:12:00      -17.404        2.418        7.266       16.022        8.481        8.648      256.706       71.927       74.781        0.038        0.020       17.571        1.920        0.012      336.221        7.378      863.063
04/10/2014  06:13:00       -8.436       51.835      -15.306       18.251       17.783        8.800      333.085      316.224       77.448        0.186        0.036       52.517        5.293        0.010      336.156        7.269      863.084
04/10/2014  06:14:00      -59.250       -6.847      -12.939       19.309       13.555        9.374      372.837      183.730       87.865        0.218        0.032       59.644        7.410        0.015      336.195        7.334      863.109
04/10/2014  06:15:00      -71.478      -22.849       -7.407       16.431       11.139        8.590      269.984      124.075       73.792        0.308        0.023       75.041        6.791        0.008      336.201        7.344      863.122
04/10/2014  06:16:00      -99.103      -22.932      -11.565       19.468       14.337       10.323      378.990      205.537      106.573        0.559        0.035      101.722        7.999        0.006      336.244        7.416      863.136
04/10/2014  06:17:00      -87.990      -51.737       -5.230       18.539       17.457       16.073      343.688      304.731      258.344        0.568        0.045      102.073        9.207        0.008      336.148        7.255      863.138
04/10/2014  06:18:00      -75.058      -24.376       -5.949       15.564       10.708        7.533      242.245      114.665       56.744        0.334        0.021       78.917        3.651        0.002      336.222        7.381      863.140
04/10/2014  06:19:00      -11.538      -25.930       -7.413       16.463        8.586        6.619      271.043       73.719       43.809        0.062        0.019       28.381        1.769        0.004      336.329        7.557      863.154
04/10/2014  06:20:00      -15.975      -21.679        2.529       19.191       14.211        8.870      368.307      201.941       78.683        0.069        0.032       26.929        8.397        0.097      336.351        7.595      863.161
04/10/2014  06:21:00      -22.940      -21.451        4.277       26.160       13.834       11.621      684.367      191.381      135.049        0.101        0.051       31.407       10.495        0.112      336.328        7.556      863.169
04/10/2014  06:22:00      -52.246      -34.292       -2.584       14.113       15.457        9.596      199.178      238.927       92.083        0.222        0.027       62.495        4.956        0.006      336.374        7.631      863.170
04/10/2014  06:23:00      -16.689       -4.325        1.648       15.403        9.273        7.348      237.243       85.986       53.995        0.034        0.019       17.240        7.372        0.183      336.419        7.708      863.176
04/10/2014  06:24:00      -27.824       -6.744       -4.573        5.901        9.973        4.148       34.823       99.466       17.204        0.050        0.008       28.630        2.411        0.007      336.433        7.731      863.171
04/10/2014  06:25:00      -44.950      -28.991       -7.489        8.560        8.410        7.561       73.282       70.733       57.174        0.156        0.010       53.488        3.695        0.005      336.512        7.863      863.172
04/10/2014  06:26:00      -46.511      -25.812        1.143       13.003        8.178        7.264      169.088       66.878       52.768        0.156        0.014       53.193        6.958        0.017      336.490        7.826      863.173
04/10/2014  06:27:00      -34.245       -9.471       -2.648       14.655       15.325        6.144      214.761      234.864       37.751        0.088        0.024       35.531        4.690        0.017      336.402        7.678      863.178
04/10/2014  06:28:00       -7.051       24.943       -2.176       20.262        6.185        5.717      410.548       38.250       32.687        0.058        0.024       25.920        5.962        0.053      336.345        7.584      863.182
04/10/2014  06:29:00       85.796       36.103       -2.737       45.305       20.584       17.548     2052.515      423.718      307.933        0.573        0.139       93.083       15.163        0.027      336.314        7.533      863.181
04/10/2014  06:30:00      114.044       79.224        5.397       26.573       28.174       27.416      706.147      793.770      751.639        1.078        0.113      138.861       16.893        0.015      335.834        6.732      863.206
04/10/2014  06:31:00       31.739       24.723       20.864       30.725       25.298       14.006      944.010      639.967      196.156        0.192        0.089       40.231       10.489        0.068      335.903        6.847      863.239
04/10/2014  06:32:00        7.498      -22.651       -0.164       24.821       11.720        9.516      616.086      137.361       90.557        0.071        0.042       23.860        9.979        0.175      335.982        6.977      863.254
04/10/2014  06:33:00       14.728       -2.392        9.618       15.223       18.459       13.340      231.749      340.725      177.962        0.053        0.038       14.921       10.961        0.540      335.974        6.965      863.256
04/10/2014  06:34:00       42.922       34.775        7.655       10.448        7.823       10.319      109.156       61.195      106.476        0.169        0.014       55.242        6.450        0.014      335.886        6.822      863.259
04/10/2014  06:35:00       45.757       32.542        8.318        9.888        7.478        8.369       97.777       55.922       70.035        0.172        0.011       56.149        1.560        0.001      335.886        6.818      863.260
04/10/2014  06:36:00       50.351       30.118        7.033       15.134        5.752        8.920      229.049       33.087       79.571        0.192        0.017       58.671        3.285        0.003      335.905        6.850      863.275
04/10/2014  06:37:00       13.331       19.388        8.782        7.703        7.344        7.933       59.332       53.929       62.939        0.040        0.009       23.529        5.235        0.049      335.954        6.932      863.284
04/10/2014  06:38:00       -2.403       21.580        0.218        5.883        5.604        5.154       34.614       31.400       26.560        0.028        0.005       21.713        2.119        0.010      335.959        6.939      863.295
04/10/2014  06:39:00       12.710       12.093        4.800        8.801       10.444        6.556       77.460      109.081       42.975        0.028        0.011       17.544        4.573        0.068      335.950        6.925      863.297
04/10/2014  06:40:00       26.211       32.291       -3.013       15.581        9.781       11.913      242.764       95.667      141.921        0.111        0.024       41.590        9.709        0.055      335.988        6.987      863.304
04/10/2014  06:41:00       22.906       53.423       -4.807       14.751       22.803       12.197      217.591      519.971      148.775        0.214        0.044       58.126       14.874        0.065      335.885        6.818      863.319
04/10/2014  06:42:00       -2.547       56.216       -8.588        6.892        7.848        5.795       47.495       61.588       33.581        0.169        0.007       56.274        4.435        0.006      335.898        6.839      863.325
04/10/2014  06:43:00       -8.934       31.586       -5.626        9.792        9.114        6.002       95.890       83.067       36.023        0.066        0.011       32.825        5.301        0.026      336.056        7.100      863.345
04/10/2014  06:44:00      -42.964       15.876       -4.209       25.250        7.439        7.502      637.545       55.337       56.285        0.143        0.037       45.804       10.530        0.053      335.984        6.982      863.354
04/10/2014  06:45:00      -70.536       20.514       -6.229        8.991       11.630        9.287       80.836      135.262       86.256        0.287        0.015       73.459        4.193        0.003      335.898        6.840      863.359
04/10/2014  06:46:00      -71.870       12.020      -10.748       15.845       21.824       10.802      251.057      476.275      116.677        0.313        0.042       72.868        8.321        0.013      335.927        6.886      863.372
04/10/2014  06:47:00      -62.255      -30.772      -12.412       12.933       13.354        9.341      167.268      178.327       87.246        0.270        0.022       69.445        5.643        0.007      335.821        6.710      863.384
04/10/2014  06:48:00      -36.294      -15.945       -7.343       13.060       16.707       10.812      170.575      279.129      116.904        0.110        0.028       39.642        8.327        0.044      335.828        6.721      863.404
04/10/2014  06:49:00      -24.277        0.069       -1.795       15.372        8.832       11.884      236.300       77.996      141.219        0.052        0.023       24.277       12.417        0.262      335.919        6.874      863.409
04/10/2014  06:50:00        0.774        9.762        1.276       10.529       15.308        9.013      110.869      234.322       81.233        0.026        0.021        9.793        5.902        0.363      336.116        7.201      863.424
04/10/2014  06:51:00       -6.216       55.871       -6.002       13.992       20.519       11.157      195.771      421.042      124.472        0.197        0.037       56.216        9.986        0.032      336.359        7.607      863.432
04/10/2014  06:52:00        6.849       63.813       -1.621       17.108       16.893       11.353      292.672      285.371      128.897        0.241        0.035       64.179       10.972        0.029      336.367        7.620      863.433
04/10/2014  06:53:00       13.436       39.099        0.083       11.142       12.007       11.292      124.150      144.169      127.502        0.105        0.020       41.343        8.938        0.047      336.372        7.629      863.421
04/10/2014  06:54:00       10.716       15.166        4.188        9.678       14.742        9.465       93.665      217.316       89.579        0.038        0.020       18.570        4.075        0.048      336.477        7.805      863.415
04/10/2014  06:55:00        6.874        7.571       10.305        9.713        9.237       10.419       94.343       85.330      108.557        0.025        0.014       10.226        6.224        0.370      336.537        7.904      863.416
04/10/2014  06:56:00       -1.954        6.619       23.008        7.521       12.240        7.009       56.560      149.829       49.131        0.042        0.013        6.902        7.087        1.054      336.669        8.126      863.418
04/10/2014  06:57:00       -2.086       16.972       23.758        8.819       10.967       11.604       77.777      120.278      134.663        0.059        0.017       17.100        8.232        0.232      336.458        7.773      863.414
04/10/2014  06:58:00       -9.411       -6.440       11.884       14.812       20.490       14.441      219.387      419.823      208.533        0.056        0.042       11.403       14.473        1.611      336.574        7.968      863.415
04/10/2014  06:59:00      -30.784        6.298        0.092       14.436       12.009        8.596      208.405      144.219       73.894        0.071        0.021       31.422        7.926        0.064      336.366        7.620      863.429
04/10/2014  07:00:00      -43.102        7.142       -5.786       10.120        8.466        6.899      102.420       71.677       47.593        0.108        0.011       43.690        3.409        0.006      336.219        7.374      863.443
04/10/2014  07:01:00      -14.836       -8.841       -3.398        7.368        9.304        4.599       54.284       86.572       21.149        0.024        0.008       17.270        3.319        0.037      336.236        7.403      863.450
04/10/2014  07:02:00       -5.654      -12.550        0.817        4.012        8.045        4.457       16.099       64.725       19.867        0.015        0.005       13.765        3.259        0.056      336.354        7.601      863.466
04/10/2014  07:03:00      -11.483        1.649        7.297        6.479        4.252        6.644       41.974       18.078       44.138        0.015        0.005       11.601        4.246        0.134      336.575        7.970      863.490
04/10/2014  07:04:00       -5.113       10.029       24.179        6.461       11.852        8.266       41.745      140.464       68.330        0.048        0.013       11.257        4.480        0.158      336.965        8.620      863.506
04/10/2014  07:05:00      -15.944       -7.333       11.418        9.017       12.963       11.395       81.311      168.028      129.843        0.041        0.019       17.550       11.035        0.395      336.585        7.986      863.518
04/10/2014  07:06:00      -22.952      -12.180        1.562       16.841       10.372        5.755      283.603      107.578       33.125        0.055        0.021       25.984        5.462        0.044      336.458        7.773      863.536
04/10/2014  07:07:00      -43.610      -17.927        1.620       20.124       12.514        7.065      404.959      156.600       49.919        0.142        0.031       47.151        8.484        0.032      336.437        7.738      863.537
04/10/2014  07:08:00      -11.826      -12.979       -0.678       16.380       12.518        9.490      268.304      156.689       90.059        0.041        0.026       17.558        7.910        0.203      336.515        7.867      863.546
04/10/2014  07:09:00        4.375       -6.385        9.826        9.165        8.463        8.336       83.991       71.628       69.481        0.019        0.011        7.740        3.125        0.163      336.712        8.199      863.554
04/10/2014  07:10:00       -3.315       -5.734       12.360       13.534       11.061       14.583      183.173      122.344      212.658        0.036        0.026        6.623       11.314        2.918      336.947        8.592      863.555
04/10/2014  07:11:00      -33.491       -8.380       -1.892       10.996        8.366        5.748      120.923       69.989       33.036        0.071        0.011       34.523        4.807        0.019      336.595        8.004      863.554
04/10/2014  07:12:00      -46.372       -8.290       -2.149       12.784        7.885        6.613      163.424       62.179       43.736        0.125        0.013       47.107        5.971        0.016      336.554        7.934      863.560
04/10/2014  07:13:00      -55.170      -27.229       -4.809        8.854        6.338        4.939       78.400       40.172       24.391        0.198        0.007       61.524        2.996        0.002      336.574        7.968      863.562
04/10/2014  07:14:00      -32.946      -22.856       -1.035       22.329       12.590        9.461      498.583      158.515       89.516        0.118        0.037       40.098       12.017        0.090      336.622        8.049      863.571
04/10/2014  07:15:00      -39.472      -14.801       -4.346       15.076       15.495        7.008      227.278      240.105       49.107        0.116        0.026       42.156        6.064        0.021      336.492        7.830      863.567
04/10/2014  07:16:00      -58.002      -15.827      -10.158       11.488       16.630        8.177      131.984      276.563       66.861        0.210        0.024       60.123        4.739        0.006      336.460        7.776      863.581
04/10/2014  07:17:00      -39.496      -21.274       -1.685       14.843       10.695        8.151      220.301      114.394       66.435        0.121        0.020       44.861        4.207        0.009      336.533        7.899      863.587
04/10/2014  07:18:00      -50.645       -9.349       -5.152       10.348        7.756        6.291      107.080       60.156       39.582        0.144        0.010       51.500        3.216        0.004      336.508        7.856      863.593
04/10/2014  07:19:00      -61.250      -24.302       -9.736       10.890       13.743        8.818      118.582      188.874       77.753        0.241        0.019       65.895        2.094        0.001      336.526        7.887      863.598
04/10/2014  07:20:00      -43.592      -29.149       -5.312       15.369       13.310       11.290      236.206      177.146      127.460        0.166        0.027       52.440        5.336        0.010      336.540        7.911      863.597
04/10/2014  07:21:00      -53.583      -29.088       -4.615       12.321       12.791       10.445      151.803      163.617      109.105        0.208        0.021       60.969        5.126        0.007      336.537        7.907      863.603
04/10/2014  07:22:00      -28.142      -27.958       -2.509       14.707       16.419       11.830      216.301      269.590      139.955        0.110        0.031       39.668        7.363        0.034      336.648        8.092      863.608
04/10/2014  07:23:00      -26.267      -19.488       -0.135       18.493       14.839        7.989      342.009      220.189       63.825        0.085        0.031       32.707        5.240        0.026      336.763        8.285      863.606
04/10/2014  07:24:00      -47.094      -17.630       -2.012       14.717       10.638        8.250      216.582      113.166       68.056        0.147        0.020       50.286        5.909        0.014      336.709        8.193      863.607
04/10/2014  07:25:00      -40.233       -9.990       -0.390       23.354       16.443       10.170      545.424      270.381      103.433        0.132        0.046       41.455        9.214        0.049      336.750        8.263      863.609
04/10/2014  07:26:00      -48.914      -21.460       -5.058       10.302       11.808       10.000      106.138      139.429      100.010        0.161        0.017       53.414        5.884        0.012      336.722        8.216      863.620
04/10/2014  07:27:00      -25.072        2.185       -9.495        5.981        9.497        5.429       35.777       90.194       29.472        0.044        0.008       25.167        3.405        0.018      336.773        8.302      863.628
04/10/2014  07:28:00      -23.972       11.203        1.206        6.260       10.550       10.872       39.182      111.312      118.208        0.049        0.013       26.461        6.476        0.060      336.945        8.588      863.642
04/10/2014  07:29:00        4.033       11.461        6.801       19.099        8.994       10.938      364.789       80.892      119.646        0.038        0.028       12.150        5.079        0.175      337.191        8.999      863.651
04/10/2014  07:30:00        0.513       39.312        7.497       14.573       24.760       17.160      212.373      613.075      294.480        0.136        0.056       39.316       10.959        0.078      337.421        9.384      863.651
04/10/2014  07:31:00       -9.394       65.818        3.243       14.844       23.059       16.905      220.355      531.717      285.763        0.273        0.052       66.485       11.351        0.029      337.273        9.136      863.651
04/10/2014  07:32:00       -3.178       58.034        9.740       10.282       17.932       16.542      105.727      321.563      273.645        0.209        0.035       58.121       10.300        0.031      337.353        9.270      863.654
04/10/2014  07:33:00      -12.474       58.272        0.873        9.145       14.051       15.637       83.630      197.438      244.514        0.204        0.026       59.592        8.689        0.021      337.173        8.967      863.666
04/10/2014  07:34:00       -5.666       36.391       10.558       18.354       16.325       15.515      336.878      266.494      240.711        0.116        0.042       36.830        9.363        0.065      337.271        9.131      863.679
04/10/2014  07:35:00        9.372       20.257       35.890       18.013       20.178       10.818      324.471      407.134      117.024        0.132        0.042       22.320        8.482        0.144      337.455        9.440      863.685
04/10/2014  07:36:00       13.120       21.637       34.039       19.312       18.051       15.752      372.969      325.830      248.126        0.137        0.047       25.304        8.020        0.100      337.547        9.595      863.684
04/10/2014  07:37:00       30.360       32.651       32.529       21.909       17.603       22.600      480.005      309.875      510.748        0.217        0.065       44.585        9.576        0.046      337.397        9.344      863.683
04/10/2014  07:38:00       44.936       59.044       40.805       31.655       19.971       19.724     1002.010      398.854      389.030        0.448        0.089       74.199       15.278        0.042      337.207        9.023      863.677
04/10/2014  07:39:00       65.719       54.019       24.019       15.652       13.116       18.104      244.995      172.042      327.759        0.428        0.037       85.071        9.676        0.013      337.116        8.873      863.687
04/10/2014  07:40:00       13.058       40.144       27.976       17.494       12.859       17.716      306.043      165.362      313.866        0.167        0.039       42.214       14.298        0.115      337.293        9.170      863.682
04/10/2014  07:41:00       35.525       40.055       50.046       27.980       23.862       19.409      782.861      569.382      376.701        0.355        0.086       53.539       13.157        0.060      337.470        9.467      863.680
04/10/2014  07:42:00       18.001       70.360       65.217       26.114       27.582       20.626      681.934      760.751      425.428        0.570        0.093       72.626       18.264        0.063      337.433        9.402      863.678
04/10/2014  07:43:00       71.684       49.398       56.343       48.758       37.383       34.550     2377.373     1397.451     1193.677        0.786        0.248       87.056       26.956        0.096      337.381        9.317      863.683
04/10/2014  07:44:00      102.020       54.524        7.174       31.975       29.672       19.055     1022.409      880.416      363.108        0.785        0.113      115.676        5.738        0.002      337.222        9.051      863.687
04/10/2014  07:45:00       50.910       43.293       10.911       38.107       31.489       26.601     1452.179      991.586      707.591        0.387        0.158       66.829       18.142        0.074      337.336        9.241      863.684
04/10/2014  07:46:00       58.192       38.797        1.833       25.347       31.245       26.518      642.487      976.260      703.211        0.361        0.116       69.939       13.021        0.035      337.323        9.219      863.677
04/10/2014  07:47:00       26.413       37.947       10.334       25.981       23.084       22.646      675.038      532.874      512.856        0.198        0.086       46.235       12.037        0.068      337.378        9.311      863.677
04/10/2014  07:48:00       51.407       44.937       10.678       26.086       20.438       20.049      680.465      417.695      401.960        0.314        0.075       68.279       14.273        0.044      337.278        9.143      863.671
04/10/2014  07:49:00       66.165       45.406        2.028       16.343       15.523       16.740      267.100      240.972      280.219        0.362        0.039       80.246        5.848        0.005      337.151        8.932      863.683
04/10/2014  07:50:00       48.038       39.264       38.846       28.085       18.721       17.863      788.742      350.470      319.089        0.341        0.073       62.043        9.350        0.023      337.500        9.516      863.690
04/10/2014  07:51:00       50.507       40.984       25.757       19.296       15.897       21.087      372.318      252.706      444.647        0.298        0.053       65.043        9.141        0.020      337.372        9.302      863.699
04/10/2014  07:52:00       27.682       28.992        4.180       17.389       10.328       13.194      302.370      106.670      174.071        0.110        0.029       40.085        7.478        0.035      337.370        9.299      863.695
04/10/2014  07:53:00        9.990       36.998       -7.145       13.991       11.993       18.821      195.742      143.834      354.227        0.111        0.035       38.323        8.063        0.044      337.519        9.548      863.697
04/10/2014  07:54:00        9.216       20.764       21.124       17.231       23.275       14.355      296.893      541.735      206.070        0.100        0.052       22.718        7.293        0.103      337.877       10.148      863.697
04/10/2014  07:55:00        0.702       29.033       42.992       17.179       24.156       14.203      295.126      583.490      201.723        0.189        0.054       29.041       11.734        0.163      338.028       10.402      863.699
04/10/2014  07:56:00        2.678       29.963       39.928       19.307       25.336       17.692      372.763      641.934      313.017        0.191        0.066       30.083       11.437        0.145      338.190       10.673      863.705
04/10/2014  07:57:00       19.269        6.485       41.006       36.448       26.871       22.624     1328.428      722.040      511.842        0.233        0.128       20.330       18.198        0.801      338.163       10.630      863.711
04/10/2014  07:58:00       -5.252       19.603       34.607       19.884       17.818       18.537      395.369      317.494      343.616        0.133        0.053       20.294       10.254        0.255      338.409       11.041      863.716
04/10/2014  07:59:00       11.490       11.149       27.177       17.488       16.726       10.142      305.824      279.749      102.862        0.084        0.034       16.010        4.300        0.072      338.441       11.094      863.718
04/10/2014  08:00:00        1.160       12.908       42.446       12.996       19.107       17.617      168.898      365.063      310.344        0.141        0.042       12.960       12.373        0.912      338.619       11.394      863.721
04/10/2014  08:01:00       13.232        6.554       31.249       27.906       46.984       29.552      778.749     2207.473      873.344        0.253        0.193       14.766       22.515        2.325      338.057       10.450      863.722
04/10/2014  08:02:00        7.108        1.582       37.731       16.572       28.110       13.721      274.626      790.181      188.253        0.136        0.063        7.282        6.673        0.840      338.534       11.250      863.727
04/10/2014  08:03:00        1.095       28.701       57.252       13.970       32.739       17.187      195.165     1071.839      295.407        0.283        0.078       28.722       18.983        0.437      338.542       11.264      863.725
04/10/2014  08:04:00        0.427       10.485       54.495       16.104       35.411       17.786      259.340     1253.917      316.332        0.245        0.091       10.494       18.735        3.187      338.421       11.061      863.727
04/10/2014  08:05:00       12.329      -41.981       36.928       25.248       58.216       26.464      637.465     3389.093      700.356        0.400        0.236       43.754       21.095        0.232      338.330       10.909      863.722
04/10/2014  08:06:00        3.088      -17.245       32.618       24.096       49.873       29.564      580.595     2487.347      874.012        0.266        0.197       17.519       31.294        3.191      338.537       11.256      863.724
04/10/2014  08:07:00        3.651      -17.128       27.345       23.241       30.165       28.556      540.155      909.930      815.454        0.166        0.113       17.513       17.225        0.967      338.659       11.462      863.729
04/10/2014  08:08:00       -7.671      -14.384       31.144       19.903       31.878       21.585      396.112     1016.215      465.908        0.156        0.094       16.302        7.758        0.227      338.663       11.467      863.725
04/10/2014  08:09:00       -7.944       14.406       36.244       22.337       24.170       15.695      498.939      584.196      246.329        0.146        0.066       16.451       14.965        0.827      338.810       11.715      863.725
04/10/2014  08:10:00        2.344       -0.558       40.124       19.053       25.044       14.670      362.999      627.216      215.220        0.141        0.060        2.410       12.546       27.112      338.893       11.855      863.726
04/10/2014  08:11:00       -9.765      -35.514       13.307       32.536       39.562       24.883     1058.604     1565.143      619.181        0.239        0.162       36.832       16.974        0.212      338.386       11.001      863.731
04/10/2014  08:12:00       -9.917      -16.897       26.970       19.637       49.001       20.242      385.616     2401.073      409.733        0.215        0.160       19.592       27.631        1.989      338.774       11.653      863.734
04/10/2014  08:13:00      -17.048       14.475       10.128       16.800       17.918       14.285      282.253      321.069      204.052        0.070        0.040       22.364        8.313        0.138      338.600       11.362      863.739
04/10/2014  08:14:00      -12.280       15.469       38.054       17.118       23.906       21.910      293.038      571.498      480.060        0.159        0.067       19.750       11.929        0.365      339.095       12.195      863.744
04/10/2014  08:15:00       -7.752       23.400       48.824       20.412       21.845       14.833      416.649      477.224      220.032        0.205        0.056       24.650       11.121        0.204      339.065       12.144      863.740
04/10/2014  08:16:00       -5.408        9.029       46.219       17.942       23.014       14.700      321.904      529.637      216.085        0.166        0.053       10.525       11.547        1.204      338.934       11.923      863.736
04/10/2014  08:17:00        6.301       16.002       56.760       33.972       40.474       21.931     1154.085     1638.112      480.976        0.339        0.164       17.198       21.898        1.621      338.666       11.472      863.728
04/10/2014  08:18:00       18.485       -6.268       32.620       31.469       52.267       30.449      990.289     2731.831      927.133        0.305        0.232       19.518       31.144        2.546      338.410       11.043      863.720
04/10/2014  08:19:00       14.400      -20.007       35.031       28.798       52.301       26.707      829.353     2735.367      713.245        0.306        0.214       24.651       35.089        2.026      338.864       11.808      863.711
04/10/2014  08:20:00       19.745      -50.638       20.667       41.735       62.761       39.479     1741.783     3938.949     1558.596        0.531        0.362       54.351       43.721        0.647      338.793       11.686      863.706
04/10/2014  08:21:00       16.226      -51.595       19.201       22.408       33.093       24.699      502.098     1095.162      610.020        0.275        0.110       54.086       21.852        0.163      338.811       11.718      863.702
04/10/2014  08:22:00       21.529       18.397       31.566       27.451       28.858       15.519      753.559      832.775      240.854        0.181        0.091       28.319       17.942        0.401      338.995       12.027      863.698
04/10/2014  08:23:00       16.925        8.232       45.558       23.993       20.827       14.819      575.652      433.767      219.593        0.183        0.061       18.821       12.119        0.415      339.000       12.033      863.695
04/10/2014  08:24:00       26.238      -10.528       32.427       30.444       39.681       35.099      926.840     1574.610     1231.921        0.279        0.187       28.271       33.503        1.404      338.797       11.693      863.700
04/10/2014  08:25:00       15.821       26.010       52.351       27.304       30.409       20.378      745.482      924.684      415.262        0.288        0.104       30.444       16.050        0.278      338.866       11.809      863.706
04/10/2014  08:26:00       20.957       24.139       38.499       26.700       21.838       22.360      712.907      476.891      499.979        0.210        0.084       31.967        9.758        0.093      338.771       11.650      863.707
04/10/2014  08:27:00       28.515       11.902       31.055       31.112       15.238       18.014      967.938      232.200      324.521        0.172        0.076       30.899       16.839        0.297      338.766       11.641      863.719
04/10/2014  08:28:00       37.385       15.723        8.002       29.864       20.297       22.038      891.868      411.949      485.677        0.175        0.089       40.557       16.675        0.169      338.398       11.021      863.725
04/10/2014  08:29:00       43.996       26.081       10.421       23.071       23.584       17.608      532.253      556.184      310.052        0.206        0.070       51.146        8.982        0.031      338.492       11.180      863.727
04/10/2014  08:30:00       29.857       48.020       10.856       24.582       25.961       23.757      604.276      673.968      564.375        0.258        0.092       56.545       19.478        0.119      338.746       11.607      863.725
04/10/2014  08:31:00       48.561       26.334        6.106       22.603       21.865       26.895      510.905      478.069      723.331        0.240        0.086       55.242       16.852        0.093      338.803       11.703      863.720
04/10/2014  08:32:00       52.970       78.604        0.765       25.210       35.649       35.015      635.566     1270.836     1226.017        0.606        0.157       94.786       27.628        0.085      338.596       11.355      863.722
04/10/2014  08:33:00       76.722       61.178       11.821       23.970       19.973       22.783      574.573      398.927      519.068        0.563        0.075       98.128       12.988        0.018      338.520       11.227      863.727
04/10/2014  08:34:00       90.411       46.401        1.171       39.842       28.576       30.483     1587.352      816.571      929.241        0.683        0.167      101.623       18.225        0.032      338.728       11.578      863.722
04/10/2014  08:35:00       63.982       57.365       13.183       27.454       25.979       32.104      753.721      674.929     1030.689        0.501        0.123       85.933       15.239        0.031      338.665       11.471      863.718
04/10/2014  08:36:00       36.335       31.297       28.106       44.702       25.602       29.008     1998.276      655.485      841.478        0.329        0.175       47.955       28.660        0.357      339.238       12.435      863.719
04/10/2014  08:37:00       10.926       21.505       21.447       26.596       21.160       25.171      707.346      447.725      633.565        0.141        0.089       24.122       19.269        0.638      339.475       12.835      863.715
04/10/2014  08:38:00       38.945       50.946        9.483       35.275       30.970       21.980     1244.347      959.137      483.100        0.344        0.134       64.127       18.656        0.085      338.971       11.985      863.708
04/10/2014  08:39:00       53.544       59.842       -8.871       27.750       27.507       22.002      770.056      756.655      484.093        0.427        0.101       80.300       11.224        0.020      338.618       11.392      863.696
04/10/2014  08:40:00      -11.490       54.150        8.326       20.593       34.585       27.763      424.053     1196.094      770.769        0.276        0.120       55.355       24.748        0.200      339.150       12.287      863.680
04/10/2014  08:41:00        0.872       -0.369       21.423       14.926       16.613       17.825      222.800      276.008      317.742        0.064        0.041        0.947       10.316      118.596      339.471       12.828      863.663
04/10/2014  08:42:00      -12.522       60.937        0.564       19.415       31.504       25.472      376.951      992.525      648.819        0.294        0.101       62.211       11.287        0.033      339.073       12.158      863.652
04/10/2014  08:43:00       -1.221        9.227       12.932       17.084       25.128       21.702      291.871      631.396      470.962        0.082        0.070        9.307       10.094        1.176      339.463       12.812      863.643
04/10/2014  08:44:00        8.083       49.957       14.008       28.092       49.062       25.655      789.182     2407.120      658.194        0.331        0.193       50.607       20.387        0.162      339.506       12.887      863.631
04/10/2014  08:45:00       -0.281        2.103       21.119       14.843       29.022       17.054      220.322      842.263      290.828        0.090        0.068        2.121        9.487       20.001      339.722       13.250      863.638
04/10/2014  08:46:00       10.924       33.081       -8.827       16.367       34.410       23.230      267.876     1184.067      539.619        0.164        0.100       34.838       15.827        0.206      339.132       12.256      863.642
04/10/2014  08:47:00       39.736       49.615       19.923       57.001       44.279       27.910     3249.080     1960.609      778.949        0.521        0.299       63.566       14.158        0.050      339.128       12.249      863.637
04/10/2014  08:48:00       -1.199       16.188       25.542       31.284       29.501       18.507      978.667      870.304      342.516        0.155        0.110       16.232       12.985        0.640      339.561       12.979      863.647
04/10/2014  08:49:00        7.617       17.900       38.175       25.879       30.033       20.404      669.726      901.998      416.313        0.191        0.099       19.453       17.592        0.818      339.855       13.475      863.659
04/10/2014  08:50:00       23.396       48.295       75.464       32.720       41.558       31.561     1070.595     1727.042      996.097        0.618        0.190       53.664       14.595        0.074      339.429       12.757      863.678
04/10/2014  08:51:00       34.290      -10.012       34.450       41.151       51.668       39.062     1693.396     2669.568     1525.807        0.417        0.294       35.722       35.826        1.006      339.192       12.358      863.689
04/10/2014  08:52:00       32.077      -10.551       49.733       41.098       57.413       30.828     1689.060     3296.290      950.344        0.477        0.297       33.768       35.603        1.112      339.269       12.488      863.704
04/10/2014  08:53:00       44.075       -1.463       43.799       30.410       39.005       27.359      924.738     1521.367      748.531        0.353        0.160       44.100       24.349        0.305      339.280       12.506      863.723
04/10/2014  08:54:00       28.076       28.275       48.624       25.325       47.673       30.390      641.344     2272.738      923.553        0.389        0.192       39.846       33.762        0.718      339.204       12.379      863.717
04/10/2014  08:55:00       43.449       50.745       13.961       45.471       38.956       34.619     2067.583     1517.541     1198.445        0.472        0.239       66.804       10.566        0.025      339.252       12.459      863.714
04/10/2014  08:56:00       43.392       58.672       50.074       47.773       37.597       48.265     2282.242     1413.513     2329.509        0.693        0.301       72.975       34.487        0.223      339.474       12.832      863.701
04/10/2014  08:57:00       44.742       62.098       63.548       31.113       20.520       20.505      968.031      421.059      420.437        0.585        0.090       76.537        9.528        0.015      338.980       12.000      863.696
04/10/2014  08:58:00       19.570       24.229       26.657       20.186       29.023       27.747      407.474      842.337      769.899        0.185        0.101       31.146       19.249        0.382      339.242       12.441      863.689
04/10/2014  08:59:00       35.318       45.356       43.018       29.903       24.113       19.751      894.200      581.442      390.119        0.351        0.093       57.485       16.006        0.078      339.364       12.647      863.677
04/10/2014  09:00:00       20.519       41.654        9.497       25.461       19.965       19.233      648.265      398.605      369.923        0.183        0.071       46.434       10.364        0.050      339.100       12.203      863.666
04/10/2014  09:01:00       30.290       13.212        2.848       39.271       33.472       28.671     1542.251     1120.345      822.026        0.229        0.174       33.046       14.537        0.194      339.433       12.762      863.655
04/10/2014  09:02:00       -0.207       -9.517       13.058       18.322       38.691       25.362      335.688     1496.972      643.222        0.137        0.124        9.519       14.862        2.438      339.790       13.366      863.648
04/10/2014  09:03:00       15.646       26.633       30.890       26.525       24.639       25.766      703.599      607.067      663.888        0.194        0.099       30.888       14.631        0.224      339.793       13.370      863.641
04/10/2014  09:04:00       17.318       14.960       23.954       30.546       18.514       30.464      933.063      342.764      928.076        0.165        0.110       22.884       13.652        0.356      339.861       13.484      863.642
04/10/2014  09:05:00       19.448       25.827       38.811       29.956       26.218       35.255      897.365      687.391     1242.885        0.269        0.141       32.330       23.664        0.536      339.894       13.541      863.637
04/10/2014  09:06:00       14.725       22.114       40.723       39.838       29.230       29.723     1587.068      854.369      883.460        0.284        0.166       26.568       28.529        1.153      340.210       14.075      863.639
04/10/2014  09:07:00      -11.052       12.270       49.100       16.021       24.957       14.566      256.663      622.856      212.177        0.189        0.055       16.514        9.840        0.355      340.397       14.391      863.639
04/10/2014  09:08:00        0.961       13.006       34.045       36.747       26.609       24.447     1350.375      708.057      597.655        0.199        0.133       13.041        9.327        0.512      340.197       14.051      863.647
04/10/2014  09:09:00       15.540       -8.517       39.910       35.784       36.338       30.070     1280.477     1320.462      904.194        0.271        0.175       17.721       23.280        1.726      340.282       14.195      863.645
04/10/2014  09:10:00        7.356       44.911       65.396       26.950       45.095       26.242      726.321     2033.584      688.621        0.490        0.172       45.509       23.092        0.257      340.173       14.012      863.642
04/10/2014  09:11:00       -3.215       30.395       53.421       25.461       40.181       26.043      648.260     1614.508      678.243        0.336        0.147       30.564       27.429        0.805      340.266       14.169      863.636
04/10/2014  09:12:00       26.502       55.800       67.081       45.302       47.845       29.513     2052.244     2289.179      870.989        0.676        0.261       61.773       22.082        0.128      339.965       13.660      863.627
04/10/2014  09:13:00       88.271      108.691       77.299       53.422       34.867       41.932     2853.933     1215.718     1758.320        1.570        0.291      140.019       36.810        0.069      339.494       12.866      863.618
04/10/2014  09:14:00       63.489       69.543       59.841       50.391       48.950       49.609     2539.279     2396.144     2461.097        0.992        0.370       94.165       40.099        0.181      339.580       13.012      863.610
04/10/2014  09:15:00       80.910      102.119       68.945       71.648       37.671       41.784     5133.425     1419.138     1745.877        1.501        0.415      130.287       42.414        0.106      339.312       12.559      863.605
04/10/2014  09:16:00       10.296       45.284       41.875       23.594       43.100       37.534      556.666     1857.646     1408.768        0.387        0.191       46.440       32.707        0.496      339.659       13.145      863.604
04/10/2014  09:17:00       55.105      -17.851       18.925       33.421       25.907       23.167     1116.991      671.148      536.731        0.302        0.116       57.924       19.107        0.109      339.750       13.298      863.594
04/10/2014  09:18:00       47.914      -44.109        4.821       55.068       68.027       43.521     3032.450     4627.658     1894.055        0.691        0.478       65.126       46.606        0.512      339.981       13.687      863.587
04/10/2014  09:19:00       67.338      -95.956       -1.560       52.717       48.703       42.302     2779.125     2371.943     1789.487        1.034        0.347      117.226       36.352        0.096      339.907       13.562      863.578
04/10/2014  09:20:00       27.436      -35.811       23.168       33.835       67.426       46.724     1144.796     4546.279     2183.087        0.522        0.394       45.112       39.758        0.777      340.395       14.387      863.571
04/10/2014  09:21:00       16.485       30.166       56.441       28.955       42.043       19.736      838.407     1767.606      389.516        0.368        0.150       34.377       14.515        0.178      340.435       14.455      863.573
04/10/2014  09:22:00       48.647       70.931       30.536       38.557       31.264       38.618     1486.670      977.446     1491.339        0.614        0.198       86.010       19.938        0.054      339.895       13.542      863.573
04/10/2014  09:23:00      102.061       69.955        5.549       58.316       48.894       35.441     3400.811     2390.634     1256.061        1.119        0.352      123.735       12.995        0.011      340.030       13.769      863.567
04/10/2014  09:24:00       28.763       31.951       26.844       27.722       32.207       32.574      768.508     1037.266     1061.076        0.272        0.143       42.990       11.584        0.073      340.562       14.669      863.575
04/10/2014  09:25:00        5.494       -6.479       32.541       20.252       32.056       21.373      410.141     1027.589      456.811        0.151        0.095        8.494       19.942        5.512      341.077       15.541      863.593
04/10/2014  09:26:00       20.629       33.842       36.108       26.671       32.145       28.239      711.318     1033.285      797.456        0.271        0.127       39.634       18.897        0.227      340.649       14.816      863.605
04/10/2014  09:27:00       33.338       41.624       38.804       33.015       37.177       25.059     1089.970     1382.159      627.932        0.372        0.155       53.329       17.932        0.113      340.505       14.573      863.626
04/10/2014  09:28:00       49.769       39.054       32.440       31.935       25.448       32.079     1019.816      647.579     1029.053        0.387        0.135       63.262       18.416        0.085      340.176       14.016      863.634
04/10/2014  09:29:00       56.160       62.552       -6.008       31.664       29.019       24.956     1002.609      842.127      622.821        0.478        0.123       84.064       10.891        0.017      340.233       14.112      863.636
04/10/2014  09:30:00       47.165       26.858       21.925       72.217       48.804       25.513     5215.285     2381.826      650.934        0.584        0.412       54.276       20.517        0.143      340.590       14.717      863.648
04/10/2014  09:31:00      132.262       94.826       24.103       37.934       37.231       36.182     1438.973     1386.122     1309.135        1.560        0.207      162.742       22.071        0.018      340.094       13.878      863.659
04/10/2014  09:32:00       53.228       47.536        5.053       50.038       33.451       28.704     2503.840     1118.957      823.937        0.478        0.222       71.364       12.815        0.032      340.187       14.035      863.658
04/10/2014  09:33:00       88.967       42.775       18.503       60.335       41.213       36.636     3640.350     1698.496     1342.203        0.838        0.334       98.716       26.327        0.071      340.118       13.919      863.658
04/10/2014  09:34:00       58.694       39.127       13.526       55.657       37.985       28.004     3097.713     1442.895      784.226        0.524        0.266       70.540       14.153        0.040      340.468       14.510      863.639
04/10/2014  09:35:00       66.085      -13.181       29.089       53.893       58.544       41.003     2904.403     3427.407     1681.205        0.670        0.401       67.387       33.584        0.248      340.262       14.162      863.633
04/10/2014  09:36:00       32.410       20.665       25.348       32.510       20.360       20.838     1056.930      414.526      434.215        0.201        0.095       38.438       17.904        0.217      340.534       14.622      863.627
04/10/2014  09:37:00       43.626       52.183       27.957       54.006       27.890       34.355     2916.642      777.860     1180.278        0.514        0.244       68.017       30.446        0.200      340.306       14.236      863.618
04/10/2014  09:38:00       46.904       68.477       67.956       30.234       24.488       18.383      914.114      599.640      337.932        0.668        0.093       83.000       10.003        0.015      339.980       13.685      863.615
04/10/2014  09:39:00       53.451       43.827        4.637       22.641       25.698       27.362      512.598      660.392      748.666        0.336        0.096       69.122       11.972        0.030      339.915       13.574      863.613
04/10/2014  09:40:00       27.829       -8.527       17.167       32.494       24.827       24.404     1055.850      616.394      595.561        0.170        0.113       29.106       23.550        0.655      340.862       15.178      863.618
04/10/2014  09:41:00        8.323      -18.638       23.441       35.527       42.778       30.494     1262.201     1829.955      929.880        0.249        0.201       20.412       32.664        2.561      340.782       15.042      863.619
04/10/2014  09:42:00       38.673      -28.300       15.531       32.475       42.324       35.579     1054.647     1791.316     1265.866        0.332        0.206       47.922       30.106        0.395      339.986       13.697      863.631
04/10/2014  09:43:00       12.717       24.330       27.912       24.680       30.037       26.116      609.086      902.221      682.029        0.186        0.110       27.453       14.921        0.295      340.483       14.536      863.634
04/10/2014  09:44:00       28.449       -8.151       28.809       36.496       23.206       30.140     1331.959      538.506      908.411        0.224        0.139       29.594       20.469        0.478      340.509       14.580      863.644
04/10/2014  09:45:00       52.340       49.309       19.166       45.167       46.387       31.296     2040.092     2151.765      979.458        0.535        0.259       71.908       26.622        0.137      340.747       14.980      863.649
04/10/2014  09:46:00       18.001       37.827       29.072       41.817       40.257       29.627     1748.651     1620.642      877.738        0.342        0.212       41.891       26.928        0.413      341.019       15.441      863.659
04/10/2014  09:47:00       62.257       65.023       31.369       61.503       27.913       32.274     3782.596      779.137     1041.640        0.734        0.280       90.022       23.797        0.070      340.493       14.553      863.658
04/10/2014  09:48:00       76.232       80.024       68.454       64.808       38.223       38.724     4200.057     1461.003     1499.557        1.203        0.358      110.522       38.764        0.123      340.786       15.047      863.666
04/10/2014  09:49:00       60.837       60.978       15.311       43.183       22.949       30.425     1864.812      526.654      925.679        0.548        0.166       86.137       22.684        0.069      340.396       14.387      863.665
04/10/2014  09:50:00       -7.891        0.274       25.575       23.051       28.357       20.476      531.347      804.095      419.263        0.124        0.088        7.895       16.462        4.347      341.163       15.685      863.658
04/10/2014  09:51:00       23.537       11.151       38.407       30.337       33.179       32.954      920.309     1100.836     1085.981        0.263        0.155       26.045       17.181        0.435      341.212       15.768      863.651
04/10/2014  09:52:00       33.404       -9.648       42.193       43.411       65.356       35.176     1884.519     4271.369     1237.322        0.519        0.370       34.769       36.219        1.085      340.772       15.023      863.643
04/10/2014  09:53:00       42.418       -3.319       28.867       26.749       38.863       34.430      715.502     1510.316     1185.416        0.303        0.171       42.548       28.297        0.442      340.648       14.813      863.647
04/10/2014  09:54:00       -2.119       10.342       46.992       20.622       37.711       23.300      425.250     1422.115      542.912        0.235        0.120       10.557       17.145        2.637      341.536       16.317      863.652
04/10/2014  09:55:00        3.243       24.476       51.088       42.613       57.690       24.473     1815.893     3328.114      598.914        0.448        0.287       24.690       16.139        0.427      341.235       15.807      863.647
04/10/2014  09:56:00       72.181       71.134       48.984       56.594       51.386       28.812     3202.898     2640.545      830.156        0.967        0.334      101.342       13.875        0.019      340.803       15.078      863.668
04/10/2014  09:57:00       62.788       71.551       18.648       28.751       42.000       36.750      826.622     1763.997     1350.597        0.667        0.197       95.194       16.337        0.029      340.536       14.624      863.699
04/10/2014  09:58:00      -42.386       56.514      -28.473       65.419       19.894       18.052     4279.683      395.788      325.891        0.540        0.250       70.643       24.786        0.123      340.352       14.314      863.721
04/10/2014  09:59:00      -44.959       30.773       10.451       48.750       30.607       31.928     2376.608      936.798     1019.422        0.370        0.217       54.482       37.122        0.464      341.000       15.410      863.721
04/10/2014  10:00:00       73.105       50.261       44.012       66.704       48.035       29.671     4449.383     2307.338      880.379        0.872        0.382       88.716        8.612        0.009      341.212       15.768      863.744
04/10/2014  10:01:00      123.654       68.607       18.810       57.225       40.053       42.287     3274.740     1604.235     1788.183        1.351        0.333      141.412       26.609        0.035      340.637       14.795      863.753
04/10/2014  10:02:00      161.378       84.440       17.976       55.304       51.211       49.831     3058.485     2622.602     2483.086        2.083        0.408      182.134       27.637        0.023      340.661       14.834      863.763
04/10/2014  10:03:00      106.810       99.082       38.322       35.767       37.949       36.715     1279.284     1440.095     1348.006        1.338        0.203      145.690       17.830        0.015      340.814       15.094      863.777
04/10/2014  10:04:00      108.171       78.713       20.399       31.834       37.061       38.748     1013.435     1373.504     1501.440        1.110        0.194      133.779       22.893        0.029      340.793       15.060      863.791
04/10/2014  10:05:00       58.196       63.804       11.755       34.285       32.251       34.677     1175.450     1040.131     1202.508        0.551        0.171       86.358       20.049        0.054      340.919       15.272      863.798
04/10/2014  10:06:00       42.708       86.314        6.822       42.790       46.654       35.543     1831.003     2176.594     1263.313        0.729        0.264       96.302       27.579        0.082      340.981       15.377      863.797
04/10/2014  10:07:00       12.118      118.417      -20.557       24.675       29.127       18.529      608.869      848.371      343.329        0.820        0.090      119.036       12.595        0.011      340.814       15.095      863.790
04/10/2014  10:08:00       14.973       71.296       14.533       49.933       44.228       32.080     2493.308     1956.109     1029.141        0.550        0.274       72.851       29.972        0.169      341.511       16.277      863.791
04/10/2014  10:09:00       55.807       49.764       23.512       66.147       52.026       40.606     4375.384     2706.724     1648.814        0.744        0.437       74.772       16.981        0.052      341.293       15.906      863.776
04/10/2014  10:10:00       98.541       50.537       11.138       47.107       47.434       28.901     2219.031     2250.011      835.264        0.885        0.265      110.744       15.189        0.019      341.109       15.592      863.779
04/10/2014  10:11:00      -20.669       -6.446        1.950       60.392       29.487       20.413     3647.247      869.488      416.677        0.270        0.247       21.651       12.972        0.359      341.335       15.976      863.781
04/10/2014  10:12:00      -66.977      -20.515       -6.299       28.552       37.712       16.219      815.217     1422.226      263.048        0.372        0.125       70.048       17.512        0.063      341.102       15.582      863.773
04/10/2014  10:13:00      -37.121       -9.290        8.902       52.779       33.690       20.333     2785.673     1134.983      413.426        0.294        0.217       38.266       16.554        0.187      341.252       15.836      863.779
04/10/2014  10:14:00      -82.108      -52.271       -3.573       42.331       36.583       21.876     1791.948     1338.342      478.564        0.655        0.180       97.334       15.310        0.025      340.821       15.106      863.784
04/10/2014  10:15:00      -53.948      -46.190        6.472       50.996       50.348       32.088     2600.563     2534.964     1029.641        0.562        0.308       71.020       38.530        0.294      341.482       16.228      863.788
04/10/2014  10:16:00      -21.945       -1.972       10.858       41.377       39.907       30.901     1712.074     1592.532      954.842        0.243        0.213       22.034       33.579        2.322      341.169       15.695      863.794
04/10/2014  10:17:00       63.482     -129.297      -20.104       92.789       76.171       56.551     8609.778     5802.093     3198.060        1.938        0.880      144.041       48.780        0.115      341.326       15.960      863.786
04/10/2014  10:18:00       28.740      -21.784       59.276       57.691       87.647       69.455     3328.289     7681.961     4824.062        1.032        0.792       36.063       59.268        2.701      341.689       16.575      863.791
04/10/2014  10:19:00       22.897       18.432       79.199       38.384       46.906       26.892     1473.336     2200.199      723.160        0.577        0.220       29.394       21.860        0.553      341.491       16.240      863.796
04/10/2014  10:20:00       41.632       33.658       56.339       36.133       57.255       36.186     1305.565     3278.167     1309.426        0.597        0.295       53.536       36.196        0.457      341.108       15.593      863.806
04/10/2014  10:21:00       10.341      -53.176        2.299       36.905       76.005       31.673     1361.953     5776.834     1003.177        0.554        0.407       54.172       30.785        0.323      341.084       15.551      863.816
04/10/2014  10:22:00       47.436      -76.861       -0.947       45.461       55.211       41.176     2066.706     3048.261     1695.501        0.748        0.341       90.320       29.558        0.107      341.625       16.468      863.814
04/10/2014  10:23:00       41.404       22.587       60.533       55.100       83.509       55.280     3036.057     6973.786     3055.844        0.947        0.653       47.164       63.378        1.806      341.596       16.418      863.829
04/10/2014  10:24:00        7.209      -25.429       25.787       56.492      106.648       48.264     3191.389    11373.770     2329.397        0.913        0.845       26.431       64.868        6.023      341.511       16.274      863.835
04/10/2014  10:25:00       61.028      -96.660      -12.965       76.691       98.628       61.275     5881.499     9727.445     3754.649        1.630        0.968      114.314       59.568        0.272      341.736       16.653      863.832
04/10/2014  10:26:00       11.516      -81.215       28.577       58.090       72.625       59.900     3374.478     5274.410     3587.998        0.989        0.612       82.028       40.424        0.243      341.769       16.711      863.843
04/10/2014  10:27:00       13.233      -41.542       29.219       54.736       68.469       57.237     2995.981     4688.072     3276.121        0.686        0.548       43.599       52.180        1.432      341.860       16.866      863.845
04/10/2014  10:28:00      -80.980      -69.904       -5.300       66.076       61.326       37.548     4366.019     3760.822     1409.853        1.050        0.477      106.979        9.655        0.008      341.583       16.395      863.852
04/10/2014  10:29:00       13.074      -18.219       31.763       33.886       60.874       33.449     1148.286     3705.604     1118.858        0.374        0.299       22.425       23.165        1.067      341.966       17.047      863.853
04/10/2014  10:30:00       -9.438      -29.559       28.103       32.317       50.773       30.520     1044.359     2577.848      931.472        0.315        0.228       31.029       13.167        0.180      341.800       16.764      863.844
04/10/2014  10:31:00      -38.757      -74.561        4.387       52.976       38.763       40.077     2806.474     1502.601     1606.158        0.650        0.296       84.033       24.805        0.087      341.610       16.441      863.839
04/10/2014  10:32:00      -40.852      -55.912       24.790       40.309       55.348       32.132     1624.848     3063.443     1032.480        0.556        0.286       69.246       28.076        0.164      341.838       16.830      863.842
04/10/2014  10:33:00      -43.297      -71.983        0.047       55.007       39.526       26.477     3025.758     1562.270      701.029        0.617        0.264       84.001       17.491        0.043      341.594       16.415      863.839
04/10/2014  10:34:00      -71.836      -48.091       -1.420       28.175       40.045       24.625      793.832     1603.600      606.409        0.524        0.150       86.447       18.941        0.048      341.454       16.177      863.844
04/10/2014  10:35:00      -51.808      -52.851        0.164       42.721       57.143       31.085     1825.053     3265.295      966.304        0.577        0.303       74.009       10.978        0.022      341.830       16.814      863.839
04/10/2014  10:36:00      -41.313      -43.081        8.592       31.232       42.644       19.484      975.412     1818.527      379.613        0.340        0.159       59.689       20.854        0.122      341.969       17.053      863.839
04/10/2014  10:37:00      -73.100       11.474        6.954       42.265       43.494       27.560     1786.315     1891.770      759.565        0.498        0.222       73.995       19.568        0.070      341.665       16.536      863.835
04/10/2014  10:38:00      -49.613      -84.833       10.539       47.843       47.794       26.816     2288.939     2284.310      719.096        0.753        0.265       98.276       12.369        0.016      341.744       16.669      863.829
04/10/2014  10:39:00      -29.529      -88.835       -7.378       50.638       45.802       27.767     2564.187     2097.833      771.008        0.712        0.272       93.615       21.834        0.054      341.766       16.707      863.826
04/10/2014  10:40:00      -36.522      -35.297        3.801       35.783       33.778       22.705     1280.418     1140.937      515.496        0.276        0.147       50.791       13.415        0.070      342.076       17.233      863.816
04/10/2014  10:41:00      -50.386       -2.581       -4.695       31.745       39.745       20.788     1007.745     1579.686      432.160        0.279        0.151       50.452       15.760        0.098      341.628       16.475      863.815
04/10/2014  10:42:00      -71.445        9.278        7.334       26.707       25.437       23.668      713.242      647.050      560.195        0.358        0.096       72.045       13.705        0.036      341.694       16.584      863.802
04/10/2014  10:43:00      -33.399      -26.725        5.641       24.010       34.109       17.751      576.498     1163.399      315.095        0.196        0.103       42.775       10.165        0.056      341.697       16.591      863.805
04/10/2014  10:44:00       -9.219       24.526       22.880       22.888       23.692       29.160      523.859      561.314      850.309        0.157        0.097       26.202       12.531        0.229      342.471       17.906      863.786
04/10/2014  10:45:00      -23.533      -35.627       13.267       32.758       39.727       30.203     1073.113     1578.261      912.229        0.278        0.178       42.697       26.442        0.384      342.014       17.128      863.795
04/10/2014  10:46:00       -1.834      -21.508       35.263       27.784       37.797       25.760      771.966     1428.607      663.594        0.229        0.143       21.586       23.743        1.210      342.482       17.923      863.803
04/10/2014  10:47:00       13.387       30.024       22.778       30.595       21.348       21.519      936.041      455.728      463.060        0.173        0.093       32.874       12.210        0.138      342.059       17.204      863.801
04/10/2014  10:48:00       -9.329       22.078       34.762       17.816       17.449       32.164      317.415      304.454     1034.508        0.172        0.083       23.968       14.748        0.379      342.388       17.763      863.798
04/10/2014  10:49:00      -23.052      -36.841       -5.226       11.573       26.623       15.633      133.939      708.772      244.392        0.150        0.054       43.459       13.820        0.101      342.016       17.130      863.784
04/10/2014  10:50:00        6.236      -25.061       17.863       25.310       32.677       28.310      640.586     1067.768      801.456        0.175        0.125       25.825       19.595        0.576      342.330       17.666      863.771
04/10/2014  10:51:00       21.769       -4.871       27.756       24.767       52.592       33.517      613.411     2765.894     1123.405        0.288        0.225       22.307       33.474        2.252      342.242       17.515      863.762
04/10/2014  10:52:00       16.885       27.116       34.080       31.749       31.348       25.590     1008.008      982.714      654.854        0.241        0.132       31.943       27.138        0.722      341.943       17.008      863.752
04/10/2014  10:53:00       32.115       12.369       21.345       18.721       22.354       23.853      350.467      499.690      568.963        0.153        0.071       34.414        7.673        0.050      342.022       17.141      863.733
04/10/2014  10:54:00      -11.385       24.945      -18.754       33.261       37.875       17.499     1106.306     1434.539      306.210        0.197        0.142       27.421       14.578        0.283      341.951       17.020      863.726
04/10/2014  10:55:00      -15.691      -39.154       11.171       33.440       45.536       32.461     1118.267     2073.499     1053.701        0.307        0.212       42.181       32.444        0.592      342.451       17.871      863.718
04/10/2014  10:56:00      -13.285        1.640       41.055       46.525       40.590       32.701     2164.590     1647.524     1069.355        0.337        0.244       13.386       32.003        5.716      342.674       18.250      863.697
04/10/2014  10:57:00      -16.040        1.904       17.244       18.581       22.057       24.990      345.243      486.503      624.505        0.101        0.073       16.153       15.692        0.944      342.275       17.572      863.688
04/10/2014  10:58:00      -31.007        7.370       -3.325       35.227       35.750       24.614     1240.972     1278.068      605.852        0.208        0.156       31.871       21.529        0.456      342.375       17.742      863.684
04/10/2014  10:59:00      -56.593        5.663       -9.556       43.673       36.147       26.207     1907.339     1306.624      686.788        0.361        0.195       56.876       24.146        0.180      342.281       17.581      863.682
04/10/2014  11:00:00      -30.666       -4.886       22.827       41.786       45.368       45.270     1746.087     2058.260     2049.363        0.367        0.293       31.053       38.612        1.546      342.816       18.492      863.669
04/10/2014  11:01:00       -3.438       29.326       73.337       27.481       48.296       24.425      755.201     2332.508      596.569        0.497        0.184       29.527       28.922        0.959      342.781       18.433      863.676
04/10/2014  11:02:00       37.966      -37.440       -0.904       36.163       24.820       34.303     1307.740      616.038     1176.687        0.297        0.155       53.321       16.784        0.099      342.099       17.273      863.676
04/10/2014  11:03:00       73.773      -13.851       10.327       26.695       28.119       29.355      712.611      790.678      861.700        0.405        0.118       75.062        6.847        0.008      341.816       16.791      863.675
04/10/2014  11:04:00       76.319       54.850       20.460       47.642       36.235       36.486     2269.777     1312.969     1331.204        0.708        0.246       93.984       19.297        0.042      342.142       17.345      863.659
04/10/2014  11:05:00       90.970       75.614       12.839       40.919       29.305       30.711     1674.396      858.810      943.157        0.882        0.174      118.292       10.920        0.009      342.236       17.505      863.662
04/10/2014  11:06:00      130.746       81.699        6.283       59.038       46.363       37.547     3485.434     2149.549     1409.786        1.543        0.352      154.173        8.455        0.003      342.216       17.469      863.640
04/10/2014  11:07:00      117.958       97.423       14.341       48.542       38.406       41.664     2356.309     1474.999     1735.862        1.459        0.278      152.988       19.123        0.016      341.974       17.059      863.637
04/10/2014  11:08:00      129.424       90.558        9.438       62.108       46.916       37.991     3857.376     2201.113     1443.278        1.627        0.375      157.959       21.098        0.018      342.114       17.297      863.624
04/10/2014  11:09:00      153.934       88.002        2.613       89.336       56.958       42.419     7981.001     3244.173     1799.332        2.223        0.651      177.314       31.075        0.031      342.363       17.720      863.608
04/10/2014  11:10:00       78.639       99.844        9.684       62.364       42.544       34.627     3889.263     1809.991     1199.015        1.157        0.345      127.094       19.177        0.023      342.463       17.889      863.602
04/10/2014  11:11:00       33.966       63.517       19.582       49.137       53.233       40.405     2414.475     2833.738     1632.581        0.622        0.344       72.029       32.564        0.204      342.934       18.693      863.593
04/10/2014  11:12:00       98.246       39.017        9.123       35.131       39.546       34.728     1234.180     1563.867     1206.005        0.763        0.200      105.710       12.220        0.013      342.399       17.782      863.590
04/10/2014  11:13:00       29.832       45.751       -0.410       23.955       16.104       27.967      573.843      259.329      782.158        0.230        0.081       54.618       12.460        0.052      342.126       17.317      863.583
04/10/2014  11:14:00       50.227       19.105        3.977       41.859       29.806       24.435     1752.146      888.405      597.071        0.307        0.162       53.737       10.262        0.036      342.529       18.003      863.575
04/10/2014  11:15:00       60.542       58.900        6.261       64.211       43.279       36.077     4123.051     1873.090     1301.570        0.723        0.365       84.466       21.591        0.065      342.527       18.000      863.562
04/10/2014  11:16:00       48.830       42.110       17.128       56.854       28.701       29.789     3232.392      823.750      887.359        0.470        0.247       64.480       21.661        0.113      343.086       18.951      863.564
04/10/2014  11:17:00      152.354       70.908        5.552       81.376       64.199       46.475     6622.042     4121.535     2159.911        2.058        0.645      168.047       21.910        0.017      342.542       18.024      863.537
04/10/2014  11:18:00       66.895       72.490        1.448       75.216       52.891       37.586     5657.499     2797.461     1412.737        0.980        0.493       98.639       27.995        0.081      342.771       18.413      863.531
04/10/2014  11:19:00       46.136       23.857       39.723       64.689       51.477       48.010     4184.662     2649.864     2304.912        0.671        0.457       51.939       43.082        0.688      343.156       19.069      863.507
04/10/2014  11:20:00       30.095       53.791       86.061       67.478       77.687       62.178     4553.314     6035.239     3866.079        1.283        0.723       61.638       54.483        0.781      342.932       18.688      863.487
04/10/2014  11:21:00      107.788       64.089       50.410       76.895       50.675       55.307     5912.872     2567.964     3058.865        1.490        0.577      125.402       42.281        0.114      342.303       17.617      863.472
04/10/2014  11:22:00       46.410       56.811       81.626       77.251      109.610       58.796     5967.783    12014.319     3456.985        1.674        1.072       73.358       68.138        0.863      342.703       18.298      863.460
04/10/2014  11:23:00       88.902     -100.170        5.268       74.588      116.443       64.677     5563.361    13559.010     4183.123        2.063        1.165      133.932       62.506        0.218      342.777       18.422      863.443
04/10/2014  11:24:00       66.678     -150.709      -17.815       67.033       63.257       45.079     4493.475     4001.497     2032.077        1.900        0.526      164.800       39.398        0.057      342.431       17.836      863.448
04/10/2014  11:25:00       15.047      -49.514       31.597       42.421       74.541       44.890     1799.566     5556.392     2015.116        0.652        0.469       51.750       47.565        0.845      342.880       18.600      863.425
04/10/2014  11:26:00       83.408       85.398       60.529       88.127       52.428       52.189     7766.387     2748.742     2723.713        1.557        0.662      119.371       33.286        0.078      342.756       18.387      863.405
04/10/2014  11:27:00       64.573       82.855       57.702       55.191       49.365       29.153     3046.071     2436.858      849.887        1.035        0.317      105.046       11.258        0.011      342.762       18.399      863.399
04/10/2014  11:28:00       32.048       45.428       17.508       23.066       22.190       25.728      532.060      492.379      661.914        0.254        0.084       55.595       15.359        0.076      342.331       17.666      863.392
04/10/2014  11:29:00       36.031       14.100       11.790       49.164       29.157       20.546     2417.100      850.113      422.123        0.266        0.184       38.691       18.033        0.217      342.900       18.632      863.373
04/10/2014  11:30:00       61.258       68.937       51.868       64.063       68.297       57.270     4104.123     4664.534     3279.818        1.162        0.602       92.222       40.844        0.196      342.628       18.170      863.358
04/10/2014  11:31:00       34.135       68.987       60.987       64.822       64.941       63.455     4201.950     4217.388     4026.530        1.104        0.622       76.970       52.656        0.468      342.306       17.625      863.352
04/10/2014  11:32:00       38.020      -35.326       22.526       34.514       45.072       30.730     1191.187     2031.465      944.348        0.368        0.208       51.899       25.620        0.244      342.365       17.724      863.343
04/10/2014  11:33:00       27.896       24.212       35.588       28.082       47.133       42.120      788.604     2221.515     1774.083        0.371        0.239       36.938       24.576        0.443      342.469       17.901      863.334
04/10/2014  11:34:00       26.928       -7.519       38.380       38.811       40.362       24.708     1506.295     1629.060      610.495        0.300        0.187       27.958       29.354        1.102      342.614       18.147      863.314
04/10/2014  11:35:00       10.207      -24.109       24.209       17.130       30.604       27.263      293.432      936.622      743.281        0.162        0.099       26.181       16.689        0.406      342.928       18.681      863.291
04/10/2014  11:36:00      -16.694        0.524       30.793       21.457       17.601       12.908      460.422      309.803      166.624        0.108        0.047       16.702       13.203        0.625      343.315       19.342      863.280
04/10/2014  11:37:00       10.429      -35.387      -10.610       19.844       15.374       17.263      393.775      236.346      298.025        0.120        0.046       36.892       11.104        0.091      342.593       18.112      863.260
04/10/2014  11:38:00       37.090        1.855       30.672       30.220       33.019       27.320      913.224     1090.287      746.379        0.253        0.137       37.137       18.131        0.238      343.083       18.946      863.247
04/10/2014  11:39:00       -9.686       46.593       81.592       52.176       91.797       78.188     2722.355     8426.699     6113.375        1.309        0.863       47.589       70.235        2.178      343.068       18.920      863.216
04/10/2014  11:40:00       73.994       78.837      126.988       99.092       96.648       77.191     9819.262     9340.882     5958.472        2.646        1.256      108.122       76.871        0.505      342.721       18.327      863.182
04/10/2014  11:41:00       71.740      105.883       84.776       63.407       64.861       55.249     4020.404     4206.955     3052.486        1.741        0.564      127.898       38.091        0.089      343.088       18.952      863.179
04/10/2014  11:42:00       92.215      124.675       95.198       72.705       52.362       57.651     5285.955     2741.737     3323.601        2.223        0.568      155.072       45.244        0.085      342.561       18.055      863.177
04/10/2014  11:43:00       54.135       22.138       75.195       89.979       99.018       68.172     8096.164     9804.650     4647.468        1.581        1.127       58.486       78.000        1.779      342.787       18.440      863.167
04/10/2014  11:44:00       87.832       59.454       28.130       52.327       47.847       32.313     2738.118     2289.351     1044.161        0.905        0.304      106.062       22.833        0.046      342.638       18.187      863.176
04/10/2014  11:45:00      110.281       69.176       31.930       59.873       56.797       45.626     3584.802     3225.891     2081.747        1.343        0.445      130.181       29.522        0.051      343.017       18.831      863.156
04/10/2014  11:46:00       65.976       14.642        4.690       61.787       49.965       33.404     3817.644     2496.476     1115.827        0.601        0.371       67.581        6.935        0.011      343.147       19.054      863.145
04/10/2014  11:47:00       13.198      -15.575       22.546       66.782       81.453       31.389     4459.804     6634.654      985.243        0.650        0.604       20.415       38.936        3.638      343.333       19.371      863.130
04/10/2014  11:48:00       77.515       18.688       20.340       43.065       92.325       42.453     1854.581     8523.853     1802.291        0.947        0.609       79.736       40.851        0.262      343.049       18.887      863.118
04/10/2014  11:49:00      -18.445      -69.615       13.768       67.642      101.666       37.078     4575.475    10335.955     1374.744        1.083        0.814       72.018       43.001        0.357      343.412       19.505      863.105
04/10/2014  11:50:00        3.649        5.354       37.383       35.095       36.539       31.465     1231.643     1335.091      990.045        0.250        0.178        6.479       16.207        6.257      343.729       20.046      863.088
04/10/2014  11:51:00       27.293      -36.734       24.010       62.912       88.797       71.321     3957.950     7884.852     5086.630        0.980        0.846       45.763       68.554        2.244      343.475       19.614      863.066
04/10/2014  11:52:00       -6.531        2.926       53.479       29.295       50.255       36.473      858.193     2525.580     1330.299        0.381        0.236        7.157       26.421       13.628      343.557       19.753      863.066
04/10/2014  11:53:00       -0.655      -97.921       -7.852       42.771       56.936       40.322     1829.388     3241.676     1625.873        0.817        0.335       97.923        6.975        0.005      343.035       18.862      863.049
04/10/2014  11:54:00       10.452       -6.559       22.907       41.731       39.456       27.146     1741.491     1556.749      736.896        0.236        0.202       12.339       22.829        3.423      343.310       19.334      863.026
04/10/2014  11:55:00       42.165       38.127       82.592       64.882      108.595       63.434     4209.671    11792.931     4023.928        1.504        1.001       56.846       71.589        1.586      343.284       19.286      863.003
04/10/2014  11:56:00       27.495       41.326       64.112       46.487       87.901       68.721     2161.012     7726.521     4722.638        1.059        0.731       49.637       73.596        2.198      342.842       18.535      862.989
04/10/2014  11:57:00        3.737      -36.533       -1.369       47.651       42.777       35.662     2270.654     1829.854     1271.806        0.336        0.269       36.723       29.465        0.644      343.198       19.141      862.988
04/10/2014  11:58:00       10.103      -90.976       11.035       65.365       49.261       39.450     4272.557     2426.639     1556.308        0.838        0.413       91.535       23.165        0.064      343.363       19.422      862.955
04/10/2014  11:59:00      -88.981      -86.987       -6.467       50.680       41.994       33.405     2568.474     1763.478     1115.893        1.049        0.272      124.436       24.183        0.038      343.037       18.867      862.931
04/10/2014  12:00:00      -60.115       11.924       22.969       37.249       42.427       27.115     1387.515     1800.032      735.246        0.410        0.196       61.287       25.211        0.169      343.181       19.112      862.914
04/10/2014  12:01:00       19.670      -15.532       33.126       36.357       35.369       29.375     1321.834     1250.946      862.873        0.258        0.172       25.063       24.629        0.966      343.484       19.629      862.891
04/10/2014  12:02:00       24.052       13.946       20.490       30.105       32.079       33.258      906.282     1029.036     1106.118        0.212        0.152       27.803       18.533        0.444      343.186       19.120      862.849
04/10/2014  12:03:00      -24.937       38.745       -7.534       29.859       32.197       28.204      891.589     1036.663      795.475        0.245        0.136       46.076       18.156        0.155      343.239       19.211      862.825
04/10/2014  12:04:00       64.361      -46.296       12.566       55.449       63.881       36.967     3074.600     4080.841     1366.590        0.748        0.426       79.282       38.089        0.231      343.320       19.348      862.811
04/10/2014  12:05:00       42.880      -61.265       15.091       56.783       69.054       56.346     3224.268     4768.481     3174.829        0.849        0.558       74.780       38.936        0.271      343.672       19.950      862.774
04/10/2014  12:06:00       71.030      -67.855       23.468       80.774      105.855       69.340     6524.423    11205.216     4808.000        1.636        1.127       98.233       57.583        0.344      343.665       19.934      862.758
04/10/2014  12:07:00      134.711     -103.242       14.736      106.580      144.142       80.044    11359.342    20776.838     6407.010        3.378        1.927      169.723       90.487        0.284      343.453       19.574      862.744
04/10/2014  12:08:00       98.911      -97.321       27.035       79.510      112.098       71.616     6321.888    12565.932     5128.780        2.200        1.201      138.762       80.457        0.336      343.484       19.627      862.758
04/10/2014  12:09:00       50.823     -138.645      -17.409       48.237       54.834       33.582     2326.845     3006.760     1127.733        1.428        0.323      147.667       29.034        0.039      343.081       18.940      862.760
04/10/2014  12:10:00       29.365      -37.083       11.441       60.866       46.702       41.645     3704.675     2181.091     1734.301        0.499        0.381       47.302       38.338        0.657      343.606       19.837      862.734
04/10/2014  12:11:00        4.248       -8.471       18.051       25.187       42.190       30.285      634.398     1779.963      917.206        0.187        0.167        9.476       25.515        7.250      343.841       20.238      862.712
04/10/2014  12:12:00       61.530      -64.075      -15.025       54.898       73.048       29.620     3013.838     5335.988      877.315        0.867        0.461       88.834       29.893        0.113      343.143       19.047      862.711
04/10/2014  12:13:00      -35.106        7.915      -12.617       21.527       47.345       20.265      463.430     2241.529      410.654        0.228        0.156       35.987        8.007        0.050      343.192       19.130      862.682
04/10/2014  12:14:00       -2.036      -12.191       21.469       33.163       62.678       36.616     1099.761     3928.518     1340.758        0.349        0.318       12.359       14.196        1.319      344.063       20.617      862.673
04/10/2014  12:15:00       84.785      -92.589      -20.855       81.512      104.995       60.183     6644.261    11023.861     3621.936        1.874        1.065      125.544       67.955        0.293      343.588       19.803      862.661
04/10/2014  12:16:00       25.580      -67.979        6.448       45.121       57.848       37.144     2035.887     3346.334     1379.686        0.604        0.338       72.632       27.154        0.140      343.742       20.069      862.636
04/10/2014  12:17:00        2.264      -66.635        7.481       50.188       73.703       41.854     2518.794     5432.168     1751.793        0.710        0.485       66.673       30.488        0.209      343.833       20.225      862.616
04/10/2014  12:18:00      -19.189       18.499       59.080       33.594       42.031       24.072     1128.539     1766.628      579.450        0.384        0.174       26.654       27.771        1.086      344.054       20.601      862.620
04/10/2014  12:19:00       27.132      -14.300       12.001       46.440       25.832       23.368     2156.641      667.299      546.065        0.223        0.169       30.670       23.961        0.610      343.553       19.744      862.616
04/10/2014  12:20:00      -21.971      -28.652       21.766       34.851       42.020       37.228     1214.573     1765.705     1385.958        0.307        0.218       36.106       35.796        0.983      344.053       20.598      862.596
04/10/2014  12:21:00       18.821       27.221       24.741       23.810       35.654       42.018      566.926     1271.209     1765.548        0.265        0.180       33.094       30.835        0.868      343.400       19.486      862.593
04/10/2014  12:22:00       -3.229      -21.033       -1.803       25.876       19.932       25.011      669.579      397.291      625.548        0.107        0.085       21.279        9.956        0.219      343.131       19.027      862.569
04/10/2014  12:23:00       44.633      -37.076       13.618       37.938       41.926       31.596     1439.329     1757.805      998.298        0.387        0.210       58.024       26.185        0.204      343.430       19.537      862.549
04/10/2014  12:24:00       65.496       47.341       87.866       70.794       53.210       47.744     5011.812     2831.303     2279.507        1.218        0.506       80.814       37.050        0.210      343.408       19.499      862.522
04/10/2014  12:25:00       40.043       91.436      137.373       88.751       98.311       82.593     7876.752     9664.957     6821.649        2.659        1.218       99.820       86.964        0.759      343.655       19.919      862.504
04/10/2014  12:26:00       58.128       65.810       86.385       93.912      116.036       65.252     8819.477    13464.289     4257.883        2.085        1.327       87.806       68.272        0.605      343.907       20.347      862.495
04/10/2014  12:27:00       32.145       69.025      111.407       60.738       65.898       48.200     3689.068     4342.587     2323.241        1.428        0.518       76.143       42.467        0.311      343.542       19.728      862.508
04/10/2014  12:28:00       67.427      -84.997       14.953       43.670       50.939       41.034     1907.048     2594.793     1683.762        0.909        0.309      108.494       33.415        0.095      343.524       19.696      862.488
04/10/2014  12:29:00       25.478      -29.226       49.417       46.685       78.625       42.664     2179.534     6181.873     1820.181        0.706        0.509       38.772       49.647        1.640      344.231       20.904      862.474
04/10/2014  12:30:00      -41.394        2.618       18.088       40.526       51.779       46.993     1642.352     2681.084     2208.359        0.429        0.327       41.476       34.338        0.685      344.151       20.766      862.469
04/10/2014  12:31:00       -6.952        4.900       44.220       40.509       39.489       35.898     1640.959     1559.348     1288.670        0.326        0.224        8.505       33.909       15.895      344.102       20.685      862.479
04/10/2014  12:32:00        8.039       25.396       31.853       45.499       55.421       28.906     2070.120     3071.493      835.574        0.385        0.299       26.638       16.403        0.379      343.882       20.307      862.489
04/10/2014  12:33:00       74.686       12.112       40.790       69.874       78.157       45.239     4882.346     6108.456     2046.561        1.021        0.652       75.661       35.307        0.218      343.736       20.059      862.476
04/10/2014  12:34:00      107.220       65.132       70.568      100.945       99.725       71.694    10189.931     9945.135     5139.960        2.299        1.264      125.452       62.396        0.247      343.358       19.410      862.459
04/10/2014  12:35:00       82.827       60.697       21.506       45.486       35.885       32.104     2068.999     1287.743     1030.642        0.770        0.219      102.686       19.333        0.035      343.491       19.639      862.474
04/10/2014  12:36:00       45.220       17.209       -4.332       44.471       43.651       32.610     1977.667     1905.419     1063.428        0.365        0.247       48.384       30.036        0.385      343.436       19.546      862.468
04/10/2014  12:37:00      132.620       48.757       33.941       66.531       57.694       46.366     4426.348     3328.580     2149.835        1.551        0.495      141.298       31.125        0.049      343.718       20.026      862.460
04/10/2014  12:38:00       64.511       60.488       29.838       39.256       47.805       34.633     1541.001     2285.362     1199.431        0.687        0.251       88.433       18.599        0.044      343.930       20.391      862.469
04/10/2014  12:39:00      104.874      -29.716       16.429       56.632       56.867       33.851     3207.149     3233.910     1145.903        0.987        0.379      109.003       23.736        0.047      343.241       19.214      862.468
04/10/2014  12:40:00       29.488        8.588       48.132       49.254       51.951       29.225     2425.912     2698.879      854.127        0.462        0.299       30.713       37.200        1.467      343.896       20.331      862.473
04/10/2014  12:41:00       15.943      -23.088       20.523       50.225       58.652       50.700     2522.530     3440.021     2570.509        0.487        0.427       28.058       24.948        0.791      343.899       20.335      862.471
04/10/2014  12:42:00       32.449      -81.200        1.684       67.853       76.403       53.518     4604.087     5837.356     2864.175        1.047        0.665       87.444       32.283        0.136      343.969       20.454      862.450
04/10/2014  12:43:00       23.933     -192.674      -19.782       90.108      153.162       48.765     8119.466    23458.631     2378.045        3.602        1.698      194.155       48.395        0.062      343.944       20.410      862.434
04/10/2014  12:44:00      199.701     -336.776      -46.660      100.100      124.290       70.292    10020.098    15447.949     4940.941        9.294        1.520      391.534       58.534        0.022      343.863       20.270      862.379
04/10/2014  12:45:00       61.007      -17.227       72.902       68.055      168.598       85.183     4631.503    28425.228     7256.213        2.482        2.016       63.392      104.693        2.727      344.153       20.768      862.410
04/10/2014  12:46:00       19.969      -43.516       41.954       51.874       62.353       46.329     2690.902     3887.921     2146.381        0.639        0.436       47.879       36.303        0.575      344.146       20.757      862.434
04/10/2014  12:47:00       48.103       32.139       11.106       62.270       60.891       37.225     3877.497     3707.705     1385.702        0.622        0.449       57.852       32.832        0.322      344.242       20.922      862.433
04/10/2014  12:48:00       62.802       43.392       32.782       70.139       48.540       38.553     4919.463     2356.150     1486.333        0.783        0.438       76.334       29.929        0.154      344.529       21.412      862.429
04/10/2014  12:49:00      145.272      129.223       69.566       57.167       62.596       59.574     3268.075     3918.217     3549.015        2.669        0.537      194.429       38.672        0.040      344.000       20.506      862.429
04/10/2014  12:50:00      145.709      101.640       70.023       95.846       58.869       68.897     9186.527     3465.548     4746.851        2.693        0.870      177.656       58.563        0.109      344.263       20.956      862.434
04/10/2014  12:51:00      144.811      116.119       77.740       59.121       56.103       60.210     3495.315     3147.532     3625.186        2.538        0.513      185.618       33.691        0.033      344.215       20.872      862.433
04/10/2014  12:52:00       74.507       59.110       58.100       72.111       84.443       60.334     5200.038     7130.548     3640.214        1.419        0.799       95.107       58.506        0.378      344.531       21.415      862.442
04/10/2014  12:53:00       60.128      -36.197       20.916       45.401       95.078       53.172     2061.210     9039.878     2827.241        0.964        0.696       70.182       53.593        0.583      343.848       20.248      862.464
04/10/2014  12:54:00      120.894       38.994       58.051      101.784       63.263       55.060    10359.997     4002.208     3031.620        1.845        0.870      127.027       43.158        0.115      343.313       19.335      862.445
04/10/2014  12:55:00      131.944      121.000      109.836       85.585       88.993       75.913     7324.812     7919.786     5762.770        3.256        1.050      179.026       52.641        0.086      343.627       19.868      862.435
04/10/2014  12:56:00       57.441       34.196       36.612       64.096       67.458       61.242     4108.306     4550.598     3750.631        0.911        0.620       66.849       51.552        0.595      343.422       19.522      862.452
04/10/2014  12:57:00       23.718      -48.643        3.300       44.021       42.927       27.841     1937.838     1842.731      775.102        0.375        0.228       54.117       20.990        0.150      343.537       19.718      862.424
04/10/2014  12:58:00       56.026       -8.885       -0.257       35.126       40.417       24.622     1233.805     1633.508      606.251        0.335        0.174       56.726       16.261        0.082      343.580       19.792      862.396
04/10/2014  12:59:00        8.390      -22.612       39.904       48.928       77.825       51.190     2393.988     6056.695     2620.454        0.662        0.554       24.119       39.949        2.744      344.152       20.768      862.368
04/10/2014  13:00:00       23.761       38.106      101.385       56.270      106.025       58.337     3166.344    11241.206     3403.165        1.505        0.891       44.907       67.812        2.280      344.363       21.128      862.363
04/10/2014  13:01:00       97.516       31.711       71.462       81.258      112.637       66.433     6602.870    12687.195     4413.347        1.966        1.185      102.543       62.763        0.375      344.251       20.937      862.328
04/10/2014  13:02:00       40.901       38.705       71.905       54.486       67.826       35.691     2968.743     4600.328     1273.850        0.859        0.442       56.311       30.956        0.302      344.403       21.198      862.331
04/10/2014  13:03:00      145.146       80.380       67.630      109.983       87.079       60.943    12096.328     7582.839     3714.036        2.774        1.170      165.917       51.633        0.097      344.092       20.664      862.328
04/10/2014  13:04:00       45.339       69.633       93.749       57.606       73.183       48.539     3318.479     5355.768     2356.020        1.336        0.552       83.093       45.893        0.305      344.031       20.562      862.317
04/10/2014  13:05:00       41.389       48.370       22.573       77.742       44.708       39.565     6043.839     1998.793     1565.370        0.708        0.480       63.661       26.035        0.167      344.485       21.338      862.293
04/10/2014  13:06:00      -10.432       -4.948       46.870       33.360       56.524       33.446     1112.913     3195.009     1118.638        0.388        0.271       11.545       29.916        6.714      344.764       21.815      862.285
04/10/2014  13:07:00       54.715      -13.756       -5.010       41.095       87.884       38.303     1688.802     7723.677     1467.135        0.704        0.544       56.417       38.270        0.460      343.933       20.395      862.283
04/10/2014  13:08:00        5.876      -27.649       27.855       34.477       60.184       34.962     1188.636     3622.070     1222.332        0.380        0.302       28.266       25.945        0.843      344.322       21.059      862.273
04/10/2014  13:09:00       43.688      100.560       17.988       66.238       59.440       44.808     4387.489     3533.096     2007.769        1.113        0.496      109.640       35.756        0.106      344.593       21.521      862.269
04/10/2014  13:10:00      110.803      109.302       -7.761       68.927       56.392       49.561     4750.932     3180.018     2456.289        1.733        0.519      155.641       33.802        0.047      344.568       21.479      862.269
04/10/2014  13:11:00       87.898       72.172       11.181       61.551       57.380       51.261     3788.543     3292.435     2627.662        1.138        0.485      113.732       30.712        0.073      344.516       21.389      862.274
04/10/2014  13:12:00      186.463       55.801       12.307      101.798       68.425       63.629    10362.757     4681.998     4048.635        2.856        0.955      194.633       40.495        0.043      344.494       21.351      862.257
04/10/2014  13:13:00      202.954      101.350       29.244       81.162       66.888       51.221     6587.283     4473.952     2623.624        3.300        0.684      226.852       29.487        0.017      344.139       20.744      862.255
04/10/2014  13:14:00      104.866       94.383       20.999       91.435       79.228       58.403     8360.416     6277.036     3410.966        1.919        0.902      141.086       45.177        0.103      344.249       20.934      862.243
04/10/2014  13:15:00       93.578       85.837       10.848       47.838       42.969       40.819     2288.518     1846.309     1666.224        1.102        0.290      126.983       28.193        0.049      344.097       20.675      862.255
04/10/2014  13:16:00       41.562       59.573       13.966       49.826       23.304       24.674     2482.626      543.098      608.795        0.455        0.182       72.639       10.139        0.019      344.206       20.859      862.241
04/10/2014  13:17:00      -12.357       70.667        0.047       21.597       49.773       22.136      466.431     2477.318      490.005        0.429        0.172       71.740       26.270        0.134      344.622       21.571      862.223
04/10/2014  13:18:00       -9.319       59.053        2.689       31.842       60.018       30.642     1013.943     3602.180      938.956        0.457        0.278       59.783       33.691        0.318      344.563       21.471      862.213
04/10/2014  13:19:00      -12.361      -33.598       15.118       23.917       33.296       16.812      572.043     1108.619      282.659        0.174        0.098       35.800       11.969        0.112      344.726       21.749      862.204
04/10/2014  13:20:00      -27.874       74.254        6.344       37.585       50.758       32.669     1412.609     2576.332     1067.256        0.569        0.253       79.313       17.424        0.048      344.495       21.354      862.191
04/10/2014  13:21:00     -122.354       54.388      -26.731       38.571       40.570       25.591     1487.710     1645.961      654.885        1.122        0.189      133.898       10.222        0.006      344.060       20.609      862.187
04/10/2014  13:22:00     -165.457      -24.557      -27.177       35.462       68.461       27.467     1257.523     4686.918      754.433        1.771        0.335      167.269       27.028        0.026      343.795       20.159      862.172
04/10/2014  13:23:00     -156.788      -68.029      -30.295       38.670       36.897       21.009     1495.348     1361.414      441.373        1.671        0.165      170.911       16.210        0.009      343.919       20.369      862.165
04/10/2014  13:24:00     -100.137      -36.736        3.805       55.094       36.931       35.966     3035.361     1363.887     1293.550        0.854        0.285      106.663       28.796        0.073      344.438       21.258      862.152
04/10/2014  13:25:00      -73.849      -47.153       10.033       49.448       63.188       32.546     2445.118     3992.781     1059.260        0.764        0.375       87.620       33.780        0.149      344.380       21.158      862.136
04/10/2014  13:26:00      -58.882      -19.681        8.800       46.715       26.618       23.755     2182.283      708.542      564.292        0.369        0.173       62.084       14.388        0.054      344.449       21.275      862.112
04/10/2014  13:27:00       -6.103      -15.564       33.233       46.031       30.172       21.241     2118.856      910.366      451.173        0.243        0.174       16.718       21.289        1.622      344.992       22.204      862.108
04/10/2014  13:28:00       73.012      -48.938        2.381       59.727       41.978       40.968     3567.354     1762.171     1678.383        0.737        0.350       87.896       34.073        0.150      344.185       20.826      862.099
04/10/2014  13:29:00       30.808      -65.440      -25.466       29.064       35.506       21.831      844.725     1260.681      476.574        0.423        0.129       72.329        9.430        0.017      344.167       20.794      862.084
04/10/2014  13:30:00      -34.124      -11.651       -6.054       33.743       70.833       27.286     1138.558     5017.368      744.547        0.412        0.345       36.058       32.915        0.833      344.598       21.530      862.093
04/10/2014  13:31:00        8.741       14.392       38.093       26.279       19.966       21.319      690.586      398.642      454.495        0.164        0.077       16.838       14.050        0.696      345.167       22.505      862.085
04/10/2014  13:32:00        3.755       -2.563       10.742       27.461       45.447       27.679      754.081     2065.429      766.122        0.186        0.179        4.546       12.184        7.182      344.582       21.503      862.076
04/10/2014  13:33:00       67.228      -23.264       23.356       28.051       33.192       36.988      786.849     1101.741     1368.091        0.443        0.163       71.140       27.154        0.146      344.362       21.128      862.072
04/10/2014  13:34:00       46.346       -3.589       17.016       29.549       53.208       31.902      873.132     2831.081     1017.746        0.359        0.236       46.485       26.473        0.324      344.240       20.919      862.049
04/10/2014  13:35:00      144.778     -160.011      -25.677       76.684       90.013       44.055     5880.403     8102.375     1940.818        3.157        0.796      215.787       46.444        0.046      344.436       21.251      862.020
04/10/2014  13:36:00       46.604      -98.116       -2.772       54.710       71.165       34.087     2993.139     5064.520     1161.908        1.051        0.461      108.622       40.495        0.139      344.434       21.251      862.007
04/10/2014  13:37:00       21.492      -22.246       18.522       54.120       73.674       47.852     2928.994     5427.878     2289.857        0.597        0.532       30.932       45.041        2.120      345.058       22.318      861.994
04/10/2014  13:38:00       51.368      -46.101       17.351       66.201       85.522       49.992     4382.615     7314.037     2499.180        0.963        0.710       69.021       53.642        0.604      344.675       21.662      861.988
04/10/2014  13:39:00      119.030      -15.469       36.066       78.637      104.153       68.907     6183.734    10847.836     4748.116        1.874        1.089      120.031       71.643        0.356      344.749       21.787      861.959
04/10/2014  13:40:00       98.916      -29.917       73.348       99.503      142.114       80.488     9900.792    20196.498     6478.331        2.631        1.829      103.341       95.457        0.853      344.806       21.884      861.961
04/10/2014  13:41:00      179.993       71.316       75.049       73.344      104.274       60.822     5379.272    10873.058     3699.309        3.153        0.998      193.607       58.707        0.092      344.352       21.107      861.948
04/10/2014  13:42:00      112.233       91.694      106.433      103.108       75.370       63.187    10631.263     5680.666     3992.637        2.631        1.015      144.928       62.268        0.185      344.603       21.536      861.938
04/10/2014  13:43:00       55.146      -64.524       19.752       80.533       91.076       47.142     6485.615     8294.832     2222.396        1.230        0.850       84.878       34.231        0.163      344.573       21.487      861.937
04/10/2014  13:44:00       69.416      -15.765       59.386       97.425      104.849       64.894     9491.591    10993.318     4211.223        1.664        1.235       71.184       81.367        1.307      344.786       21.851      861.920
04/10/2014  13:45:00       42.904      -66.325       36.223       66.623       85.681       51.197     4438.659     7341.207     2621.130        1.097        0.720       78.992       49.984        0.400      344.714       21.729      861.920
04/10/2014  13:46:00       21.995       42.263       82.431       60.800       94.319       68.331     3696.700     8896.066     4669.073        1.316        0.863       47.644       61.847        1.685      344.893       22.034      861.893
04/10/2014  13:47:00       58.290       99.238       60.817       59.065       54.292       63.172     3488.721     2947.656     3990.761        1.368        0.521      115.091       31.912        0.077      344.364       21.129      861.894
04/10/2014  13:48:00       -6.030      -25.632       -9.383       34.834       61.837       21.726     1213.430     3823.835      472.017        0.314        0.275       26.332       11.579        0.193      344.822       21.913      861.870
04/10/2014  13:49:00      -17.887      -69.332       16.862       46.137       33.436       33.032     2128.577     1117.980     1091.144        0.487        0.217       71.602        5.963        0.007      344.764       21.814      861.843
04/10/2014  13:50:00      -12.665       -3.783        2.375       53.281       34.295       35.106     2838.904     1176.124     1232.416        0.271        0.262       13.218       16.711        1.598      345.219       22.593      861.810
04/10/2014  13:51:00       18.786      -39.263        6.087       54.735       43.393       42.807     2995.971     1882.964     1832.421        0.432        0.336       43.526       27.288        0.393      344.940       22.115      861.805
04/10/2014  13:52:00        3.568       14.268       94.573       39.457       91.225       54.077     1556.828     8321.997     2924.294        1.098        0.640       14.708       61.069       17.241      345.152       22.480      861.790
04/10/2014  13:53:00      121.758       83.437       37.478      108.977       62.158       43.527    11875.999     3863.641     1894.600        2.041        0.882      147.603       34.441        0.054      344.885       22.020      861.780
04/10/2014  13:54:00       75.611      -32.835       19.808       95.871      128.201       53.478     9191.232    16435.455     2859.896        1.783        1.424       82.432       37.059        0.202      345.246       22.638      861.776
04/10/2014  13:55:00       57.600        6.748       74.532       68.118      100.507       74.328     4640.052    10101.590     5524.709        1.459        1.013       57.994       64.056        1.220      345.570       23.195      861.769
04/10/2014  13:56:00      112.276       13.847       67.416      134.515      149.228       80.829    18094.207    22269.026     6533.311        3.211        2.345      113.127       86.667        0.587      345.186       22.535      861.768
04/10/2014  13:57:00       14.403       47.187       87.630       58.691       86.471       62.224     3444.691     7477.312     3871.816        1.245        0.740       49.336       56.594        1.316      345.220       22.594      861.782
04/10/2014  13:58:00       96.690     -110.034        9.156       79.848      167.169       73.870     6375.783    27945.635     5456.797        3.065        1.989      146.480       84.100        0.330      344.970       22.166      861.761
04/10/2014  13:59:00       30.405       31.233       36.232       44.651       39.399       40.799     1993.677     1552.319     1664.591        0.421        0.261       43.588       26.783        0.378      345.723       23.457      861.755
04/10/2014  14:00:00      -13.433       50.904       -0.335       49.158       40.524       45.827     2416.470     1642.209     2100.140        0.446        0.308       52.646       28.308        0.289      345.404       22.910      861.742
04/10/2014  14:01:00       27.951       48.936       93.219       62.328       77.998       49.499     3884.771     6083.649     2450.200        1.214        0.621       56.357       56.942        1.021      345.327       22.778      861.733
04/10/2014  14:02:00       71.205     -146.908        6.133       52.268       69.948       45.820     2731.962     4892.791     2099.467        1.821        0.486      163.255       36.697        0.051      345.128       22.436      861.716
04/10/2014  14:03:00       21.462       71.610      103.157       44.180       60.441       32.053     1951.841     3653.135     1027.426        1.143        0.332       74.757       32.390        0.188      345.367       22.847      861.703
04/10/2014  14:04:00      141.391      124.727       78.537      124.382       82.879       72.700    15470.847     6868.898     5285.319        3.467        1.381      188.543       60.933        0.104      345.028       22.263      861.673
04/10/2014  14:05:00       96.600       72.826       66.540      136.518      125.537       83.647    18637.189    15759.586     6996.834        3.022        2.070      120.976       75.392        0.388      345.281       22.697      861.633
04/10/2014  14:06:00       21.946      -72.096       31.818       45.940      120.773       71.872     2110.521    14586.206     5165.578        1.427        1.093       75.362       86.314        1.312      345.408       22.916      861.641
04/10/2014  14:07:00       36.992     -145.396       -2.429       85.273       72.816       45.896     7271.542     5302.208     2106.456        1.859        0.734      150.028       32.613        0.047      345.165       22.499      861.637
04/10/2014  14:08:00       90.001     -110.646       28.281       95.257      120.857       91.496     9073.889    14606.375     8371.512        2.659        1.603      142.628       93.470        0.429      345.054       22.309      861.607
04/10/2014  14:09:00       48.773      -21.869       70.183       56.792      121.102       69.305     3225.330    14665.704     4803.123        1.523        1.135       53.451       83.943        2.466      344.952       22.135      861.608
04/10/2014  14:10:00       53.802      -90.360        6.551       43.988       74.527       46.920     1934.914     5554.268     2201.530        1.039        0.485      105.165       47.985        0.208      344.964       22.157      861.590
04/10/2014  14:11:00       42.006        4.457       65.156       53.953       71.714       44.458     2910.940     5142.828     1976.488        0.803        0.502       42.242       52.329        1.535      345.100       22.389      861.572
04/10/2014  14:12:00       39.749       47.748      111.946       85.756      138.205       88.419     7354.138    19100.681     7817.842        2.533        1.714       62.128       86.321        1.930      345.257       22.657      861.556
04/10/2014  14:13:00      130.259       42.605       90.801      102.786       94.470       72.335    10564.988     8924.561     5232.375        2.587        1.236      137.050       71.292        0.271      345.108       22.401      861.548
04/10/2014  14:14:00      108.317       61.295       92.637      108.381       86.954       69.187    11746.400     7560.914     4786.805        2.408        1.205      124.457       60.694        0.238      345.116       22.415      861.540
04/10/2014  14:15:00       58.698      -22.200       56.110       67.704       64.195       59.950     4583.858     4120.997     3593.996        0.969        0.615       62.756       51.362        0.670      345.369       22.851      861.548
04/10/2014  14:16:00       25.357       73.870       97.382       55.091       70.819       51.297     3035.018     5015.265     2631.346        1.313        0.534       78.101       31.974        0.168      345.455       22.997      861.526
04/10/2014  14:17:00      114.299      -54.282       23.627       88.392       88.560       73.816     7813.057     7842.825     5448.748        1.883        1.055      126.534       68.170        0.290      344.961       22.150      861.528
04/10/2014  14:18:00      104.020      -43.963       29.210       60.956       52.925       38.944     3715.607     2801.097     1516.646        1.082        0.402      112.928       33.885        0.090      344.624       21.575      861.543
04/10/2014  14:19:00       40.167       53.787       98.652       71.390       72.910       55.009     5096.583     5315.881     3025.938        1.384        0.672       67.130       45.423        0.458      344.999       22.216      861.520
04/10/2014  14:20:00       99.190       83.770       72.518       92.229       73.146       57.927     8506.206     5350.309     3355.514        1.966        0.861      129.831       50.529        0.151      345.128       22.435      861.507
04/10/2014  14:21:00      185.901      124.764       33.305       69.234       64.312       43.798     4793.401     4136.098     1918.266        3.104        0.542      223.887       14.747        0.004      344.682       21.671      861.505
04/10/2014  14:22:00      142.641      101.363        4.107       51.518       41.053       31.437     2654.075     1685.378      988.259        1.798        0.266      174.988        6.553        0.001      344.689       21.685      861.498
04/10/2014  14:23:00       88.619       64.904       39.874       70.064       59.224       60.733     4908.955     3507.475     3688.453        1.288        0.605      109.845       45.376        0.171      345.218       22.590      861.481
04/10/2014  14:24:00       43.737       55.192       70.082       50.249       55.111       35.843     2525.010     3037.232     1284.750        0.836        0.342       70.421       28.829        0.168      345.398       22.900      861.472
04/10/2014  14:25:00       66.216       36.083       32.368       29.517       51.651       41.015      871.279     2667.821     1682.233        0.598        0.261       75.409       22.957        0.093      344.779       21.841      861.466
04/10/2014  14:26:00        3.809      -17.085       -0.724       18.896       17.919       21.008      357.054      321.082      441.351        0.071        0.056       17.504       10.637        0.369      345.039       22.286      861.437
04/10/2014  14:27:00      -40.549       11.205      -22.512       30.302       44.069       13.922      918.196     1942.045      193.828        0.266        0.153       42.069       17.267        0.168      344.803       21.881      861.410
04/10/2014  14:28:00      -62.590       10.392      -26.224       24.975       26.012       15.147      623.770      676.604      229.426        0.312        0.076       63.447       16.062        0.064      344.770       21.823      861.385
04/10/2014  14:29:00      -17.917      -15.306        1.800       37.823       48.475       26.501     1430.562     2349.870      702.319        0.252        0.224       23.565       10.178        0.187      345.470       23.025      861.371
04/10/2014  14:30:00      -24.452      -12.699       27.626       48.445       46.626       31.937     2346.939     2174.001     1019.952        0.353        0.277       27.553       26.039        0.893      345.792       23.575      861.361
04/10/2014  14:31:00       -2.909      -33.716       -4.405       33.818       40.067       27.487     1143.671     1605.381      755.523        0.233        0.175       33.842       21.764        0.414      345.593       23.234      861.348
04/10/2014  14:32:00       -0.900       12.813       21.378       32.454       41.657       26.477     1053.253     1735.267      701.036        0.206        0.174       12.844       23.415        3.323      345.727       23.465      861.323
04/10/2014  14:33:00      -31.288       22.781       -0.010       37.758       36.442       31.330     1425.661     1328.035      981.544        0.262        0.187       38.703       17.866        0.213      345.579       23.210      861.307
04/10/2014  14:34:00      -20.663      -69.807       27.112       40.972       86.679       32.418     1678.742     7513.255     1050.952        0.814        0.512       72.801       38.097        0.274      345.537       23.139      861.291
04/10/2014  14:35:00       23.204     -104.170      -13.132       43.158       45.455       22.503     1862.574     2066.166      506.397        0.800        0.222      106.723       16.942        0.025      345.040       22.285      861.286
04/10/2014  14:36:00      -48.534      -44.415       13.405       63.689       63.911       48.679     4056.318     4084.604     2369.622        0.751        0.526       65.789       43.108        0.429      345.286       22.707      861.271
04/10/2014  14:37:00      -86.473     -106.634        8.841      104.277       75.137       42.242    10873.741     5645.517     1784.351        1.861        0.915      137.290       48.236        0.123      345.227       22.605      861.251
04/10/2014  14:38:00     -200.474     -109.346      -11.706       60.086       43.367       30.739     3610.330     1880.657      944.863        2.936        0.322      228.356       19.126        0.007      344.727       21.748      861.252
04/10/2014  14:39:00     -180.281     -112.387       -2.530       84.180       62.705       38.838     7086.246     3931.870     1508.406        2.883        0.626      212.443       40.130        0.036      344.926       22.089      861.223
04/10/2014  14:40:00     -178.476     -114.041        6.040      114.348       72.578       46.625    13075.525     5267.596     2173.907        3.270        1.026      211.799       46.987        0.049      344.970       22.164      861.202
04/10/2014  14:41:00     -126.858     -107.405       12.357      101.567       70.987       42.981    10315.831     5039.220     1847.385        2.249        0.860      166.218       54.160        0.106      345.163       22.496      861.202
04/10/2014  14:42:00     -124.793     -171.515       -5.579       83.782      101.368       52.492     7019.355    10275.377     2755.416        3.253        1.003      212.110       41.955        0.039      344.967       22.160      861.181
04/10/2014  14:43:00      -85.698     -236.027       11.327       61.437      108.187       35.931     3774.488    11704.351     1291.030        3.997        0.838      251.104       23.695        0.009      344.708       21.714      861.155
04/10/2014  14:44:00      -48.551     -100.853        8.939       73.691       73.525       38.638     5430.324     5405.946     1492.858        1.247        0.616      111.931       28.967        0.067      345.142       22.461      861.115
04/10/2014  14:45:00      -23.295      -58.200        9.960       74.174       76.072       41.897     5501.844     5787.022     1755.347        0.853        0.652       62.689       25.888        0.171      345.124       22.430      861.079
04/10/2014  14:46:00      -98.116       -9.071        7.177       71.416       58.832       33.134     5100.290     3461.154     1097.862        0.971        0.483       98.534       31.990        0.105      345.301       22.733      861.079
04/10/2014  14:47:00      -34.349       32.072       12.413       60.517       62.171       29.838     3662.283     3865.212      890.331        0.539        0.421       46.994       27.922        0.353      345.544       23.150      861.084
04/10/2014  14:48:00      101.804       59.700       21.994       46.930       26.412       35.794     2202.387      697.569     1281.207        0.930        0.209      118.018       18.542        0.025      345.267       22.676      861.071
04/10/2014  14:49:00       70.290       50.990       15.591       54.049       45.834       36.518     2921.307     2100.800     1333.558        0.707        0.318       86.837       23.536        0.073      345.275       22.689      861.068
04/10/2014  14:50:00       57.824       64.665       12.458       56.305       61.934       42.909     3170.271     3835.881     1841.221        0.826        0.442       86.748       36.610        0.178      345.418       22.935      861.059
04/10/2014  14:51:00       27.627       77.795       10.692       56.423       57.868       44.173     3183.593     3348.667     1951.272        0.770        0.424       82.555       31.992        0.150      345.300       22.731      861.057
04/10/2014  14:52:00       51.240       52.238        0.085       66.457       47.054       27.000     4416.555     2214.069      729.026        0.636        0.368       73.174       22.736        0.097      345.279       22.696      861.037
04/10/2014  14:53:00       29.701       60.405        2.781       38.190       54.354       28.916     1458.478     2954.366      836.148        0.489        0.262       67.312       27.425        0.166      345.474       23.029      861.026
04/10/2014  14:54:00       51.908       -8.100       16.342       60.039       44.888       39.097     3604.641     2014.960     1528.561        0.509        0.357       52.536       29.008        0.305      345.685       23.391      861.010
04/10/2014  14:55:00      -32.020        2.024       15.807       57.078       32.517       29.750     3257.853     1057.352      885.048        0.324        0.260       32.083       14.723        0.211      346.143       24.179      860.990
04/10/2014  14:56:00       -6.312      -97.543       30.163       66.631      107.186       72.219     4439.669    11488.862     5215.638        1.580        1.057       97.747       59.943        0.376      345.933       23.818      860.991
04/10/2014  14:57:00      -87.162      -68.892        1.851       58.823       68.859       48.579     3460.175     4741.504     2359.875        1.145        0.528      111.101       33.014        0.088      345.601       23.248      860.991
04/10/2014  14:58:00        3.418      -20.294       16.307       58.910       50.025       33.396     3470.380     2502.538     1115.292        0.389        0.354       20.580       31.241        2.304      345.964       23.872      860.967
04/10/2014  14:59:00       35.551      -56.463       28.991       49.371       82.868       48.077     2437.513     6867.070     2311.380        0.845        0.581       66.723       40.147        0.362      345.958       23.862      860.951
04/10/2014  15:00:00      127.367     -194.405      -33.773      106.334      143.010       86.795    11306.879    20451.817     7533.311        4.722        1.965      232.413       89.666        0.149      345.321       22.766      860.902
04/10/2014  15:01:00      149.034     -182.263      -20.000       90.607      106.979       49.814     8209.626    11444.477     2481.448        3.898        1.107      235.438       54.784        0.054      345.149       22.469      860.927
04/10/2014  15:02:00       46.312     -116.141        1.820       75.879      101.997       61.913     5757.682    10403.396     3833.189        1.781        1.000      125.034       57.252        0.210      345.376       22.861      860.905
04/10/2014  15:03:00       72.052     -141.160      -13.470       93.618       76.137       65.300     8764.399     5796.825     4264.076        2.206        0.941      158.486       53.053        0.112      345.438       22.966      860.890
04/10/2014  15:04:00       57.437     -118.643       -7.569       77.848       90.239       66.884     6060.337     8143.085     4473.466        1.805        0.934      131.815       55.395        0.177      345.718       23.448      860.881
04/10/2014  15:05:00       36.863      -32.725       54.063       67.047      102.896       78.868     4495.302    10587.568     6220.232        1.332        1.065       49.294       70.186        2.027      345.824       23.630      860.881
04/10/2014  15:06:00       87.708      -56.013       47.724       79.632      123.001       71.022     6341.279    15129.141     5044.058        1.981        1.326      104.068       76.029        0.534      345.470       23.023      860.874
04/10/2014  15:07:00       34.549      -38.533       28.865       62.735       55.867       37.466     3935.701     3121.100     1403.696        0.598        0.423       51.753       31.912        0.380      345.783       23.562      860.852
04/10/2014  15:08:00       66.758     -104.838       23.234       73.523       69.638       56.674     5405.577     4849.515     3211.941        1.472        0.673      124.289       42.765        0.118      345.723       23.457      860.831
04/10/2014  15:09:00       10.220      -22.521       19.785       59.611       69.960       43.298     3553.472     4894.373     1874.698        0.566        0.516       24.731       29.108        1.385      345.859       23.690      860.819
04/10/2014  15:10:00      124.244       42.754       23.202       45.548       64.097       35.614     2074.629     4108.446     1268.389        1.263        0.373      131.395       31.309        0.057      345.083       22.360      860.820
04/10/2014  15:11:00       72.078       14.425       15.177       70.004       45.949       33.081     4900.558     2111.285     1094.371        0.687        0.405       73.507       19.313        0.069      345.558       23.173      860.797
04/10/2014  15:12:00       65.509       29.656       26.083       61.337       51.671       40.545     3762.252     2669.911     1643.877        0.696        0.404       71.909       27.976        0.151      345.916       23.789      860.767
04/10/2014  15:13:00      124.250       61.661       11.043       57.756       52.365       44.172     3335.804     2742.138     1951.170        1.369        0.401      138.709       30.213        0.047      345.449       22.986      860.747
04/10/2014  15:14:00       66.963      -14.830       53.839       69.981      125.773       75.837     4897.385    15818.805     5751.305        1.703        1.323       68.586       60.807        0.786      345.645       23.323      860.722
04/10/2014  15:15:00       54.283       -6.843       58.574       50.254       73.582       53.008     2525.498     5414.380     2809.841        0.858        0.537       54.713       48.053        0.771      345.435       22.964      860.714
04/10/2014  15:16:00       67.188       15.959       44.261       55.255       78.639       46.677     3053.075     6184.167     2178.765        0.907        0.571       69.058       33.554        0.236      345.401       22.904      860.679
04/10/2014  15:17:00       84.276       54.065       44.452       46.924       43.013       48.264     2201.851     1850.155     2329.426        0.919        0.319      100.128       22.997        0.053      345.703       23.423      860.667
04/10/2014  15:18:00       55.297       52.461       59.155       49.340       39.929       39.743     2434.460     1594.330     1579.520        0.746        0.280       76.223       16.981        0.050      345.769       23.537      860.647
04/10/2014  15:19:00       74.484       78.412       75.748       58.220       53.910       48.908     3389.551     2906.299     2392.029        1.306        0.434      108.150       39.129        0.131      345.696       23.410      860.634
04/10/2014  15:20:00       30.626       26.375      116.883       93.008      160.368      106.034     8650.518    25717.882    11243.301        3.044        2.281       40.418      117.876        8.506      345.660       23.347      860.595
04/10/2014  15:21:00       14.870      -32.809       31.285      104.142       96.102       67.570    10845.639     9235.527     4565.740        1.346        1.232       36.022       65.786        3.335      345.933       23.818      860.586
04/10/2014  15:22:00       60.046      -53.004       36.519       60.266       76.415       58.965     3631.931     5839.321     3476.839        1.035        0.647       80.094       44.742        0.312      345.823       23.629      860.594
04/10/2014  15:23:00       37.619      -62.190       13.274       46.553       52.589       42.618     2167.212     2765.563     1816.315        0.610        0.337       72.683       30.544        0.177      345.812       23.611      860.584
04/10/2014  15:24:00      -39.813       15.059       37.812       39.128       34.486       21.943     1530.972     1189.290      481.487        0.322        0.160       42.566       20.922        0.242      346.341       24.520      860.564
04/10/2014  15:25:00       -6.024      -24.913        7.407       33.065       35.386       24.119     1093.291     1252.134      581.710        0.182        0.146       25.631       21.209        0.685      346.078       24.067      860.538
04/10/2014  15:26:00       -0.503      -94.029       18.284       49.797       37.043       35.998     2479.725     1372.183     1295.868        0.716        0.257       94.031       17.559        0.035      345.615       23.272      860.503
04/10/2014  15:27:00       69.658      -87.429       -7.512       34.065       93.964       40.110     1160.398     8829.308     1608.799        1.207        0.580      111.786       37.007        0.110      345.342       22.804      860.488
04/10/2014  15:28:00      100.072      -74.857       -8.955       53.905      109.135       46.108     2905.797    11910.448     2125.938        1.632        0.847      124.972       64.485        0.266      345.333       22.787      860.460
04/10/2014  15:29:00       61.049      -73.721      -20.885       58.561       98.629       42.852     3429.347     9727.617     1836.283        1.229        0.750       95.717       40.870        0.182      345.414       22.928      860.441
04/10/2014  15:30:00       42.335       47.419       63.734       51.362       43.791       27.891     2638.010     1917.671      777.921        0.672        0.267       63.567       25.216        0.157      345.631       23.299      860.435
04/10/2014  15:31:00       75.090       40.011       31.279       34.095       52.641       35.799     1162.484     2771.058     1281.595        0.672        0.261       85.084       27.404        0.104      345.333       22.788      860.434
04/10/2014  15:32:00      198.474       87.021       24.965      107.221       70.538       46.611    11496.252     4975.598     2172.546        3.311        0.932      216.713       30.157        0.019      345.348       22.811      860.408
04/10/2014  15:33:00      159.543      118.946       75.923      113.512       77.190       76.594    12884.995     5958.278     5866.663        3.503        1.235      199.003       73.346        0.136      345.645       23.319      860.384
04/10/2014  15:34:00      130.636       98.673       41.598       93.159       65.877       58.471     8678.559     4339.713     3418.859        2.248        0.822      163.714       41.203        0.063      345.730       23.468      860.386
04/10/2014  15:35:00       41.323       75.289       91.914       83.897       58.826       55.078     7038.726     3460.499     3033.622        1.468        0.677       85.884       53.018        0.381      345.852       23.678      860.380
04/10/2014  15:36:00       56.487       70.848       87.402       52.020       41.691       31.743     2706.118     1738.118     1007.616        1.065        0.273       90.611       25.128        0.077      345.711       23.438      860.380
04/10/2014  15:37:00       63.081       55.872       60.132       63.962       47.223       50.262     4091.143     2229.969     2526.312        0.978        0.442       84.267       34.753        0.170      345.881       23.728      860.358
04/10/2014  15:38:00      183.386      151.849       61.569       60.446       69.853       69.351     3653.671     4879.470     4809.614        3.691        0.667      238.094       30.160        0.016      345.584       23.214      860.330
04/10/2014  15:39:00       31.800      101.732      104.785       72.970       66.191       62.471     5324.555     4381.227     3902.627        1.797        0.680      106.586       52.850        0.246      345.718       23.447      860.322
04/10/2014  15:40:00       28.081       96.222      119.672       68.556       71.269       53.833     4699.973     5079.276     2897.954        1.852        0.634      100.235       51.161        0.261      345.682       23.386      860.301
04/10/2014  15:41:00       68.240      -24.111       44.671       63.092       65.358       58.286     3980.611     4271.688     3397.278        0.944        0.582       72.374       52.557        0.527      345.622       23.284      860.301
04/10/2014  15:42:00       12.941     -105.165       23.127       62.818       95.043       46.023     3946.094     9033.182     2118.094        1.343        0.755      105.958       43.262        0.167      346.108       24.117      860.260
04/10/2014  15:43:00        3.603      -96.532      -13.046       73.014       63.611       42.840     5330.972     4046.373     1835.238        1.035        0.561       96.599       30.823        0.102      345.966       23.874      860.235
04/10/2014  15:44:00       19.829     -105.011       -5.778       78.149       57.269       43.078     6107.223     3279.686     1855.740        1.135        0.562      106.867       19.215        0.032      345.743       23.492      860.213
04/10/2014  15:45:00       -7.428        3.016       39.408       27.772       50.512       22.767      771.279     2551.491      518.353        0.273        0.192        8.017       27.508       11.774      345.967       23.876      860.202
04/10/2014  15:46:00       24.250      -45.850        0.793       23.625       25.227       22.069      558.130      636.425      487.030        0.219        0.084       51.868        8.489        0.027      345.921       23.798      860.176
04/10/2014  15:47:00      -31.085      -21.129       16.668       34.969       24.324       21.856     1222.863      591.652      477.685        0.199        0.115       37.586       19.096        0.258      346.103       24.110      860.167
04/10/2014  15:48:00       -3.820      -36.979       23.992       69.127       54.311       39.888     4778.541     2949.687     1591.063        0.564        0.466       37.176       37.220        1.002      346.029       23.983      860.167
04/10/2014  15:49:00       -6.499       17.289       10.185       34.447       31.016       30.711     1186.586      961.989      943.183        0.177        0.155       18.470       22.710        1.512      346.015       23.958      860.151
04/10/2014  15:50:00       80.718     -130.665      -11.026      112.421      105.478       35.678    12638.532    11125.579     1272.915        2.437        1.252      153.586       53.936        0.123      345.966       23.874      860.146
04/10/2014  15:51:00      154.396      -70.868       46.417       73.464      116.456       69.384     5397.021    13561.998     4814.097        2.739        1.189      169.883       74.146        0.190      345.617       23.273      860.112
04/10/2014  15:52:00       14.611      -80.351       -1.073       56.638       95.529       36.856     3207.900     9125.758     1358.353        1.018        0.685       81.669       29.395        0.130      345.816       23.617      860.111
04/10/2014  15:53:00       97.824     -101.314      -10.889       65.989       82.763       47.679     4354.514     6849.674     2273.305        1.671        0.674      140.834       38.277        0.074      345.559       23.175      860.085
04/10/2014  15:54:00       12.376       19.167       34.820       35.585       29.068       21.212     1266.325      844.948      449.944        0.215        0.128       22.816       15.430        0.457      345.893       23.750      860.091
04/10/2014  15:55:00       -0.946       32.476       21.837       31.815       19.262       18.162     1012.191      371.019      329.863        0.162        0.086       32.489       16.092        0.245      345.805       23.598      860.072
04/10/2014  15:56:00       26.508       14.012       10.988       58.598       32.659       28.923     3433.729     1066.579      836.564        0.318        0.267       29.984       22.000        0.538      345.717       23.448      860.069
04/10/2014  15:57:00       83.184       57.760       27.734       50.753       44.387       19.030     2575.830     1970.186      362.153        0.797        0.245      101.271       14.588        0.021      345.642       23.317      860.051
04/10/2014  15:58:00      188.133      133.713       43.733      157.455      100.650       65.091    24792.110    10130.461     4236.891        4.716        1.958      230.810       37.908        0.027      345.596       23.237      860.020
04/10/2014  15:59:00       84.721       59.029       97.173       87.676       62.297       58.127     7687.155     3880.900     3378.798        1.752        0.747      103.258       37.630        0.133      345.762       23.524      860.005
04/10/2014  16:00:00      189.340      122.130       25.314       72.208       54.981       43.533     5214.018     3022.953     1895.154        3.077        0.507      225.312       27.429        0.015      345.512       23.091      860.018
04/10/2014  16:01:00      204.005      119.515       20.770       69.649       73.854       60.006     4851.004     5454.365     3600.700        3.512        0.695      236.436       44.815        0.036      345.550       23.157      859.992
04/10/2014  16:02:00      171.541      161.841       13.779      137.301       94.225       61.961    18851.521     8878.294     3839.205        4.368        1.578      235.837       62.458        0.070      345.555       23.167      859.965
04/10/2014  16:03:00       -5.218      206.382      -40.435       31.889       62.837       18.782     1016.930     3948.525      352.760        2.479        0.266      206.448       18.078        0.008      345.278       22.691      859.995
04/10/2014  16:04:00      -27.573      136.580      -27.928       44.848       56.462       22.722     2011.336     3187.990      516.290        1.295        0.286      139.335       22.058        0.025      345.412       22.924      859.983
04/10/2014  16:05:00        4.949      132.419      -10.572       47.253       78.114       35.207     2232.888     6101.761     1239.501        1.362        0.479      132.512       39.653        0.090      345.818       23.620      859.961
04/10/2014  16:06:00       85.067       75.650       19.562       83.248       58.164       46.947     6930.165     3382.994     2204.022        1.293        0.626      113.839       19.773        0.030      346.098       24.100      859.944
04/10/2014  16:07:00      112.003      112.122       75.026       88.385       71.286       84.076     7811.967     5081.749     7068.769        2.535        0.998      158.480       62.470        0.155      346.008       23.944      859.929
04/10/2014  16:08:00       78.588      166.965      167.115      109.351       84.522       82.587    11957.662     7143.907     6820.577        4.395        1.296      184.536       80.865        0.192      345.729       23.462      859.910
04/10/2014  16:09:00      104.859       84.139       23.100       91.421       70.175       54.399     8357.720     4924.525     2959.234        1.742        0.812      134.442       27.319        0.041      345.738       23.483      859.929
04/10/2014  16:10:00       82.064       73.732        5.605       98.720       67.346       46.671     9745.557     4535.491     2178.137        1.433        0.823      110.322       28.968        0.069      345.887       23.738      859.922
04/10/2014  16:11:00       82.015       62.674       20.000       89.261       53.678       43.512     7967.444     2881.320     1893.285        1.190        0.637      103.221       30.820        0.089      345.916       23.787      859.916
04/10/2014  16:12:00      112.765       72.384       35.024       44.921       51.061       48.886     2017.872     2607.178     2389.831        1.310        0.351      133.998       22.156        0.027      345.854       23.683      859.914
04/10/2014  16:13:00       54.747       12.822       59.625       64.930      111.499       72.220     4215.872    12431.970     5215.734        1.429        1.093       56.228       50.830        0.817      346.071       24.053      859.894
04/10/2014  16:14:00       91.998     -147.790      -11.789       54.771       68.265       49.064     2999.873     4660.113     2407.267        2.025        0.503      174.085       34.871        0.040      345.865       23.699      859.889
04/10/2014  16:15:00      105.882       50.690       30.387       72.348      118.913       51.405     5234.261    14140.218     2642.444        1.836        1.101      117.390       36.165        0.095      345.827       23.634      859.897
04/10/2014  16:16:00      184.737       82.327       37.269       73.248       62.493       46.102     5365.209     3905.385     2125.375        2.684        0.570      202.252       26.265        0.017      345.558       23.170      859.892
04/10/2014  16:17:00      208.524       83.778       59.547      121.437       80.405       78.366    14747.053     6464.932     6141.162        4.069        1.368      224.724       56.591        0.063      345.707       23.427      859.859
04/10/2014  16:18:00       88.893       65.075       65.818       55.719       50.754       56.560     3104.628     2575.926     3198.998        1.267        0.444      110.167       33.925        0.095      345.563       23.183      859.863
04/10/2014  16:19:00       99.001       77.349       76.915       60.236       48.449       46.901     3628.324     2347.336     2199.747        1.494        0.409      125.634       39.950        0.101      345.630       23.298      859.847
04/10/2014  16:20:00       91.884       58.037       33.866       36.205       33.906       35.360     1310.804     1149.625     1250.334        0.833        0.186      108.679       22.655        0.043      345.425       22.946      859.843
04/10/2014  16:21:00       30.364       30.536       25.893       65.323       44.493       29.859     4267.054     1979.601      891.553        0.483        0.357       43.063       14.576        0.115      345.540       23.143      859.834
04/10/2014  16:22:00       37.036       34.103       16.327       32.964       30.403       25.146     1086.628      924.317      632.301        0.272        0.132       50.345       19.016        0.143      345.794       23.578      859.805
04/10/2014  16:23:00      116.804       60.159       49.067       91.805       67.291       61.953     8428.081     4528.015     3838.203        1.823        0.840      131.386       47.252        0.129      345.839       23.655      859.783
04/10/2014  16:24:00      108.470      123.310       91.204       68.329       49.015       57.709     4668.878     2402.439     3330.298        2.284        0.520      164.228       53.604        0.107      345.538       23.139      859.767
04/10/2014  16:25:00       54.155      103.322       98.068       40.897       54.521       35.128     1672.590     2972.590     1233.968        1.455        0.294      116.654       31.338        0.072      345.562       23.181      859.755
04/10/2014  16:26:00       96.429       77.947       76.208       76.663       59.006       54.505     5877.252     3481.681     2970.758        1.675        0.616      123.993       40.061        0.104      345.825       23.632      859.734
04/10/2014  16:27:00      219.006      125.599       86.116      103.456       79.226       79.611    10703.046     6276.785     6337.928        4.723        1.166      252.465       70.888        0.079      345.707       23.426      859.706
04/10/2014  16:28:00       76.198      127.161       95.394       70.881       68.810       76.381     5024.074     4734.809     5834.069        2.333        0.780      148.244       54.255        0.134      345.683       23.387      859.679
04/10/2014  16:29:00      134.168       96.982        5.174       77.087       58.888       45.210     5942.393     3467.804     2043.973        1.944        0.573      165.549       27.067        0.027      345.900       23.758      859.690
04/10/2014  16:30:00       39.021      144.068       -9.319       68.460       58.957       47.478     4686.726     3475.981     2254.137        1.639        0.521      149.259       38.286        0.066      345.576       23.205      859.684
04/10/2014  16:31:00      -17.744       94.950      -30.031       38.318       47.084       18.334     1468.294     2216.862      336.131        0.713        0.201       96.594       12.377        0.016      345.437       22.965      859.659
04/10/2014  16:32:00       19.167       78.757      -13.048       64.928       84.830       35.371     4215.658     7196.071     1251.095        0.970        0.633       81.056       34.574        0.182      345.663       23.354      859.640
04/10/2014  16:33:00       43.922      145.192      -26.917       36.672       70.326       27.043     1344.807     4945.757      731.330        1.538        0.351      151.690       22.924        0.023      345.536       23.136      859.614
04/10/2014  16:34:00      203.739      110.489       31.712       81.280       62.591       51.053     6606.371     3917.579     2606.438        3.392        0.657      231.770       28.560        0.015      345.626       23.287      859.579
04/10/2014  16:35:00      199.710       93.029       45.808       87.347       67.230       49.820     7629.491     4519.840     2482.078        3.263        0.732      220.314       32.141        0.021      345.649       23.327      859.558
04/10/2014  16:36:00      176.144       78.556       10.278       69.204       44.018       44.560     4789.161     1937.568     1985.604        2.301        0.436      192.868       26.282        0.019      345.701       23.417      859.539
04/10/2014  16:37:00      108.670       74.294       83.678       92.943       83.260       72.752     8638.468     6932.151     5292.851        2.259        1.043      131.638       54.747        0.173      345.831       23.641      859.480
04/10/2014  16:38:00      146.250       93.891       33.821       93.043       92.239       66.108     8656.951     8508.094     4370.246        2.644        1.077      173.795       42.662        0.060      345.505       23.081      859.464
04/10/2014  16:39:00       31.375       72.980       89.682       63.238       67.276       57.632     3998.991     4526.097     3321.425        1.310        0.592       79.439       47.165        0.353      345.997       23.926      859.446
04/10/2014  16:40:00      106.453      153.533      143.626       98.997       80.978       70.797     9800.381     6557.400     5012.221        3.845        1.069      186.828       52.762        0.080      345.904       23.764      859.408
04/10/2014  16:41:00       11.763      -17.511       18.746       74.533       69.938       59.244     5555.158     4891.385     3509.848        0.737        0.698       21.095       27.889        1.748      346.130       24.156      859.396
04/10/2014  16:42:00      139.166      -45.996       25.954       98.025      117.926       74.795     9608.911    13906.655     5594.279        2.563        1.455      146.570       92.291        0.396      345.758       23.515      859.396
04/10/2014  16:43:00       78.236      -74.333       41.598       71.325       86.066       50.954     5087.322     7407.336     2596.295        1.423        0.755      107.918       58.719        0.296      345.945       23.837      859.394
04/10/2014  16:44:00       43.349       73.311       75.406       79.348       66.245       47.139     6296.079     4388.453     2222.083        1.292        0.645       85.168       40.394        0.225      345.883       23.732      859.395
04/10/2014  16:45:00       76.073       31.938       43.229      105.940       82.112       48.436    11223.191     6742.365     2346.051        1.449        1.016       82.505       32.452        0.155      345.966       23.873      859.399
04/10/2014  16:46:00       11.474      -20.611       51.183       38.485       52.031       39.075     1481.084     2707.217     1526.853        0.444        0.286       23.590       32.608        1.911      346.261       24.382      859.393
04/10/2014  16:47:00      127.191       76.118       60.885       71.341       71.591       59.242     5089.563     5125.236     3509.663        1.970        0.686      148.228       55.623        0.141      345.651       23.332      859.401
04/10/2014  16:48:00       29.065       19.033        7.641       69.542       50.967       28.715     4836.134     2597.612      824.562        0.476        0.413       34.742       15.843        0.208      345.856       23.685      859.393
04/10/2014  16:49:00      139.349       92.793        9.397       57.810       48.336       38.450     3342.020     2336.392     1478.375        1.764        0.358      167.418       21.275        0.016      345.710       23.435      859.396
04/10/2014  16:50:00      111.694       68.471       28.138       31.498       33.258       29.714      992.109     1106.116      882.935        1.047        0.149      131.011        7.958        0.004      345.629       23.296      859.399
04/10/2014  16:51:00       82.746       65.756       12.978       58.080       40.890       36.284     3373.329     1671.994     1316.525        0.885        0.318      105.692       26.270        0.062      345.863       23.698      859.380
04/10/2014  16:52:00      250.938      177.903       26.595       94.140       60.396       55.284     8862.433     3647.651     3056.347        5.544        0.778      307.602       32.248        0.011      345.731       23.468      859.374
04/10/2014  16:53:00      129.038       76.691       10.406       77.790       71.094       51.063     6051.322     5054.373     2607.478        1.817        0.686      150.108       32.711        0.047      345.831       23.642      859.370
04/10/2014  16:54:00      118.530       76.890       23.234       57.890       48.667       48.721     3351.293     2368.439     2373.701        1.430        0.405      141.285       26.883        0.036      345.823       23.628      859.380
04/10/2014  16:55:00       55.076       46.922       63.698       60.797       54.531       44.540     3696.261     2973.579     1983.774        0.897        0.433       72.354       47.779        0.436      345.958       23.861      859.362
04/10/2014  16:56:00       79.989      111.406       93.236      114.685       98.533      107.831    13152.567     9708.750    11627.532        3.099        1.724      137.147       99.654        0.528      345.795       23.578      859.339
04/10/2014  16:57:00       79.124      117.321      100.629       88.145       63.550       59.589     7769.614     4038.556     3550.832        2.275        0.768      141.510       55.813        0.156      345.728       23.465      859.347
04/10/2014  16:58:00      125.651       59.359       32.249       88.264       61.595       52.939     7790.500     3793.927     2802.590        1.737        0.719      138.967       13.191        0.009      345.930       23.811      859.351
04/10/2014  16:59:00      170.297      100.300       14.893       88.575       72.102       47.496     7845.547     5198.746     2255.870        2.729        0.765      197.639       38.282        0.038      345.948       23.841      859.343
04/10/2014  17:00:00      120.326       77.830       12.108       51.154       37.840       36.410     2616.775     1431.861     1325.657        1.303        0.269      143.303       22.279        0.024      345.781       23.557      859.332
04/10/2014  17:01:00      183.423      119.169        8.772       93.479       53.173       46.209     8738.414     2827.408     2135.274        3.081        0.685      218.735       26.787        0.015      345.822       23.624      859.316
04/10/2014  17:02:00      158.857       79.742       34.453       93.573       54.493       46.054     8755.919     2969.465     2120.937        2.331        0.692      177.748       43.298        0.059      345.876       23.718      859.300
04/10/2014  17:03:00      183.094       73.136       31.955      104.700       81.620       67.482    10962.060     6661.826     4553.777        3.103        1.109      197.160       51.265        0.068      345.728       23.465      859.270
04/10/2014  17:04:00      183.488      145.253       35.732      101.074       54.216       69.140    10216.045     2939.392     4780.392        3.699        0.897      234.022       60.537        0.067      345.754       23.509      859.271
04/10/2014  17:05:00       69.187        3.106       47.742       63.566       93.267       40.574     4040.697     8698.779     1646.253        1.073        0.719       69.256       30.273        0.191      346.177       24.235      859.285
04/10/2014  17:06:00        3.912      -58.030       42.244       44.246       83.505       47.399     1957.714     6973.053     2246.680        0.817        0.559       58.162       43.873        0.569      346.271       24.398      859.256
04/10/2014  17:07:00      -13.794      -39.636       18.528       56.693       91.176       42.600     3214.138     8312.982     1814.727        0.772        0.667       41.968       40.708        0.941      346.280       24.413      859.236
04/10/2014  17:08:00       47.420      130.405       -5.142       47.806       57.087       33.450     2285.391     3258.878     1118.886        1.297        0.333      138.759       32.649        0.055      345.879       23.726      859.232
04/10/2014  17:09:00       11.733       84.619      -10.289       29.306       41.666       25.861      858.831     1736.020      668.799        0.533        0.163       85.428       27.050        0.100      345.866       23.703      859.215
04/10/2014  17:10:00       50.517       34.957       25.546       52.636       45.633       31.251     2770.585     2082.383      976.611        0.513        0.291       61.432       16.659        0.074      345.921       23.798      859.203
04/10/2014  17:11:00      138.361      102.028       21.882       98.252       64.429       44.905     9653.404     4151.127     2016.451        2.292        0.791      171.911       24.149        0.020      345.893       23.747      859.171
04/10/2014  17:12:00       82.805      120.215       23.288       89.274       78.328       67.115     7969.840     6135.277     4504.410        2.023        0.930      145.974       51.973        0.127      345.948       23.843      859.159
04/10/2014  17:13:00       69.791      175.459      -12.736       74.788      125.112       59.938     5593.183    15652.986     3592.522        3.032        1.242      188.829       64.863        0.118      345.768       23.533      859.157
04/10/2014  17:14:00       45.630      154.331      -24.905       90.486       91.166       47.840     8187.756     8311.189     2288.699        2.265        0.939      160.935       54.625        0.115      345.828       23.636      859.140
04/10/2014  17:15:00     -132.690      166.451      -40.378       74.406       71.404       40.608     5536.248     5098.587     1649.017        2.961        0.614      212.868       47.301        0.049      346.014       23.955      859.133
04/10/2014  17:16:00      -44.793      119.169       -4.558       81.777       78.741       43.595     6687.418     6200.166     1900.497        1.551        0.739      127.309       35.847        0.079      346.009       23.947      859.130
04/10/2014  17:17:00      -11.087      214.102      -30.380       42.762       50.030       28.395     1828.588     2503.042      806.268        2.601        0.257      214.389       25.402        0.014      345.953       23.849      859.113
04/10/2014  17:18:00      -38.055      235.566      -38.471       52.564       74.407       31.238     2762.922     5536.420      975.822        3.385        0.464      238.620       35.645        0.022      345.772       23.537      859.107
04/10/2014  17:19:00       -4.874      199.962      -26.695       59.677       63.229       29.106     3561.314     3997.851      847.186        2.456        0.420      200.022       22.574        0.013      345.804       23.594      859.090
04/10/2014  17:20:00      -52.764      111.705       -8.778       45.938       49.786       30.619     2110.314     2478.598      937.495        1.043        0.276      123.540       24.446        0.039      346.210       24.294      859.073
04/10/2014  17:21:00      -53.444       81.350      -11.920       60.524       57.922       31.733     3663.134     3354.993     1006.988        0.882        0.401       97.335       25.037        0.066      346.022       23.971      859.077
04/10/2014  17:22:00     -125.007      212.135      -30.291       55.540       74.616       44.116     3084.716     5567.601     1946.265        3.607        0.530      246.228       38.521        0.024      345.849       23.668      859.071
04/10/2014  17:23:00       13.618      204.604      -29.632       49.374       54.908       29.985     2437.753     3014.938      899.109        2.464        0.318      205.056       23.389        0.013      345.690       23.399      859.074
04/10/2014  17:24:00       -3.044      127.931      -10.787       44.306       63.614       32.118     1963.053     4046.777     1031.542        1.177        0.352      127.967       36.921        0.083      345.909       23.776      859.070
04/10/2014  17:25:00      -30.831      166.025       -6.167       61.077       63.290       39.186     3730.360     4005.588     1535.506        1.891        0.464      168.864       34.956        0.043      345.912       23.780      859.075
04/10/2014  17:26:00       42.090      108.931       -4.946       57.859       66.068       40.395     3347.702     4365.022     1631.735        1.150        0.467      116.780       42.767        0.134      345.888       23.740      859.074
04/10/2014  17:27:00       56.233       45.637       10.180       63.948       59.901       28.021     4089.328     3588.073      785.151        0.690        0.423       72.422       13.961        0.037      346.023       23.971      859.072
04/10/2014  17:28:00      -21.105       48.471       -8.216       78.902       57.884       31.094     6225.498     3350.596      966.859        0.670        0.527       52.866       23.122        0.191      346.076       24.063      859.075
04/10/2014  17:29:00       28.783       46.555       -1.577       58.052       41.694       33.841     3370.040     1738.372     1145.223        0.462        0.313       54.734       23.927        0.191      346.068       24.049      859.075
04/10/2014  17:30:00        1.819      128.702       -8.862       68.483       73.712       27.548     4689.882     5433.490      758.885        1.376        0.544      128.714       38.628        0.090      346.086       24.080      859.074
04/10/2014  17:31:00      -54.139      251.387      -35.753       70.936      119.395       36.630     5031.887    14255.113     1341.729        4.401        1.031      257.151       44.416        0.030      345.888       23.738      859.065
04/10/2014  17:32:00      -71.560      109.705       -2.780       90.115       74.693       44.690     8120.762     5578.979     1997.187        1.643        0.785      130.981       43.418        0.110      345.911       23.778      859.058
04/10/2014  17:33:00     -178.960       55.051      -27.030       67.264       75.653       38.948     4524.482     5723.404     1516.948        2.377        0.588      187.236       23.189        0.015      346.186       24.248      859.047
04/10/2014  17:34:00     -141.940       27.871      -22.643       89.263       50.344       39.562     7967.912     2534.500     1565.150        1.675        0.603      144.650       33.903        0.055      345.997       23.926      859.053
04/10/2014  17:35:00      -82.994        7.335      -13.050       76.685       48.573       34.092     5880.567     2359.363     1162.257        0.826        0.470       83.317       25.097        0.091      345.943       23.836      859.043
04/10/2014  17:36:00     -144.930      -17.637       -8.838       98.309      101.028       37.676     9664.741    10206.695     1419.467        2.134        1.065      146.000       32.895        0.051      346.067       24.046      859.019
04/10/2014  17:37:00     -175.510       10.728      -23.761      100.934       81.964       39.860    10187.709     6718.129     1588.844        2.499        0.925      175.837       31.423        0.032      346.194       24.265      859.005
04/10/2014  17:38:00     -149.047       46.446      -17.458      108.551       83.617       45.239    11783.254     6991.729     2046.557        2.275        1.041      156.116       30.326        0.038      346.149       24.187      859.005
04/10/2014  17:39:00     -151.483       53.762       -4.669       98.052       54.564       48.327     9614.261     2977.275     2335.457        2.039        0.746      160.740       49.944        0.097      346.175       24.232      859.006
04/10/2014  17:40:00     -175.016       42.131      -13.901       91.220       80.778       47.729     8321.054     6525.164     2278.068        2.486        0.856      180.015       41.384        0.053      346.130       24.153      859.003
04/10/2014  17:41:00     -181.675       99.816      -13.169       94.515      163.646       61.531     8933.154    26780.012     3786.016        4.131        1.975      207.290       53.196        0.066      346.173       24.226      859.000
04/10/2014  17:42:00     -161.691       88.421      -21.755       70.229      106.761       55.853     4932.117    11397.993     3119.590        2.694        0.972      184.289       25.340        0.019      346.132       24.157      859.012
04/10/2014  17:43:00     -193.557      -42.225      -15.167      109.930       98.513       52.232    12084.501     9704.724     2728.216        3.199        1.226      198.109       39.040        0.039      346.122       24.140      859.014
04/10/2014  17:44:00     -273.863      -37.197      -29.279      130.230      111.797       56.602    16959.870    12498.483     3203.820        5.495        1.633      276.377       49.456        0.032      345.813       23.608      859.023
04/10/2014  17:45:00     -282.630      -39.341      -29.575      102.312      125.162       52.716    10467.826    15665.517     2779.003        5.560        1.446      285.355       54.309        0.036      345.891       23.742      859.008
04/10/2014  17:46:00     -383.010      -14.591      -33.419      170.915       99.007       70.047    29211.932     9802.453     4906.605        9.597        2.196      383.288       73.953        0.037      345.804       23.595      858.997
04/10/2014  17:47:00      -57.019      -31.940       19.888      137.067       81.698       68.797    18787.439     6674.583     4733.019        1.742        1.510       65.355       75.394        1.331      346.068       24.049      858.979
04/10/2014  17:48:00     -169.113      -34.044      -10.547      100.169       60.647       40.364    10033.822     3678.086     1629.266        2.260        0.767      172.506       29.449        0.029      346.011       23.949      858.985
04/10/2014  17:49:00     -179.032       80.840      -18.198      130.207       74.715       54.039    16953.985     5582.316     2920.197        3.218        1.273      196.437       63.661        0.105      345.903       23.763      858.994
04/10/2014  17:50:00     -200.432       55.548      -38.477      101.675       89.399       41.554    10337.881     7992.195     1726.716        3.239        1.003      207.987       46.002        0.049      345.769       23.534      858.983
04/10/2014  17:51:00     -109.325      178.349      -13.166       93.723      137.151       52.949     8783.976    18810.492     2803.614        3.716        1.520      209.190       55.376        0.070      345.837       23.651      858.983
04/10/2014  17:52:00     -139.775       55.395      -17.658       90.473      106.101       44.637     8185.434    11257.436     1992.463        2.217        1.072      150.351       32.808        0.048      345.940       23.829      858.979
04/10/2014  17:53:00     -205.598       84.403      -45.086      133.117      109.335       68.554    17720.173    11954.214     4699.648        4.289        1.719      222.249       74.507        0.112      346.050       24.016      858.971
04/10/2014  17:54:00     -231.683      -35.568       -6.783      133.596      107.305       64.979    17847.945    11514.470     4222.246        4.428        1.679      234.398       57.226        0.060      345.807       23.601      858.979
04/10/2014  17:55:00     -132.263       38.944       -9.286       75.024       94.636       43.662     5628.554     8955.924     1906.405        1.779        0.825      137.878       15.632        0.013      345.976       23.891      858.975
04/10/2014  17:56:00      -88.109       28.615       -3.550       65.217       74.129       51.290     4253.277     5495.140     2630.634        1.048        0.619       92.639       46.467        0.252      346.005       23.942      858.984
04/10/2014  17:57:00     -109.085      146.488      -20.212       88.881       90.450       55.846     7899.747     8181.235     3118.803        2.648        0.960      182.642       66.194        0.131      345.930       23.811      858.993
04/10/2014  17:58:00     -112.209       40.291      -15.239       51.871       56.897       31.731     2690.631     3237.221     1006.878        1.069        0.347      119.223       17.132        0.021      346.077       24.064      858.992
04/10/2014  17:59:00     -228.090      162.069      -34.596      124.030       85.202       58.781    15383.356     7259.304     3455.170        5.279        1.305      279.806       45.089        0.026      345.878       23.720      859.018
04/10/2014  18:00:00     -236.412      264.087      -32.700      129.432      127.660       82.847    16752.598    16296.968     6863.667        8.330        1.996      354.447       80.014        0.051      345.674       23.371      859.006
04/10/2014  18:01:00     -122.675      273.948      -35.967       83.868      101.826       57.783     7033.830    10368.573     3338.885        5.606        1.037      300.162       48.183        0.026      345.641       23.313      859.014
04/10/2014  18:02:00     -143.480      285.539      -33.288       83.954      101.744       50.760     7048.288    10351.859     2576.622        6.160        0.999      319.561       51.611        0.026      345.568       23.187      859.009
04/10/2014  18:03:00      -47.388       58.335        4.334       66.931       63.066       39.785     4479.791     3977.353     1582.852        0.785        0.502       75.157       25.056        0.111      345.903       23.766      858.998
04/10/2014  18:04:00     -165.931      149.833      -26.767       87.599      112.605       50.881     7673.570    12679.868     2588.854        3.682        1.147      223.569       41.966        0.035      345.823       23.626      859.008
04/10/2014  18:05:00     -177.508      249.531      -40.935      128.000      114.237       67.588    16384.052    13050.031     4568.152        6.472        1.700      306.227       72.152        0.056      345.734       23.472      859.009
04/10/2014  18:06:00     -185.231      257.352      -38.378      118.597      111.132       59.428    14065.350    12350.410     3531.692        6.597        1.497      317.081       57.984        0.033      345.552       23.162      859.008
04/10/2014  18:07:00     -193.219      187.227      -42.337      133.937       93.157       56.581    17939.094     8678.150     3201.354        5.199        1.491      269.049       62.961        0.055      345.606       23.251      858.991
04/10/2014  18:08:00     -203.552      334.589      -56.340      127.670      133.217       69.606    16299.734    17746.786     4845.065        9.772        1.945      391.642       75.444        0.037      345.522       23.109      858.997
04/10/2014  18:09:00     -105.273      220.907      -31.266       70.378       82.796       48.701     4953.105     6855.150     2371.766        3.752        0.709      244.708       42.850        0.031      345.597       23.237      858.986
04/10/2014  18:10:00     -123.831      147.496      -34.357       55.958       96.067       31.117     3131.274     9228.779      968.262        2.580        0.666      192.586       33.332        0.030      345.695       23.407      858.971
04/10/2014  18:11:00     -218.838      -10.765      -21.599      110.767       88.258       45.319    12269.395     7789.455     2053.840        3.529        1.106      219.102       39.536        0.033      345.740       23.486      858.954
04/10/2014  18:12:00     -109.012       77.502       -1.909      104.534      115.022       68.100    10927.440    13230.123     4637.626        2.334        1.440      133.754       68.830        0.265      345.644       23.319      858.941
04/10/2014  18:13:00     -215.036      237.932      -43.025       85.136      116.942       64.965     7248.129    13675.319     4220.506        6.492        1.257      320.705       60.729        0.036      345.506       23.080      858.980
04/10/2014  18:14:00     -113.341      246.878      -30.810       78.186      115.408       51.025     6112.988    13318.959     2603.550        4.839        1.102      271.652       39.959        0.022      345.532       23.124      858.969
04/10/2014  18:15:00     -111.934      228.782      -28.235       72.763      116.528       61.063     5294.458    13578.661     3728.673        4.413        1.130      254.697       53.484        0.044      345.526       23.116      858.973
04/10/2014  18:16:00      -63.000      271.651      -25.487       62.214      107.682       47.385     3870.542    11595.325     2245.317        4.806        0.886      278.861       44.989        0.026      345.498       23.067      858.978
04/10/2014  18:17:00     -167.721      189.580      -14.165      170.089      113.723       78.105    28930.378    12933.022     6100.330        5.611        2.398      253.122       81.442        0.104      345.538       23.137      858.975
04/10/2014  18:18:00     -158.192      300.758      -41.128       82.413      122.736       55.884     6791.903    15064.096     3123.033        7.107        1.249      339.824       57.810        0.029      345.522       23.108      858.965
04/10/2014  18:19:00     -105.019      108.141       -9.402       65.971       82.421       42.332     4352.151     6793.246     1792.040        1.787        0.647      150.743       32.834        0.047      345.701       23.420      858.974
04/10/2014  18:20:00     -122.670      126.610      -10.749      107.754      110.980       67.183    11610.818    12316.502     4513.556        2.981        1.422      176.290       70.020        0.158      345.681       23.385      858.989
04/10/2014  18:21:00     -253.324      252.994      -54.895       88.466      108.694       56.398     7826.184    11814.367     3180.790        7.700        1.141      358.021       49.739        0.019      345.486       23.046      858.990
04/10/2014  18:22:00     -156.695      197.725      -25.161       93.368      120.328       72.092     8717.573    14478.812     5197.328        4.633        1.420      252.287       61.134        0.059      345.485       23.045      858.984
04/10/2014  18:23:00     -199.060      299.318      -45.774      102.930      126.516       63.650    10594.525    16006.224     4051.375        8.098        1.533      359.467       55.884        0.024      345.456       22.995      858.982
04/10/2014  18:24:00     -135.930      156.931      -35.097       68.582       96.739       46.478     4703.445     9358.402     2160.163        3.028        0.811      207.616       39.435        0.036      345.532       23.126      858.974
04/10/2014  18:25:00     -182.798      142.782      -13.075      120.821       70.313       68.877    14597.795     4943.936     4744.073        3.912        1.214      231.952       69.288        0.089      345.523       23.111      858.978
04/10/2014  18:26:00     -131.315      192.921      -25.554      104.228      126.257       56.340    10863.492    15940.808     3174.231        4.254        1.499      233.371       59.318        0.065      345.496       23.065      858.963
04/10/2014  18:27:00     -259.784      263.480      -64.203       87.963      126.903       63.196     7737.427    16104.377     3993.759        8.443        1.392      370.012       59.542        0.026      345.445       22.976      858.970
04/10/2014  18:28:00     -125.328      159.285      -28.474       87.694       60.622       43.580     7690.155     3675.067     1899.241        2.757        0.663      202.679       46.738        0.053      345.449       22.985      858.949
04/10/2014  18:29:00     -157.461      217.350      -37.364       96.920      125.275       54.276     9393.551    15693.764     2945.848        5.073        1.402      268.394       62.201        0.054      345.467       23.016      858.959
04/10/2014  18:30:00     -119.579      125.178      -29.776       61.188      118.501       58.941     3743.929    14042.493     3474.056        2.605        1.063      173.114       30.297        0.031      345.587       23.223      858.954
04/10/2014  18:31:00     -141.718      173.318      -32.039      103.946      128.473       58.299    10804.777    16505.229     3398.761        4.092        1.535      223.882       61.759        0.076      345.446       22.980      858.961
04/10/2014  18:32:00     -166.393      188.366      -29.176       93.267       90.298       67.935     8698.693     8153.803     4615.188        4.274        1.073      251.333       51.447        0.042      345.405       22.907      858.967
04/10/2014  18:33:00     -118.231      235.371      -35.986       70.597       74.871       54.530     4984.005     5605.651     2973.526        4.212        0.678      263.397       49.690        0.036      345.344       22.803      858.958
04/10/2014  18:34:00      -91.505      142.344      -17.285       42.508       65.333       35.983     1806.936     4268.388     1294.779        1.815        0.369      169.219       24.031        0.020      345.403       22.904      858.944
04/10/2014  18:35:00     -132.229      140.828      -29.190       57.611      123.947       34.200     3319.067    15362.789     1169.613        2.901        0.993      193.176       18.827        0.009      345.500       23.073      858.939
04/10/2014  18:36:00     -183.903      247.970      -47.101       99.435      118.491       55.306     9887.283    14040.058     3058.711        6.225        1.349      308.722       61.952        0.040      345.383       22.870      858.954
04/10/2014  18:37:00     -158.120      196.661      -17.366      109.302      145.531       71.291    11947.027    21179.270     5082.391        5.109        1.910      252.344       66.657        0.070      345.376       22.859      858.938
04/10/2014  18:38:00     -196.297      216.288      -39.755       89.013       94.204       51.184     7923.233     8874.395     2619.848        5.315        0.971      292.084       40.962        0.020      345.364       22.837      858.953
04/10/2014  18:39:00     -112.897      185.460      -13.797       64.555      135.349       53.279     4167.407    18319.254     2838.643        3.632        1.266      217.120       40.147        0.034      345.384       22.874      858.950
04/10/2014  18:40:00     -183.138      168.083      -32.367      113.491      104.840       73.156    12880.164    10991.420     5351.734        4.603        1.461      248.579       68.925        0.077      345.346       22.807      858.943
04/10/2014  18:41:00     -161.967      277.825      -33.763       84.746      143.470       57.588     7181.897    20583.514     3316.348        6.781        1.554      321.590       65.316        0.041      345.268       22.673      858.943
04/10/2014  18:42:00      -85.370      208.650      -19.546       80.603       92.970       62.685     6496.848     8643.373     3929.386        3.513        0.953      225.439       53.958        0.057      345.269       22.674      858.952
04/10/2014  18:43:00     -175.096      203.068      -30.568       78.068       94.551       57.511     6094.604     8939.887     3307.505        4.558        0.917      268.133       34.280        0.016      345.297       22.722      858.952
04/10/2014  18:44:00     -202.789      199.351      -45.641      125.426      123.882       65.055    15731.749    15346.826     4232.090        5.912        1.766      284.366       74.100        0.068      345.277       22.689      858.955
04/10/2014  18:45:00     -102.795      205.722      -29.657       89.740       87.531       54.524     8053.233     7661.730     2972.843        3.622        0.934      229.975       58.362        0.064      345.246       22.635      858.957
04/10/2014  18:46:00     -138.007      253.127      -25.207       75.636      103.321       51.618     5720.819    10675.166     2664.424        5.140        0.953      288.304       53.228        0.034      345.222       22.595      858.952
04/10/2014  18:47:00     -115.242       95.828       -3.083       81.718      104.092       55.508     6677.902    10835.115     3081.118        2.153        1.030      149.879       62.316        0.173      345.329       22.779      858.955
04/10/2014  18:48:00     -257.365      222.715      -56.524      111.105       98.620       60.504    12344.347     9725.892     3660.719        7.238        1.287      340.351       69.237        0.041      345.202       22.560      858.948
04/10/2014  18:49:00     -172.816      178.968      -36.075       83.892      126.452       47.926     7037.948    15990.158     2296.939        4.426        1.266      248.787       37.680        0.023      345.205       22.566      858.941
04/10/2014  18:50:00     -108.966      123.007      -26.084       98.883       95.092       63.020     9777.864     9042.412     3971.498        2.523        1.140      164.330       49.717        0.092      345.231       22.612      858.927
04/10/2014  18:51:00     -156.497      152.338      -30.060      102.135       91.851       56.320    10431.577     8436.619     3171.955        3.532        1.102      218.400       60.258        0.076      345.206       22.568      858.940
04/10/2014  18:52:00     -123.970      218.178      -31.539       96.860       77.260       49.270     9381.823     5969.131     2427.530        4.087        0.889      250.938       37.342        0.022      345.169       22.503      858.937
04/10/2014  18:53:00      -95.185      130.846      -11.624       68.097       99.303       42.197     4637.269     9861.131     1780.550        2.129        0.814      161.805       37.220        0.053      345.170       22.507      858.948
04/10/2014  18:54:00     -151.781      186.861      -37.334      106.913      101.259       58.012    11430.486    10253.386     3365.387        4.219        1.252      240.737       64.210        0.071      345.138       22.453      858.956
04/10/2014  18:55:00     -201.669      238.956      -43.157      107.437       84.909       62.585    11542.707     7209.492     3916.828        6.115        1.133      312.682       56.439        0.033      345.116       22.413      858.956
04/10/2014  18:56:00     -118.667      150.271       -7.113       85.942       81.391       50.642     7386.023     6624.487     2564.634        2.664        0.829      191.476       49.288        0.066      345.136       22.450      858.949
04/10/2014  18:57:00     -163.213      179.739      -23.659       74.888       98.107       51.895     5608.173     9625.063     2693.140        3.871        0.896      242.785       44.417        0.033      345.162       22.492      858.967
04/10/2014  18:58:00     -157.121      184.650      -25.267      123.384       87.321       66.992    15223.643     7625.026     4487.934        4.337        1.367      242.451       61.766        0.065      345.116       22.414      858.972
04/10/2014  18:59:00      -97.849      125.880      -11.626       64.356       78.182       50.025     4141.696     6112.496     2502.462        1.915        0.638      159.437       44.220        0.077      345.126       22.433      858.982
04/10/2014  19:00:00     -224.303      205.177      -33.572       94.581      104.974       54.474     8945.592    11019.551     2967.392        5.823        1.147      303.989       47.174        0.024      345.112       22.405      858.989
04/10/2014  19:01:00     -211.269      213.471      -24.931      129.561       93.539       68.952    16785.987     8749.615     4754.399        6.055        1.515      300.340       58.577        0.038      345.062       22.320      859.010
04/10/2014  19:02:00     -218.645      213.757      -54.180       64.939       63.468       40.974     4217.013     4028.215     1678.874        5.318        0.496      305.774       31.814        0.011      345.088       22.364      859.014
04/10/2014  19:03:00     -219.181      139.186      -33.927      124.617       91.373       52.271    15529.419     8349.099     2732.246        4.758        1.331      259.640       52.983        0.042      345.057       22.311      859.018
04/10/2014  19:04:00     -142.443       92.665      -22.249       75.961       78.949       35.902     5770.005     6232.896     1288.980        2.133        0.665      169.932       34.932        0.042      345.116       22.415      859.023
04/10/2014  19:05:00     -132.479      155.783      -20.864       83.153      103.299       63.165     6914.491    10670.765     3989.770        3.191        1.079      204.497       54.624        0.071      345.027       22.261      859.051
04/10/2014  19:06:00      -90.278       25.430       -5.259       72.832       70.521       43.004     5304.436     4973.157     1849.383        1.047        0.606       93.791       31.916        0.116      345.071       22.339      859.062
04/10/2014  19:07:00      -97.586       29.250       -9.642       72.160       47.497       28.364     5207.069     2255.959      804.515        0.937        0.413      101.876       26.192        0.066      345.023       22.258      859.058
04/10/2014  19:08:00     -125.708       34.636      -16.049       85.783       80.636       41.718     7358.692     6502.198     1740.392        1.643        0.780      130.392       35.409        0.074      344.993       22.205      859.072
04/10/2014  19:09:00     -202.321       -4.839      -17.076      129.339       81.582       52.116    16728.641     6655.583     2716.103        3.367        1.305      202.379       61.242        0.092      344.933       22.102      859.081
04/10/2014  19:10:00     -171.643       13.202      -13.686      121.520      125.965       65.486    14767.065    15867.147     4288.356        3.237        1.746      172.150       62.397        0.131      344.788       21.852      859.089
04/10/2014  19:11:00     -161.409      -16.117      -19.874       69.994       62.023       39.912     4899.199     3846.847     1592.936        1.852        0.517      162.212       35.584        0.048      344.836       21.935      859.111
04/10/2014  19:12:00     -124.961       24.015      -20.392       61.388       67.162       36.879     3768.480     4510.703     1360.087        1.312        0.482      127.247       36.048        0.080      344.772       21.827      859.122
04/10/2014  19:13:00     -162.155       51.843      -26.266       71.865       78.100       38.259     5164.550     6099.665     1463.784        2.120        0.636      170.240       36.499        0.046      344.683       21.674      859.129
04/10/2014  19:14:00     -188.088       15.051      -22.683       76.675       97.774       49.201     5879.062     9559.688     2420.712        2.699        0.893      188.689       35.630        0.036      344.694       21.692      859.143
04/10/2014  19:15:00     -193.323       77.436      -23.414      101.443       80.802       50.694    10290.599     6529.012     2569.891        3.165        0.969      208.255       43.164        0.043      344.578       21.493      859.148
04/10/2014  19:16:00     -215.217       17.884      -31.224       95.727       85.533       43.934     9163.667     7315.826     1930.156        3.301        0.920      215.959       35.817        0.028      344.535       21.422      859.163
04/10/2014  19:17:00     -168.015      -22.258      -13.642      114.067       69.496       53.578    13011.181     4829.687     2870.610        2.481        1.036      169.482       55.608        0.108      344.497       21.354      859.165
04/10/2014  19:18:00     -137.443       38.928       -6.822      109.361       87.486       52.690    11959.922     7653.779     2776.220        2.142        1.119      142.849       44.828        0.098      344.464       21.300      859.172
04/10/2014  19:19:00      -92.999       14.732       -9.752       81.973      106.576       52.274     6719.506    11358.532     2732.618        1.488        1.041       94.158       36.028        0.146      344.461       21.294      859.156
04/10/2014  19:20:00     -126.719       36.559       -6.959       87.756       86.813       38.364     7701.184     7536.536     1471.821        1.707        0.835      131.887       37.607        0.081      344.474       21.318      859.174
04/10/2014  19:21:00      -73.105      -12.604       -0.600       94.390       88.123       47.686     8909.527     7765.622     2273.997        1.222        0.947       74.184       43.568        0.345      344.456       21.287      859.167
04/10/2014  19:22:00     -132.412       21.858      -14.508       59.716       76.988       48.756     3566.054     5927.211     2377.171        1.504        0.594      134.204       22.141        0.027      344.503       21.367      859.178
04/10/2014  19:23:00     -166.946       24.908      -38.712       69.500       84.503       39.793     4830.230     7140.802     1583.480        2.177        0.678      168.793       25.432        0.023      344.455       21.285      859.200
04/10/2014  19:24:00     -105.844       23.774      -22.071       66.409      100.582       43.121     4410.179    10116.795     1859.387        1.432        0.819      108.481       45.253        0.174      344.472       21.313      859.214
04/10/2014  19:25:00      -74.240      -42.241        6.324       69.478       81.810       42.683     4827.227     6692.798     1821.850        1.034        0.667       85.416       36.238        0.180      344.378       21.152      859.232
04/10/2014  19:26:00     -204.147      -65.438      -23.323      123.705       64.506       46.929    15303.016     4161.053     2202.310        3.408        1.083      214.378       43.111        0.040      344.319       21.049      859.248
04/10/2014  19:27:00     -168.468      -38.079      -13.625       77.068       61.633       43.368     5939.403     3798.676     1880.802        2.082        0.581      172.717       35.089        0.041      344.269       20.966      859.253
04/10/2014  19:28:00     -222.600      -28.542      -19.215       92.074       80.727       49.710     8477.688     6516.897     2471.117        3.410        0.873      224.423       44.382        0.039      344.212       20.866      859.266
04/10/2014  19:29:00     -118.992      -45.780       -1.951      114.477       67.238       48.163    13104.999     4520.962     2319.676        1.810        0.997      127.495       57.405        0.203      344.188       20.830      859.260
04/10/2014  19:30:00     -145.985      -69.247       -1.089      107.214       62.382       42.913    11494.740     3891.478     1841.492        2.166        0.861      161.576       44.860        0.077      344.139       20.744      859.274
04/10/2014  19:31:00     -203.388      -55.890      -21.393       90.240       90.214       36.725     8143.195     8138.503     1348.714        3.129        0.882      210.928       26.578        0.016      344.176       20.807      859.282
04/10/2014  19:32:00     -152.432      -36.746        0.315       83.383       63.610       46.576     6952.722     4046.215     2169.291        1.887        0.658      156.798       41.440        0.070      344.118       20.708      859.287
04/10/2014  19:33:00     -194.065      -39.521      -18.099      103.283       77.276       42.186    10667.464     5971.602     1779.691        2.898        0.921      198.048       38.516        0.038      344.133       20.733      859.284
04/10/2014  19:34:00     -244.712      -61.248      -26.601       94.920      110.778       48.606     9009.818    12271.855     2362.584        4.399        1.182      252.260       44.574        0.031      344.125       20.717      859.285
04/10/2014  19:35:00     -170.863      -33.555      -17.621      105.412       62.345       46.360    11111.636     3886.957     2149.274        2.389        0.857      174.127       41.629        0.057      344.130       20.728      859.293
04/10/2014  19:36:00     -159.483      -53.616       -0.601      100.549       59.714       44.364    10110.097     3565.737     1968.186        2.197        0.782      168.254       47.947        0.081      344.039       20.574      859.304
04/10/2014  19:37:00     -150.125      -31.850      -13.504      109.076       70.223       48.445    11897.587     4931.204     2346.946        2.145        0.959      153.467       45.248        0.087      344.071       20.628      859.311
04/10/2014  19:38:00     -183.382      -36.946       -7.405       97.820       48.914       42.661     9568.782     2392.594     1819.935        2.441        0.689      187.066       39.597        0.045      343.996       20.499      859.316
04/10/2014  19:39:00     -141.690      -57.484        3.550       81.931       70.978       37.064     6712.679     5037.875     1373.703        1.826        0.656      152.907       32.104        0.044      343.966       20.448      859.333
04/10/2014  19:40:00     -173.383      -47.004      -16.323       78.137       61.372       43.842     6105.426     3766.497     1922.117        2.216        0.590      179.641       36.569        0.041      344.005       20.514      859.341
04/10/2014  19:41:00     -219.412      -57.131      -24.405       76.410       72.361       40.232     5838.560     5236.168     1618.634        3.234        0.635      226.728       32.679        0.021      343.974       20.460      859.356
04/10/2014  19:42:00     -165.889      -29.346       -1.631       82.041       69.011       44.035     6730.718     4762.529     1939.076        2.090        0.672      168.464       44.592        0.070      343.939       20.403      859.369
04/10/2014  19:43:00     -224.929      -46.433       -8.604      110.605       67.725       48.453    12233.509     4586.729     2347.726        3.599        0.958      229.672       62.546        0.074      343.869       20.281      859.382
04/10/2014  19:44:00     -170.026      -13.338       -3.884       71.046       83.017       41.257     5047.587     6891.838     1702.138        2.137        0.682      170.548       28.246        0.027      343.896       20.330      859.401
04/10/2014  19:45:00     -208.417      -69.669       -3.958       81.527       55.196       35.175     6646.634     3046.646     1237.310        2.962        0.547      219.754       37.043        0.028      343.859       20.266      859.415
04/10/2014  19:46:00     -196.469      -65.946       -7.207       80.323       67.550       39.495     6451.823     4563.040     1559.825        2.779        0.629      207.241       40.508        0.038      343.789       20.144      859.441
04/10/2014  19:47:00     -168.882      -52.435       -4.763       82.525       61.084       34.791     6810.350     3731.240     1210.436        2.152        0.588      176.835       36.716        0.043      343.814       20.188      859.448
04/10/2014  19:48:00     -242.133      -80.258      -10.897       82.380       68.362       44.319     6786.508     4673.420     1964.198        3.930        0.671      255.087       30.973        0.015      343.815       20.189      859.459
04/10/2014  19:49:00     -244.228      -53.381       -9.644       97.039       67.072       39.046     9416.614     4498.675     1524.557        3.901        0.772      249.994       34.248        0.019      343.762       20.099      859.468
04/10/2014  19:50:00     -329.804      -71.709      -10.210       81.268       75.313       47.751     6604.531     5672.027     2280.163        6.428        0.728      337.510       36.355        0.012      343.804       20.170      859.482
04/10/2014  19:51:00     -319.772      -83.555      -12.379      126.826       79.331       55.659    16084.848     6293.382     3097.909        6.743        1.274      330.508       69.622        0.044      343.837       20.228      859.487
04/10/2014  19:52:00     -310.459      -60.819      -12.536       85.765       79.500       40.918     7355.697     6320.298     1674.317        5.779        0.768      316.360       42.005        0.018      343.892       20.319      859.485
04/10/2014  19:53:00     -317.524      -83.878      -12.073       92.522       74.742       52.287     8560.307     5586.319     2733.914        6.244        0.844      328.416       45.386        0.019      343.883       20.306      859.493
04/10/2014  19:54:00     -251.020      -60.539      -13.549       93.604       68.143       44.171     8761.629     4643.407     1951.077        4.110        0.768      258.217       42.280        0.027      343.850       20.249      859.502
04/10/2014  19:55:00     -313.162       -4.428      -24.970       76.597       67.804       46.881     5867.125     4597.316     2197.871        5.569        0.633      313.193       41.214        0.017      343.888       20.314      859.507
04/10/2014  19:56:00     -235.066      -54.779      -33.375       70.539       57.834       38.984     4975.807     3344.727     1519.740        3.460        0.492      241.365       34.834        0.021      343.880       20.302      859.514
04/10/2014  19:57:00     -326.840      -45.964      -41.984       64.125       93.447       46.852     4111.966     8732.410     2195.108        6.287        0.752      330.056       45.666        0.019      343.883       20.306      859.515
04/10/2014  19:58:00     -260.275      -87.377      -10.310       75.500       76.096       49.034     5700.281     5790.553     2404.295        4.469        0.695      274.550       45.900        0.028      343.861       20.266      859.517
04/10/2014  19:59:00     -237.994      -52.828       -9.948       68.218       71.274       40.135     4653.689     5079.971     1610.835        3.544        0.567      243.786       34.837        0.020      343.818       20.193      859.534
04/10/2014  20:00:00     -264.445     -110.816      -18.148       57.287       47.784       35.947     3281.809     2283.306     1292.209        4.470        0.343      286.725       24.202        0.007      343.822       20.200      859.543
04/10/2014  20:01:00     -280.192      -68.097      -28.066      114.430       79.818       45.748    13094.239     6370.912     2092.858        5.274        1.078      288.348       51.806        0.032      343.859       20.264      859.550
04/10/2014  20:02:00     -297.614      -74.634      -22.979      111.804      101.392       57.906    12500.216    10280.424     3353.069        6.040        1.307      306.829       62.277        0.041      343.873       20.288      859.567
04/10/2014  20:03:00     -290.599     -110.632      -23.421      141.656      118.265       62.563    20066.446    13986.593     3914.172        6.759        1.898      310.946       60.627        0.038      343.917       20.362      859.578
04/10/2014  20:04:00     -324.974     -128.543      -23.483       82.757       74.179       51.884     6848.775     5502.595     2691.986        6.886        0.752      349.473       33.016        0.009      343.856       20.259      859.593
04/10/2014  20:05:00     -331.942      -45.474       -8.840      130.051      100.535       58.303    16913.290    10107.305     3399.202        7.137        1.521      335.043       65.070        0.038      343.848       20.243      859.617
04/10/2014  20:06:00     -367.048     -110.046      -17.086      116.693      120.885       58.313    13617.319    14613.279     3400.420        8.937        1.582      383.190       51.749        0.018      343.846       20.241      859.646
04/10/2014  20:07:00     -231.483      -42.037      -12.803       91.090       86.873       44.473     8297.353     7546.865     1977.891        3.667        0.891      235.269       43.311        0.034      343.849       20.247      859.663
04/10/2014  20:08:00     -160.744      -58.838       -9.361      149.690       87.849       49.831    22407.105     7717.405     2483.109        3.099        1.630      171.174       46.351        0.073      343.824       20.206      859.676
04/10/2014  20:09:00     -318.267     -100.429      -19.455      108.570      114.631       55.970    11787.353    13140.315     3132.608        6.990        1.403      333.736       59.024        0.031      343.923       20.374      859.698
04/10/2014  20:10:00     -214.282      -66.536       -9.468      103.187      109.023       64.708    10647.604    11886.037     4187.175        3.857        1.336      224.374       43.627        0.038      343.927       20.380      859.715
04/10/2014  20:11:00     -301.343      -68.527       -4.112      136.287      108.738       68.667    18574.111    11823.850     4715.140        6.531        1.756      309.036       72.864        0.056      343.923       20.375      859.742
04/10/2014  20:12:00     -386.007      -99.800      -19.235      105.501       75.492       52.942    11130.473     5699.047     2802.847        8.948        0.982      398.700       51.257        0.017      343.916       20.362      859.750
04/10/2014  20:13:00     -190.826      -21.981       -8.884       98.785       89.550       48.222     9758.524     8019.186     2325.335        2.854        1.005      192.087       48.146        0.063      343.877       20.294      859.760
04/10/2014  20:14:00     -336.316       -5.504      -42.370       82.693       84.858       54.650     6838.091     7200.891     2986.627        6.598        0.851      336.361       39.478        0.014      343.894       20.323      859.783
04/10/2014  20:15:00     -282.874     -102.636       -8.874       87.226       73.814       44.596     7608.321     5448.559     1988.813        5.284        0.752      300.919       44.299        0.022      343.854       20.255      859.796
04/10/2014  20:16:00     -256.954      -84.888      -14.668      117.581      106.938       54.119    13825.305    11435.688     2928.847        5.081        1.409      270.613       53.851        0.040      343.833       20.219      859.799
04/10/2014  20:17:00     -213.589      -67.113      -23.013       79.837       76.676       37.697     6373.949     5879.161     1421.038        3.216        0.684      223.885       36.166        0.026      343.834       20.221      859.816
04/10/2014  20:18:00     -213.541     -103.012        0.440      118.217      100.230       53.083    13975.352    10046.121     2817.836        4.152        1.342      237.089       55.386        0.055      343.772       20.117      859.824
04/10/2014  20:19:00     -145.568      -63.264       16.230       91.339       99.159       57.157     8342.847     9832.567     3266.951        2.344        1.072      158.721       59.371        0.140      343.716       20.021      859.835
04/10/2014  20:20:00     -306.685      -44.335      -29.313       91.800       83.143       42.819     8427.291     6912.832     1833.461        5.702        0.859      309.873       31.952        0.011      343.829       20.214      859.845
04/10/2014  20:21:00     -368.487        1.862      -40.172       90.962       69.583       42.129     8274.105     4841.835     1774.839        7.614        0.745      368.492       38.919        0.011      343.793       20.151      859.869
04/10/2014  20:22:00     -259.878      -25.232      -22.636      117.079       77.766       47.172    13707.569     6047.546     2225.224        4.533        1.099      261.100       43.610        0.028      343.718       20.024      859.886
04/10/2014  20:23:00     -296.273      -58.714      -11.727      110.390       73.053       45.810    12186.050     5336.692     2098.587        5.549        0.981      302.035       47.735        0.025      343.730       20.043      859.901
04/10/2014  20:24:00     -314.461      -20.186      -26.312      122.980      112.933       58.312    15124.165    12753.958     3400.247        6.563        1.564      315.108       58.946        0.035      343.761       20.096      859.914
04/10/2014  20:25:00     -323.181      -40.993      -27.243      127.534      109.730       64.069    16264.950    12040.681     4104.856        6.963        1.621      325.771       65.861        0.041      343.742       20.065      859.925
04/10/2014  20:26:00     -310.892      -82.762      -16.856       92.880      106.697       53.236     8626.768    11384.353     2834.075        6.331        1.142      321.719       51.313        0.025      343.724       20.032      859.940
04/10/2014  20:27:00     -240.732      -17.037      -10.125       98.827       98.237       57.045     9766.812     9650.544     3254.153        4.050        1.134      241.334       48.769        0.041      343.695       19.983      859.957
04/10/2014  20:28:00     -160.456      -58.059        2.536       90.608       68.156       47.733     8209.800     4645.251     2278.476        2.213        0.757      170.637       51.037        0.089      343.666       19.935      859.968
04/10/2014  20:29:00     -184.459      -33.398       -2.224       77.028       57.543       40.197     5933.288     3311.186     1615.809        2.300        0.543      187.458       39.467        0.044      343.642       19.895      859.987
04/10/2014  20:30:00     -281.854      -68.279       -0.239      111.630       83.037       50.967    12461.213     6895.214     2597.627        5.302        1.098      290.007       57.962        0.040      343.668       19.938      860.002
04/10/2014  20:31:00     -322.355     -149.157       -5.355      119.273      149.327       67.947    14226.134    22298.511     4616.763        8.366        2.057      355.191       58.647        0.027      343.716       20.021      860.011
04/10/2014  20:32:00     -195.793       -8.195       -1.461      108.761       86.241       57.267    11828.847     7437.446     3279.541        3.047        1.127      195.965       64.966        0.110      343.627       19.871      860.018
04/10/2014  20:33:00     -294.542      -24.057       -7.075      129.344       90.151       64.154    16729.908     8127.156     4115.748        5.817        1.449      295.523       66.912        0.051      343.627       19.867      860.035
04/10/2014  20:34:00     -337.830     -104.935       -5.630      199.603      135.442       75.943    39841.295    18344.596     5767.399        9.455        3.198      353.752       87.737        0.062      343.637       19.885      860.034
04/10/2014  20:35:00     -424.136      -95.793      -24.328      117.406      132.611       64.008    13784.069    17585.753     4096.973       11.256        1.773      434.819       63.966        0.022      343.665       19.933      860.053
04/10/2014  20:36:00     -223.198      -90.509       -9.759      126.711      134.906       72.473    16055.744    18199.708     5252.399        4.880        1.975      240.851       77.173        0.103      343.629       19.872      860.060
04/10/2014  20:37:00     -144.126      -97.509       19.063      152.339      132.130       83.810    23207.039    17458.311     7024.113        3.916        2.384      174.012       88.652        0.260      343.593       19.812      860.062
04/10/2014  20:38:00     -338.669      -47.794      -12.438      172.640      106.382       68.190    29804.534    11317.197     4649.882        8.144        2.289      342.025       85.041        0.062      343.619       19.855      860.086
04/10/2014  20:39:00     -211.348      -55.452       -3.399      107.721       98.169       49.865    11603.916     9637.220     2486.512        3.574        1.186      218.502       34.484        0.025      343.620       19.858      860.084
04/10/2014  20:40:00     -324.424      -85.137      -11.440      241.755      132.760       77.516    58445.523    17625.231     6008.751        9.734        4.104      335.410       96.281        0.082      343.536       19.714      860.076
04/10/2014  20:41:00     -339.083     -119.345       -8.182      176.327      115.936       65.702    31091.093    13441.166     4316.754        8.906        2.442      359.473       59.949        0.028      343.517       19.681      860.076
04/10/2014  20:42:00     -347.372      -56.756       -8.204      205.374       96.029       65.783    42178.493     9221.633     4327.360        8.983        2.786      351.978       80.341        0.052      343.513       19.677      860.096
04/10/2014  20:43:00     -314.313      -65.860        1.169      132.731       97.521       64.773    17617.497     9510.276     4195.485        6.722        1.566      321.139       64.189        0.040      343.488       19.631      860.098
04/10/2014  20:44:00     -190.017      -35.438       -9.537      166.600      109.751       68.297    27755.609    12045.231     4664.444        4.095        2.223      193.293       56.607        0.086      343.426       19.525      860.092
04/10/2014  20:45:00     -325.722      -51.547       -5.235      154.248      150.786       72.776    23792.333    22736.409     5296.415        8.029        2.591      329.776       58.909        0.032      343.458       19.581      860.097
04/10/2014  20:46:00     -338.088      -25.024       -0.817      176.014      119.040       74.528    30980.888    14170.419     5554.457        8.281        2.535      339.013       78.487        0.054      343.450       19.566      860.109
04/10/2014  20:47:00     -420.057        8.729      -30.376      147.337      147.359       74.103    21708.284    21714.759     5491.248       11.317        2.446      420.148       61.578        0.021      343.489       19.633      860.092
04/10/2014  20:48:00     -317.863      -50.847      -19.679      132.116      133.934       68.061    17454.549    17938.372     4632.324        7.201        2.001      321.904       47.832        0.022      343.452       19.571      860.119
04/10/2014  20:49:00     -331.123      -97.407      -13.291      159.174      150.244       72.874    25336.492    22573.313     5310.619        8.625        2.661      345.153       80.795        0.055      343.434       19.540      860.116
04/10/2014  20:50:00     -212.193      -48.670       -4.453      160.573      115.716       78.121    25783.573    13390.193     6102.935        4.634        2.264      217.703       83.327        0.147      343.395       19.475      860.112
04/10/2014  20:51:00     -448.053      -35.395      -23.089      151.159      141.805       76.601    22849.166    20108.705     5867.684       12.567        2.441      449.449       66.350        0.022      343.470       19.600      860.120
04/10/2014  20:52:00     -219.185      -56.458        1.769      163.217      139.524       75.225    26639.845    19466.812     5658.772        5.149        2.588      226.339       83.876        0.137      343.392       19.470      860.100
04/10/2014  20:53:00     -292.020      -70.145      -16.911      195.280       96.433       80.390    38134.440     9299.333     6462.542        7.218        2.695      300.326       96.475        0.103      343.416       19.511      860.104
04/10/2014  20:54:00     -228.520        0.072        8.987      175.978      134.806       71.835    30968.266    18172.633     5160.321        5.329        2.715      228.520       78.083        0.117      343.405       19.491      860.104
04/10/2014  20:55:00     -192.272     -102.881        9.467      154.518      115.527       76.922    23875.727    13346.381     5917.049        4.538        2.157      218.066       82.466        0.143      343.390       19.465      860.092
04/10/2014  20:56:00     -389.875      -85.254      -15.150      204.823      147.688       80.188    41952.521    21811.775     6430.059       11.483        3.510      399.087       97.845        0.060      343.409       19.499      860.108
04/10/2014  20:57:00     -195.928      -58.942        0.877      163.410      124.344       68.897    26702.956    15461.445     4746.746        4.438        2.346      204.602       63.210        0.095      343.357       19.409      860.092
04/10/2014  20:58:00     -341.235        9.174      -18.843      154.441      114.220       59.537    23851.924    13046.122     3544.681        7.865        2.022      341.358       59.601        0.030      343.376       19.441      860.081
04/10/2014  20:59:00     -475.513      -73.251      -32.748      213.161      153.223       71.878    45437.821    23477.294     5166.483       15.330        3.704      481.121       82.880        0.030      343.344       19.387      860.080
04/10/2014  21:00:00     -265.099      -72.078        4.542      237.662      183.368       94.041    56483.175    33623.904     8843.722        8.720        4.948      274.722      110.437        0.162      343.292       19.298      860.081
04/10/2014  21:01:00     -408.379     -119.351      -18.624      207.692      121.346       70.080    43136.174    14724.887     4911.265       12.206        3.139      425.462       78.542        0.034      343.329       19.360      860.080
04/10/2014  21:02:00     -375.408     -176.433      -13.156      204.052      156.416       92.824    41637.142    24465.950     8616.214       12.346        3.736      414.801       97.039        0.055      343.335       19.370      860.064
04/10/2014  21:03:00     -272.744     -177.918      -13.690      202.099      180.189       99.332    40843.835    32467.927     9866.769        9.469        4.159      325.644       99.395        0.093      343.318       19.342      860.079
04/10/2014  21:04:00     -263.670     -109.548      -15.698      133.463      126.380       72.917    17812.371    15972.003     5316.937        6.043        1.955      285.522       66.339        0.054      343.312       19.331      860.106
04/10/2014  21:05:00     -271.135     -149.416      -10.255      114.428       94.213       54.223    13093.873     8876.042     2940.092        6.042        1.246      309.580       29.195        0.009      343.349       19.394      860.110
04/10/2014  21:06:00     -251.804     -107.886        5.250      167.063      182.360       90.499    27909.955    33255.295     8190.096        7.220        3.468      273.943      102.892        0.141      343.337       19.376      860.111
04/10/2014  21:07:00     -337.670     -117.148       -8.834      217.648      155.256       78.095    47370.611    24104.349     6098.888       10.268        3.879      357.414      106.906        0.089      343.311       19.332      860.128
04/10/2014  21:08:00     -240.093      -78.946       -9.106      125.228       96.177       60.794    15682.097     9250.102     3695.967        4.629        1.431      252.739       65.188        0.067      343.277       19.273      860.150
04/10/2014  21:09:00     -201.007     -107.436        1.260      158.499      106.858       71.575    25121.781    11418.627     5123.012        4.680        2.083      227.917       63.434        0.077      343.265       19.253      860.162
04/10/2014  21:10:00     -321.761     -126.680      -26.384      150.766      149.354       70.217    22730.255    22306.669     4930.415        8.511        2.498      345.800       73.740        0.045      343.289       19.292      860.213
04/10/2014  21:11:00     -250.281      -88.836        3.853      146.362       98.423       68.630    21421.921     9687.023     4710.046        5.318        1.791      265.580       67.510        0.065      343.239       19.206      860.228
04/10/2014  21:12:00     -259.221      -33.012      -10.918      127.256      101.683       56.170    16194.077    10339.492     3155.031        4.904        1.484      261.315       53.724        0.042      343.231       19.191      860.258
04/10/2014  21:13:00     -150.808      -34.199        7.203       79.353       86.780       47.882     6296.851     7530.798     2292.691        2.004        0.806      154.637       38.098        0.061      343.195       19.135      860.260
04/10/2014  21:14:00     -234.820      -44.975      -16.010      134.913       89.689       51.496    18201.611     8044.105     2651.830        4.315        1.445      239.088       63.743        0.071      343.196       19.134      860.275
04/10/2014  21:15:00     -285.717      -41.680      -17.789      125.449      102.257       55.299    15737.572    10456.569     3057.967        5.646        1.463      288.741       55.223        0.037      343.167       19.083      860.275
04/10/2014  21:16:00     -307.390        2.307      -22.376      100.666       84.264       52.949    10133.680     7100.350     2803.551        5.751        1.002      307.399       59.894        0.038      343.159       19.071      860.282
04/10/2014  21:17:00     -243.270      -56.563       -6.626      115.617       94.693       52.052    13367.301     8966.824     2709.364        4.373        1.252      249.759       40.371        0.026      343.094       18.959      860.292
04/10/2014  21:18:00     -231.125      -74.972      -15.278       82.974       76.006       45.610     6884.731     5776.978     2080.268        3.700        0.737      242.980       44.957        0.034      343.085       18.944      860.318
04/10/2014  21:19:00     -233.868      -37.394      -11.067       68.777       77.328       39.612     4730.278     5979.690     1569.111        3.424        0.614      236.839       33.017        0.019      343.101       18.971      860.344
04/10/2014  21:20:00     -288.737       15.748      -27.111       83.404       75.889       42.255     6956.307     5759.158     1785.493        4.942        0.725      289.166       36.122        0.016      343.093       18.958      860.379
04/10/2014  21:21:00     -172.163       44.363       -9.553      123.366       90.498       49.430    15219.114     8189.809     2443.339        2.877        1.293      177.787       44.530        0.063      343.091       18.957      860.391
04/10/2014  21:22:00     -170.377        4.425       -7.464       84.126       76.810       45.423     7077.236     5899.760     2063.212        2.207        0.752      170.434       38.523        0.051      343.116       18.999      860.411
04/10/2014  21:23:00      -78.394      118.162      -17.224       73.892       54.668       34.127     5460.065     2988.638     1164.632        1.501        0.481      141.803       29.194        0.042      343.052       18.890      860.445
04/10/2014  21:24:00     -109.573      144.302      -16.134       86.883       68.182       43.976     7548.715     4648.726     1933.855        2.361        0.707      181.189       49.823        0.076      343.017       18.829      860.467
04/10/2014  21:25:00      -96.297       92.148      -10.268       69.035       93.747       40.072     4765.787     8788.523     1605.786        1.651        0.758      133.283       39.343        0.087      343.063       18.910      860.477
04/10/2014  21:26:00     -162.966      139.081      -27.143      108.984       67.521       40.651    11877.573     4559.088     1652.476        3.236        0.904      214.246       25.175        0.014      343.042       18.873      860.483
04/10/2014  21:27:00      -37.971      135.515      -27.449       35.471       60.727       30.127     1258.204     3687.734      907.633        1.321        0.293      140.734       25.003        0.032      342.981       18.770      860.502
04/10/2014  21:28:00      -67.794      152.316      -25.290       71.532       82.410       36.234     5116.873     6791.475     1312.887        2.083        0.661      166.722       29.718        0.032      342.917       18.660      860.529
04/10/2014  21:29:00      -75.711      224.890      -23.411       73.672       82.161       32.200     5427.569     6750.377     1036.848        3.503        0.661      237.293       31.972        0.018      342.958       18.730      860.525
04/10/2014  21:30:00      -34.544      189.420      -13.417       45.837       76.219       34.744     2101.034     5809.390     1207.166        2.318        0.456      192.544       36.213        0.035      342.951       18.718      860.507
04/10/2014  21:31:00      -87.594       55.748       -7.207       58.951       76.067       38.487     3475.172     5786.175     1481.220        1.079        0.537      103.830       35.798        0.119      342.934       18.691      860.544
04/10/2014  21:32:00     -123.090      108.903      -18.994       92.574       64.200       39.763     8570.019     4121.652     1581.123        2.082        0.714      164.350       52.884        0.104      342.921       18.668      860.546
04/10/2014  21:33:00     -171.245      147.844      -41.346       47.365       59.839       32.754     2243.467     3580.705     1072.794        2.989        0.345      226.236       21.093        0.009      343.041       18.872      860.547
04/10/2014  21:34:00     -160.611      190.585      -40.441       74.640       96.788       47.890     5571.130     9367.960     2293.437        4.049        0.862      249.236       51.709        0.043      343.010       18.816      860.546
04/10/2014  21:35:00     -114.501       53.947      -10.036       42.514       80.041       40.273     1807.476     6406.548     1621.945        1.298        0.492      126.573       35.648        0.079      343.012       18.824      860.545
04/10/2014  21:36:00     -113.448      101.836      -23.632       44.214       62.349       28.652     1954.851     3887.417      820.918        1.523        0.333      152.449       28.019        0.034      343.028       18.851      860.531
04/10/2014  21:37:00     -101.820      189.973      -26.492       80.861      103.405       38.673     6538.525    10692.520     1495.592        3.294        0.936      215.540       42.473        0.039      343.047       18.880      860.514
04/10/2014  21:38:00     -123.872      151.572      -22.963       61.090       71.222       47.881     3731.960     5072.521     2292.622        2.497        0.555      195.750       40.432        0.043      343.076       18.931      860.507
04/10/2014  21:39:00     -134.221      153.654      -31.793       57.206       64.167       34.018     3272.535     4117.411     1157.195        2.559        0.427      204.022       27.775        0.019      343.145       19.048      860.510
04/10/2014  21:40:00      -84.811      127.826      -14.299       51.876       62.130       42.593     2691.093     3860.138     1814.204        1.605        0.418      153.402       39.505        0.066      343.046       18.881      860.526
04/10/2014  21:41:00     -132.306      196.561      -34.900       50.165       59.727       31.093     2516.486     3567.373      966.773        3.220        0.353      236.941       18.226        0.006      343.148       19.052      860.529
04/10/2014  21:42:00     -157.020      100.217      -27.046       41.704       65.361       32.279     1739.230     4272.111     1041.932        2.124        0.353      186.276       21.063        0.013      343.072       18.926      860.544
04/10/2014  21:43:00     -247.292       71.525      -35.950      158.634       87.770       64.722    25164.881     7703.509     4188.993        5.230        1.853      257.429       76.770        0.089      343.032       18.855      860.551
04/10/2014  21:44:00     -215.951      101.129      -35.054       92.680      126.721       59.951     8589.673    16058.234     3594.166        4.316        1.412      238.457       53.570        0.050      343.018       18.830      860.545
04/10/2014  21:45:00     -226.661      -14.656      -11.211       88.582      100.704       39.286     7846.809    10141.376     1543.385        3.562        0.977      227.134       40.620        0.032      342.999       18.799      860.553
04/10/2014  21:46:00     -114.947      -49.820       10.003      125.107      102.383       50.525    15651.868    10482.262     2552.812        2.224        1.434      125.279       64.464        0.265      342.826       18.507      860.566
04/10/2014  21:47:00      -49.104      314.118      -37.567       72.707      202.770       46.593     5286.325    41115.794     2170.878        7.552        2.429      317.933       81.225        0.065      343.008       18.813      860.567
04/10/2014  21:48:00     -113.755      269.387      -24.394       73.715      121.292       57.317     5433.858    14711.813     3285.295        5.476        1.172      292.420       55.961        0.037      343.032       18.854      860.559
04/10/2014  21:49:00      -36.516      329.971      -36.532       76.219       98.938       49.600     5809.405     9788.680     2460.141        6.480        0.903      331.985       47.475        0.020      343.157       19.068      860.539
04/10/2014  21:50:00       54.366      274.156      -45.593       91.585      114.832       53.135     8387.762    13186.464     2823.315        5.229        1.220      279.495       57.796        0.043      342.984       18.772      860.507
04/10/2014  21:51:00       -0.886      157.931      -19.339       90.558       89.089       46.191     8200.839     7936.913     2133.594        2.179        0.914      157.934       52.311        0.110      342.931       18.685      860.521
04/10/2014  21:52:00       16.453       73.397       -2.676       95.255       63.076       58.734     9073.589     3978.542     3449.639        1.108        0.825       75.219       40.342        0.288      342.969       18.751      860.512
04/10/2014  21:53:00      -95.708       27.506       -5.685       63.760       72.447       33.407     4065.333     5248.519     1116.053        1.019        0.521       99.582       27.094        0.074      343.006       18.813      860.552
04/10/2014  21:54:00     -126.476       80.817      -27.087       52.112       49.897       24.025     2715.661     2489.725      577.200        1.452        0.289      150.092       19.508        0.017      342.887       18.610      860.570
04/10/2014  21:55:00     -110.542       31.533      -17.849       75.522       61.823       32.377     5703.517     3822.043     1048.290        1.205        0.529      114.951       33.185        0.083      342.876       18.592      860.609
04/10/2014  21:56:00     -191.359       91.620      -34.499       79.117       68.781       45.227     6259.460     4730.868     2045.483        2.962        0.652      212.162       29.919        0.020      342.688       18.270      860.676
04/10/2014  21:57:00      -90.937       60.375       -9.012       95.143      106.201       43.548     9052.128    11278.657     1896.420        1.711        1.111      109.154       40.460        0.137      342.595       18.115      860.679
04/10/2014  21:58:00     -120.284      144.685      -25.656       74.698       53.724       35.369     5579.783     2886.217     1250.967        2.289        0.486      188.154       31.673        0.028      342.870       18.580      860.643
04/10/2014  21:59:00     -137.287       85.694      -24.656       52.767       43.874       35.121     2784.310     1924.966     1233.486        1.637        0.297      161.837       21.679        0.018      342.758       18.391      860.649
04/10/2014  22:00:00     -129.139       34.950      -16.274       61.435       56.299       36.376     3774.309     3169.536     1323.241        1.321        0.413      133.785       36.472        0.074      342.833       18.519      860.659
04/10/2014  22:01:00      -38.929       95.780        1.297       67.035       68.490       35.868     4493.683     4690.826     1286.506        1.058        0.524      103.389       39.294        0.144      342.970       18.752      860.629
04/10/2014  22:02:00     -159.812       60.011      -25.848      113.878       76.332       55.924    12968.169     5826.594     3127.543        2.586        1.096      170.708       52.516        0.095      343.094       18.961      860.638
04/10/2014  22:03:00     -154.869      258.210      -31.186       66.570      116.260       49.488     4431.562    13516.361     2449.101        5.601        1.020      301.093       47.799        0.025      343.017       18.829      860.649
04/10/2014  22:04:00     -145.469      260.696      -33.097       72.177      104.055       46.827     5209.588    10827.347     2192.797        5.422        0.911      298.536       50.300        0.028      342.973       18.754      860.635
04/10/2014  22:05:00     -136.630      121.685       -9.063      107.444      153.059       60.065    11544.205    23427.089     3607.863        3.606        1.929      182.961       67.401        0.136      343.005       18.809      860.615
04/10/2014  22:06:00     -275.084     -109.257      -13.225      113.739       91.375       55.443    12936.612     8349.461     3073.933        5.607        1.218      295.987       59.804        0.041      343.081       18.937      860.615
04/10/2014  22:07:00     -368.996       -5.492      -30.343      125.742       81.347       56.274    15811.077     6617.403     3166.737        8.135        1.280      369.037       67.479        0.033      342.978       18.763      860.671
04/10/2014  22:08:00     -291.387      -95.323      -16.781      157.172      101.674       65.802    24703.079    10337.621     4329.916        6.681        1.969      306.583       73.189        0.057      342.956       18.724      860.653
04/10/2014  22:09:00     -237.581      -24.884      -11.191       96.160      104.623       43.180     9246.838    10945.906     1864.549        3.962        1.103      238.881       22.982        0.009      342.881       18.600      860.640
04/10/2014  22:10:00     -148.477       64.843      -44.339       62.267       85.597       36.829     3877.214     7326.807     1356.412        2.039        0.628      162.018       39.995        0.061      342.695       18.284      860.694
04/10/2014  22:11:00     -115.416       66.129      -12.820       91.976       71.583       51.527     8459.665     5124.097     2655.036        1.705        0.812      133.019       45.024        0.115      342.590       18.105      860.667
04/10/2014  22:12:00     -154.290       21.628      -16.002       77.790       74.415       37.528     6051.333     5537.646     1408.371        1.876        0.650      155.799       34.185        0.048      342.917       18.660      860.644
04/10/2014  22:13:00     -176.072      -37.621        5.584      103.332       73.171       53.250    10677.531     5354.066     2835.581        2.565        0.943      180.046       56.199        0.097      342.479       17.915      860.652
04/10/2014  22:14:00      -60.185      -13.965        3.036       78.156       44.473       42.062     6108.427     1977.862     1769.200        0.684        0.493       61.784       39.482        0.408      342.487       17.932      860.624
04/10/2014  22:15:00     -162.971       80.666      -27.406       60.143       64.654       48.536     3617.183     4180.172     2355.740        2.198        0.508      181.842       35.212        0.037      342.426       17.826      860.650
04/10/2014  22:16:00     -169.922      -47.486      -17.758       99.253       96.606       45.568     9851.091     9332.679     2076.474        2.635        1.063      176.432       40.506        0.053      342.239       17.508      860.651
04/10/2014  22:17:00     -162.424       36.214      -20.443       91.033      106.527       58.849     8287.009    11348.098     3463.167        2.560        1.155      166.412       42.822        0.066      342.613       18.143      860.657
04/10/2014  22:18:00     -111.290      123.051       -0.811       76.472       92.655       50.688     5847.921     8584.949     2569.313        2.226        0.850      165.913       52.438        0.100      342.802       18.465      860.612
04/10/2014  22:19:00     -159.632      170.567      -32.079       54.641       61.001       37.746     2985.627     3721.175     1424.750        3.187        0.407      233.614       34.176        0.021      342.997       18.796      860.573
04/10/2014  22:20:00     -123.779      105.236      -24.502       62.708       83.580       38.205     3932.296     6985.656     1459.597        1.968        0.619      162.468       36.859        0.051      343.044       18.878      860.579
04/10/2014  22:21:00     -134.751      -63.256       -0.665       73.786       80.539       38.830     5444.383     6486.523     1507.731        1.780        0.672      148.859       32.051        0.046      342.871       18.582      860.575
04/10/2014  22:22:00     -220.783      -34.452       -5.861       88.066       68.572       45.759     7755.648     4702.146     2093.919        3.226        0.728      223.455       41.053        0.034      342.894       18.620      860.565
04/10/2014  22:23:00     -114.814       98.044      -12.810       78.856      109.907       43.356     6218.286    12079.654     1879.772        2.156        1.009      150.980       45.131        0.089      342.549       18.033      860.590
04/10/2014  22:24:00     -102.703      100.269      -12.464       41.713       68.369       27.618     1740.000     4674.341      762.729        1.397        0.359      143.533       24.195        0.028      342.311       17.631      860.601
04/10/2014  22:25:00      -79.637       94.916      -15.940       51.048       57.755       21.349     2605.907     3335.636      455.783        1.100        0.320      123.900       25.445        0.042      342.250       17.528      860.590
04/10/2014  22:26:00     -100.979       79.281       -4.712       37.945       39.445       27.005     1439.821     1555.876      729.258        1.011        0.186      128.383       22.259        0.030      342.215       17.468      860.596
04/10/2014  22:27:00     -101.355      125.333      -23.902       32.788       48.672       23.169     1075.056     2369.010      536.794        1.527        0.199      161.187       17.119        0.011      342.177       17.403      860.601
04/10/2014  22:28:00     -103.174      184.478      -27.929       44.044       43.673       34.957     1939.840     1907.323     1222.023        2.526        0.253      211.370       27.437        0.017      342.088       17.251      860.611
04/10/2014  22:29:00      -53.138      210.305      -25.855       38.807       59.353       26.592     1505.946     3522.756      707.122        2.673        0.287      216.914       24.652        0.013      342.032       17.155      860.615
04/10/2014  22:30:00      -99.988      126.143      -22.588       46.447       49.445       29.375     2157.340     2444.817      862.887        1.594        0.273      160.964       20.630        0.016      342.042       17.174      860.620
04/10/2014  22:31:00      -70.101       80.455      -11.816       44.400       72.047       32.541     1971.372     5190.819     1058.940        0.987        0.411      106.711       21.762        0.042      342.026       17.147      860.629
04/10/2014  22:32:00      -96.277       81.297      -18.842       42.828       46.989       24.811     1834.223     2208.005      615.609        1.044        0.233      126.010       21.317        0.029      342.101       17.275      860.640
04/10/2014  22:33:00      -76.369       38.101      -27.418       51.158       75.286       25.303     2617.186     5668.049      640.255        0.848        0.446       85.346       33.970        0.158      342.109       17.289      860.649
04/10/2014  22:34:00      -72.499       57.972      -15.825       37.088       47.706       24.345     1375.527     2275.888      592.685        0.655        0.212       92.827       17.645        0.036      342.038       17.168      860.658
04/10/2014  22:35:00      -57.587       -1.169      -14.870       41.131       27.993       15.086     1691.720      783.622      227.575        0.312        0.135       57.599        9.020        0.025      342.076       17.233      860.666
04/10/2014  22:36:00      -42.665      -12.673        9.087       37.787       37.594       16.681     1427.821     1413.285      278.258        0.259        0.156       44.507       19.306        0.188      341.942       17.004      860.672
04/10/2014  22:37:00      -50.066       47.239       -3.294       66.580       82.990       30.042     4432.962     6887.318      902.503        0.848        0.611       68.834       25.081        0.133      341.990       17.087      860.685
04/10/2014  22:38:00      -68.943      -15.207      -10.714       30.152       44.316       15.603      909.167     1963.886      243.455        0.411        0.156       70.600        9.824        0.019      342.051       17.189      860.700
04/10/2014  22:39:00      -73.832      -11.588       -0.616       29.277       28.909       15.842      857.153      835.708      250.969        0.376        0.097       74.735       14.621        0.038      341.852       16.853      860.705
04/10/2014  22:40:00      -97.533      -35.539       -9.764       29.045       37.312       23.568      843.621     1392.180      555.456        0.683        0.140      103.806        4.539        0.002      341.943       17.008      860.698
04/10/2014  22:41:00      -71.652      -26.351       -3.993       32.572       23.751       19.269     1060.952      564.126      371.310        0.392        0.100       76.344        6.181        0.007      341.844       16.838      860.695
04/10/2014  22:42:00      -35.492       -1.681       -2.530       31.029       23.322       12.538      962.768      543.936      157.211        0.147        0.083       35.532       15.549        0.191      341.795       16.756      860.701
04/10/2014  22:43:00     -113.308      -27.085       -9.234       37.281       55.472       20.559     1389.881     3077.149      422.655        0.927        0.244      116.500       19.742        0.029      341.948       17.015      860.714
04/10/2014  22:44:00     -112.406      -17.473       -2.252       44.525       32.873       24.319     1982.433     1080.603      591.427        0.830        0.183      113.756       20.689        0.033      342.000       17.103      860.728
04/10/2014  22:45:00     -116.241      -15.862       -7.185       33.102       34.256       19.680     1095.737     1173.476      387.298        0.824        0.133      117.319       16.959        0.021      342.051       17.190      860.744
04/10/2014  22:46:00      -65.833      -27.223        0.262       46.794       35.808       24.233     2189.716     1282.204      587.237        0.457        0.203       71.239       16.287        0.052      342.046       17.183      860.750
04/10/2014  22:47:00     -136.690       -9.649       -7.301       61.253       54.781       24.369     3751.900     3000.989      593.855        1.309        0.367      137.030       25.014        0.033      342.158       17.371      860.757
04/10/2014  22:48:00     -104.763      -14.800       -2.720       47.241       41.576       28.639     2231.688     1728.600      820.220        0.799        0.239      105.803       25.906        0.060      342.270       17.562      860.755
04/10/2014  22:49:00     -120.238      -26.780       -1.183       51.419       38.552       31.412     2643.863     1486.240      986.723        1.015        0.256      123.184       26.272        0.045      342.237       17.506      860.760
04/10/2014  22:50:00     -134.440      -22.644       -6.513       55.943       38.653       25.527     3129.637     1494.055      651.650        1.195        0.264      136.334       30.765        0.051      342.213       17.466      860.771
04/10/2014  22:51:00     -117.043      -71.780       -5.102       44.177       31.185       22.642     1951.611      972.476      512.681        1.116        0.172      137.300       22.626        0.027      342.262       17.548      860.757
04/10/2014  22:52:00     -144.181      -20.342       -4.325       40.845       32.169       22.438     1668.286     1034.847      503.479        1.221        0.160      145.609       17.998        0.015      342.386       17.757      860.755
04/10/2014  22:53:00     -113.338      -14.533       -7.628       20.150       23.461       14.736      406.037      550.421      217.146        0.714        0.059      114.266       11.819        0.011      342.305       17.622      860.764
04/10/2014  22:54:00      -19.342       13.533        4.348       28.631       20.988       11.336      819.726      440.482      128.508        0.098        0.069       23.606       13.938        0.349      342.088       17.253      860.768
04/10/2014  22:55:00      -59.558       59.696      -17.142       41.893       30.480       17.343     1755.049      929.008      300.766        0.519        0.149       84.325       16.253        0.037      342.292       17.598      860.785
04/10/2014  22:56:00      -72.698       40.249      -12.691       28.838       16.047       10.080      831.640      257.516      101.611        0.413        0.060       83.096       11.125        0.018      342.205       17.451      860.806
04/10/2014  22:57:00      -67.284       95.086      -11.700       21.973       24.267       15.402      482.830      588.902      237.214        0.751        0.065      116.484       11.972        0.011      342.214       17.467      860.822
04/10/2014  22:58:00      -42.634       78.489      -11.353       28.582       24.057       15.096      816.927      578.722      227.877        0.486        0.081       89.320       13.447        0.023      342.362       17.718      860.826
04/10/2014  22:59:00        2.322       54.827        0.516       15.795       15.135       12.560      249.490      229.057      157.757        0.182        0.032       54.876        9.120        0.028      342.126       17.317      860.832
04/10/2014  23:00:00       13.145       46.829       -1.597       13.960       19.209       15.942      194.872      368.993      254.155        0.159        0.041       48.639       11.299        0.054      341.784       16.736      860.832
04/10/2014  23:01:00       43.289       21.178        1.196       19.317       15.799       17.475      373.144      249.604      305.376        0.163        0.046       48.192       11.249        0.054      341.688       16.574      860.831
04/10/2014  23:02:00       64.592       44.967       11.619       26.871       23.537       16.962      722.073      554.011      287.720        0.395        0.078       78.703       12.828        0.027      341.647       16.504      860.824
04/10/2014  23:03:00       37.450       19.047        5.013       19.348       20.340        9.826      374.359      413.697       96.551        0.134        0.044       42.016       12.074        0.083      341.485       16.228      860.837
04/10/2014  23:04:00       19.613       43.987       10.347       13.540       15.359       14.174      183.331      235.909      200.901        0.152        0.031       48.162        8.589        0.032      341.494       16.244      860.842
04/10/2014  23:05:00      -10.068       22.275        0.647       17.394       32.260       12.795      302.540     1040.695      163.709        0.105        0.075       24.444        5.846        0.057      341.417       16.116      860.834
04/10/2014  23:06:00        3.780       -0.532       -1.388       18.054       13.301       14.598      325.957      176.904      213.093        0.037        0.036        3.817        9.427        6.099      341.347       15.996      860.839
04/10/2014  23:07:00        7.899        5.027        7.204        9.817        7.898        9.723       96.381       62.376       94.545        0.020        0.013        9.363        4.084        0.190      341.269       15.863      860.853
04/10/2014  23:08:00       48.798       14.498       11.543       16.020       30.687       14.236      256.651      941.688      202.651        0.206        0.070       50.906        8.384        0.027      341.377       16.046      860.852
04/10/2014  23:09:00       -1.635       10.815        9.909       13.626       12.804       18.909      185.667      163.947      357.568        0.046        0.035       10.938        9.825        0.807      341.026       15.454      860.862
04/10/2014  23:10:00       10.793        1.047       14.430       27.511       14.815       20.093      756.872      219.491      403.719        0.085        0.069       10.843       17.660        2.652      341.233       15.804      860.882
04/10/2014  23:11:00       32.808      -30.653        2.347       25.717       26.567       26.057      661.380      705.780      678.989        0.203        0.102       44.899       20.793        0.214      341.121       15.613      860.883
04/10/2014  23:12:00       20.317       -0.426       13.379       32.952       22.996       26.228     1085.813      528.826      687.927        0.145        0.115       20.322       17.798        0.767      341.002       15.413      860.881
04/10/2014  23:13:00       31.508      -17.169        8.577       24.025       22.697       21.678      577.225      515.134      469.951        0.146        0.078       35.882       16.265        0.205      341.008       15.422      860.875
04/10/2014  23:14:00       36.492      -11.876        0.268       32.830       27.453       30.352     1077.841      753.643      921.251        0.211        0.138       38.375       19.551        0.260      341.093       15.568      860.873
04/10/2014  23:15:00       26.829       -5.751       14.714       24.217       21.978       19.303      586.455      483.028      372.608        0.121        0.072       27.438       10.650        0.151      341.059       15.511      860.880
04/10/2014  23:16:00        5.485        4.987       -2.746       17.948        8.956       11.760      322.141       80.216      138.296        0.030        0.027        7.413        6.249        0.711      341.072       15.532      860.904
04/10/2014  23:17:00       25.678       -5.430      -11.836       29.986       18.194       15.738      899.167      331.024      247.692        0.115        0.074       26.246        5.054        0.037      340.952       15.325      860.920
04/10/2014  23:18:00        9.767      -35.606       -0.303       26.437       14.547       19.837      698.926      211.605      393.488        0.133        0.065       36.921       19.792        0.287      341.030       15.461      860.938
04/10/2014  23:19:00      -37.504      -13.126        6.668       60.691       38.469       23.909     3683.414     1479.837      571.641        0.368        0.287       39.734       31.113        0.613      341.364       16.026      860.965
04/10/2014  23:20:00      -71.385      -42.599       -1.653       20.832       24.896       13.550      433.963      619.802      183.610        0.408        0.062       83.130       11.493        0.019      341.708       16.609      860.996
04/10/2014  23:21:00      -38.955      -50.446       -0.704       26.152       26.245       16.113      683.912      688.798      259.633        0.285        0.082       63.736       16.039        0.063      341.758       16.692      861.006
04/10/2014  23:22:00      -50.095      -57.695        6.530       36.059       21.635       20.224     1300.253      468.055      409.001        0.403        0.109       76.409       17.907        0.055      341.844       16.838      861.015
04/10/2014  23:23:00      -51.143       -8.847       -3.418       33.393       26.221       13.574     1115.097      687.540      184.243        0.235        0.099       51.903       16.446        0.100      341.751       16.681      861.031
04/10/2014  23:24:00      -61.156       33.251       -6.352       31.694       27.222       14.463     1004.531      741.016      209.176        0.342        0.098       69.611       12.636        0.033      341.291       15.903      861.058
04/10/2014  23:25:00      -96.924       21.124       -8.098       38.501       29.610       19.108     1482.356      876.723      365.122        0.631        0.136       99.199       13.150        0.018      341.358       16.014      861.066
04/10/2014  23:26:00     -126.305       25.198       -6.974       58.632       28.940       21.157     3437.760      837.548      447.626        1.068        0.236      128.794       24.498        0.036      341.296       15.911      861.078
04/10/2014  23:27:00     -176.680        3.370      -20.757       27.247       31.173       23.617      742.392      971.759      557.778        1.696        0.114      176.712       13.354        0.006      341.322       15.954      861.090
04/10/2014  23:28:00     -146.061      -11.071       -9.130       38.454       37.335       24.571     1478.712     1393.896      603.758        1.251        0.174      146.480       21.089        0.021      341.291       15.901      861.107
04/10/2014  23:29:00     -135.793       27.996       -4.266       40.811       38.506       17.979     1665.561     1482.684      323.237        1.136        0.174      138.649       16.719        0.015      341.319       15.950      861.121
04/10/2014  23:30:00      -64.588      -29.823        0.186       34.935       26.879       18.727     1220.471      722.462      350.712        0.368        0.115       71.141       13.361        0.035      341.285       15.891      861.124
04/10/2014  23:31:00      -89.032       26.047       -8.110       41.397       49.794       24.187     1713.676     2479.402      585.006        0.672        0.239       92.764       23.106        0.062      341.211       15.767      861.130
04/10/2014  23:32:00     -128.708       60.843      -13.181       43.507       31.447       22.475     1892.822      988.928      505.131        1.191        0.169      142.364       12.284        0.007      341.193       15.736      861.148
04/10/2014  23:33:00     -104.297        2.558       -6.375       58.673       35.464       26.630     3442.565     1257.700      709.178        0.817        0.270      104.328       30.213        0.084      341.155       15.671      861.156
04/10/2014  23:34:00     -113.781        8.272      -11.102       38.804       25.359       17.635     1505.785      643.070      310.982        0.780        0.123      114.081       15.988        0.020      340.982       15.377      861.149
04/10/2014  23:35:00     -104.467      -38.768       -8.784       24.487       20.003       17.236      599.608      400.124      297.087        0.689        0.065      111.428       13.271        0.014      340.989       15.391      861.155
04/10/2014  23:36:00      -62.586       -9.949       -9.935       31.637       29.057       12.394     1000.906      844.287      153.611        0.306        0.100       63.372        5.469        0.007      340.908       15.253      861.171
04/10/2014  23:37:00      -67.742      -30.237       -5.034       28.487       37.876       14.827      811.486     1434.560      219.844        0.400        0.123       74.184        8.388        0.013      340.913       15.260      861.170
04/10/2014  23:38:00     -115.826      -15.626       -8.040       52.223       31.859       21.625     2727.284     1015.006      467.633        0.897        0.210      116.875       18.776        0.026      340.881       15.208      861.163
04/10/2014  23:39:00     -165.651      -17.907      -10.934       51.525       42.139       27.710     2654.823     1775.699      767.848        1.654        0.260      166.616       21.963        0.017      341.133       15.634      861.168
04/10/2014  23:40:00     -162.240      -29.429       -2.925       49.789       45.291       26.436     2478.967     2051.307      698.888        1.621        0.261      164.888       25.065        0.023      341.189       15.728      861.161
04/10/2014  23:41:00     -136.230      -36.163       -7.043       32.668       25.167       17.186     1067.179      633.378      295.344        1.096        0.100      140.949       13.059        0.009      341.109       15.594      861.159
04/10/2014  23:42:00     -116.415       -7.870       -8.915       41.090       29.307       22.336     1688.348      858.888      498.892        0.837        0.152      116.680       23.642        0.041      341.091       15.562      861.156
04/10/2014  23:43:00     -148.741       -6.926      -12.927       29.766       34.958       18.223      886.043     1222.054      332.069        1.239        0.122      148.902       12.724        0.007      340.995       15.400      861.163
04/10/2014  23:44:00     -163.883       28.229      -11.700       36.906       30.638       21.941     1362.045      938.669      481.397        1.529        0.139      166.297       20.940        0.016      340.965       15.349      861.174
04/10/2014  23:45:00      -77.426       -6.276       -7.943       34.106       26.394       14.899     1163.224      696.664      221.979        0.409        0.104       77.680       10.420        0.018      340.865       15.181      861.169
04/10/2014  23:46:00     -104.686      -47.150       -6.507       23.383       26.102       14.709      546.761      681.326      216.354        0.733        0.072      114.814        8.634        0.006      340.972       15.363      861.176
04/10/2014  23:47:00     -110.381      -38.288       -8.401       20.497       38.657       18.558      420.117     1494.344      344.389        0.799        0.113      116.833       16.011        0.019      340.912       15.259      861.191
04/10/2014  23:48:00      -72.077      -22.657        4.090       30.784       41.941       22.077      947.682     1759.069      487.386        0.446        0.160       75.554       21.767        0.083      340.932       15.294      861.198
04/10/2014  23:49:00      -87.443      -32.074      -10.048       22.110       19.398       13.010      488.862      376.293      169.254        0.490        0.052       93.139       11.553        0.015      340.937       15.303      861.202
04/10/2014  23:50:00     -103.458      -22.714       -9.098       14.150       15.386       12.194      200.213      236.728      148.703        0.594        0.029      105.922        8.525        0.006      340.904       15.246      861.200
04/10/2014  23:51:00      -79.385       -9.746      -12.457       16.872       20.659       11.729      284.670      426.810      137.559        0.370        0.042       79.982       11.807        0.022      340.894       15.229      861.189
04/10/2014  23:52:00      -46.390      -18.816       -3.544       18.384       22.893       19.694      337.969      524.109      387.854        0.188        0.062       50.061       13.662        0.074      340.901       15.240      861.196
04/10/2014  23:53:00      -14.862      -37.013      -16.173       23.405       20.051       14.627      547.791      402.045      213.957        0.151        0.058       39.886       10.314        0.067      340.735       14.961      861.207
04/10/2014  23:54:00      -39.309      -20.898      -11.038       16.052       10.138        9.679      257.656      102.770       93.688        0.128        0.023       44.519        6.816        0.023      340.893       15.228      861.200
04/10/2014  23:55:00      -44.077      -21.932       -4.295       25.355       16.418        8.994      642.867      269.543       80.888        0.172        0.050       49.232        5.934        0.015      340.895       15.232      861.196
04/10/2014  23:56:00      -57.438       -8.026       -3.896       19.419       16.063       12.071      377.088      258.026      145.702        0.208        0.039       57.996       11.664        0.040      340.972       15.361      861.191
04/10/2014  23:57:00      -44.415        6.415       -1.824       11.857        8.082        9.064      140.585       65.312       82.147        0.115        0.014       44.876        5.185        0.013      340.933       15.296      861.193
04/10/2014  23:58:00      -44.486       -8.586      -10.198       10.524        8.203        7.229      110.758       67.289       52.264        0.119        0.012       45.307        6.285        0.019      341.033       15.465      861.198
04/10/2014  23:59:00      -42.289      -16.582        1.563       14.056       12.313        8.306      197.574      151.605       68.986        0.124        0.021       45.424        7.136        0.025      340.976       15.368      861.194
